<?xml version="1.0" encoding="UTF-8" standalone="no" ?>
<gpx xmlns="http://www.topografix.com/GPX/1/1" creator="MapSource 6.16.3" version="1.1" xmlns:xsi="http://www.w3.org/2001/XMLSchema-instance" xsi:schemaLocation="http://www.topografix.com/GPX/1/1 http://www.topografix.com/GPX/1/1/gpx.xsd">

  <metadata>
    <link href="http://www.garmin.com">
      <text>Garmin International</text>
    </link>
    <time>2014-09-29T19:59:46Z</time>
    <bounds maxlat="39.866729797795415" maxlon="3.184776864945889" minlat="39.854467073455453" minlon="3.167249970138073"/>
  </metadata>

  <trk>
    <name>02-SEP-14 17:39:22</name>
    <extensions>
      <gpxx:TrackExtension xmlns:gpxx="http://www.garmin.com/xmlschemas/GpxExtensions/v3">
        <gpxx:DisplayColor>DarkBlue</gpxx:DisplayColor>
      </gpxx:TrackExtension>
    </extensions>
    <trkseg>
      <trkpt lat="39.854484759271145" lon="3.180752461776137">
        <ele>50.130000000000003</ele>
        <time>2014-09-02T10:09:06Z</time>
      </trkpt>
      <trkpt lat="39.854604117572308" lon="3.180826976895332">
        <ele>51.090000000000003</ele>
        <time>2014-09-02T10:09:17Z</time>
      </trkpt>
      <trkpt lat="39.854609649628401" lon="3.180825300514698">
        <ele>51.090000000000003</ele>
        <time>2014-09-02T10:09:22Z</time>
      </trkpt>
      <trkpt lat="39.854631526395679" lon="3.180808704346418">
        <ele>51.090000000000003</ele>
        <time>2014-09-02T10:09:23Z</time>
      </trkpt>
      <trkpt lat="39.854637812823057" lon="3.180795963853598">
        <ele>51.090000000000003</ele>
        <time>2014-09-02T10:09:24Z</time>
      </trkpt>
      <trkpt lat="39.854626581072807" lon="3.180757574737072">
        <ele>51.090000000000003</ele>
        <time>2014-09-02T10:09:32Z</time>
      </trkpt>
      <trkpt lat="39.854642674326897" lon="3.180780708789825">
        <ele>51.57</ele>
        <time>2014-09-02T10:09:37Z</time>
      </trkpt>
      <trkpt lat="39.854580396786332" lon="3.180807363241911">
        <ele>51.57</ele>
        <time>2014-09-02T10:09:41Z</time>
      </trkpt>
      <trkpt lat="39.854544103145599" lon="3.180797304958105">
        <ele>51.090000000000003</ele>
        <time>2014-09-02T10:09:53Z</time>
      </trkpt>
      <trkpt lat="39.854544103145599" lon="3.180797304958105">
        <ele>53.969999999999999</ele>
        <time>2014-09-02T10:09:58Z</time>
      </trkpt>
      <trkpt lat="39.854544103145599" lon="3.180797304958105">
        <ele>51.090000000000003</ele>
        <time>2014-09-02T10:09:59Z</time>
      </trkpt>
      <trkpt lat="39.854554580524564" lon="3.180803591385484">
        <ele>51.57</ele>
        <time>2014-09-02T10:10:14Z</time>
      </trkpt>
      <trkpt lat="39.854562627151608" lon="3.180810129269958">
        <ele>51.57</ele>
        <time>2014-09-02T10:10:21Z</time>
      </trkpt>
      <trkpt lat="39.854554496705532" lon="3.180790096521378">
        <ele>51.090000000000003</ele>
        <time>2014-09-02T10:10:25Z</time>
      </trkpt>
      <trkpt lat="39.854551563039422" lon="3.180800154805183">
        <ele>51.57</ele>
        <time>2014-09-02T10:10:38Z</time>
      </trkpt>
      <trkpt lat="39.854563130065799" lon="3.180884057655931">
        <ele>51.57</ele>
        <time>2014-09-02T10:11:02Z</time>
      </trkpt>
      <trkpt lat="39.854562459513545" lon="3.180990675464273">
        <ele>51.090000000000003</ele>
        <time>2014-09-02T10:11:26Z</time>
      </trkpt>
      <trkpt lat="39.854486016556621" lon="3.180881207808852">
        <ele>51.57</ele>
        <time>2014-09-02T10:11:49Z</time>
      </trkpt>
      <trkpt lat="39.854500098153949" lon="3.180846925824881">
        <ele>51.57</ele>
        <time>2014-09-02T10:12:15Z</time>
      </trkpt>
      <trkpt lat="39.854497751221061" lon="3.180810548365116">
        <ele>51.57</ele>
        <time>2014-09-02T10:12:42Z</time>
      </trkpt>
      <trkpt lat="39.854497751221061" lon="3.180810548365116">
        <ele>51.57</ele>
        <time>2014-09-02T10:13:09Z</time>
      </trkpt>
      <trkpt lat="39.854497751221061" lon="3.180810548365116">
        <ele>51.090000000000003</ele>
        <time>2014-09-02T10:13:13Z</time>
      </trkpt>
      <trkpt lat="39.854497751221061" lon="3.180810548365116">
        <ele>50.130000000000003</ele>
        <time>2014-09-02T10:13:15Z</time>
      </trkpt>
      <trkpt lat="39.854497751221061" lon="3.180810548365116">
        <ele>52.049999999999997</ele>
        <time>2014-09-02T10:13:16Z</time>
      </trkpt>
      <trkpt lat="39.854496158659458" lon="3.180810213088989">
        <ele>53.009999999999998</ele>
        <time>2014-09-02T10:13:22Z</time>
      </trkpt>
      <trkpt lat="39.854496158659458" lon="3.180810213088989">
        <ele>51.090000000000003</ele>
        <time>2014-09-02T10:13:24Z</time>
      </trkpt>
      <trkpt lat="39.854497332125902" lon="3.180811554193497">
        <ele>53.009999999999998</ele>
        <time>2014-09-02T10:13:32Z</time>
      </trkpt>
      <trkpt lat="39.854497332125902" lon="3.180811554193497">
        <ele>51.57</ele>
        <time>2014-09-02T10:13:33Z</time>
      </trkpt>
      <trkpt lat="39.854497332125902" lon="3.180811554193497">
        <ele>53.009999999999998</ele>
        <time>2014-09-02T10:13:37Z</time>
      </trkpt>
      <trkpt lat="39.854497332125902" lon="3.180811554193497">
        <ele>51.57</ele>
        <time>2014-09-02T10:13:38Z</time>
      </trkpt>
      <trkpt lat="39.854497332125902" lon="3.180811554193497">
        <ele>52.049999999999997</ele>
        <time>2014-09-02T10:13:44Z</time>
      </trkpt>
      <trkpt lat="39.854497332125902" lon="3.180811554193497">
        <ele>51.090000000000003</ele>
        <time>2014-09-02T10:13:46Z</time>
      </trkpt>
      <trkpt lat="39.854498421773314" lon="3.180808704346418">
        <ele>51.57</ele>
        <time>2014-09-02T10:14:04Z</time>
      </trkpt>
      <trkpt lat="39.854499762877822" lon="3.180813482031226">
        <ele>51.57</ele>
        <time>2014-09-02T10:14:23Z</time>
      </trkpt>
      <trkpt lat="39.854499762877822" lon="3.180813482031226">
        <ele>51.57</ele>
        <time>2014-09-02T10:14:48Z</time>
      </trkpt>
      <trkpt lat="39.854499427601695" lon="3.180822785943747">
        <ele>51.57</ele>
        <time>2014-09-02T10:15:13Z</time>
      </trkpt>
      <trkpt lat="39.854496410116553" lon="3.180823121219873">
        <ele>51.57</ele>
        <time>2014-09-02T10:15:40Z</time>
      </trkpt>
      <trkpt lat="39.854497499763966" lon="3.180820941925049">
        <ele>51.57</ele>
        <time>2014-09-02T10:16:10Z</time>
      </trkpt>
      <trkpt lat="39.854497499763966" lon="3.180820941925049">
        <ele>51.57</ele>
        <time>2014-09-02T10:16:30Z</time>
      </trkpt>
      <trkpt lat="39.854500852525234" lon="3.180818343535066">
        <ele>51.57</ele>
        <time>2014-09-02T10:16:55Z</time>
      </trkpt>
      <trkpt lat="39.854497080668807" lon="3.180806022137404">
        <ele>51.57</ele>
        <time>2014-09-02T10:17:18Z</time>
      </trkpt>
      <trkpt lat="39.85450454056263" lon="3.180801160633564">
        <ele>51.090000000000003</ele>
        <time>2014-09-02T10:17:35Z</time>
      </trkpt>
      <trkpt lat="39.85450454056263" lon="3.180801160633564">
        <ele>51.57</ele>
        <time>2014-09-02T10:17:58Z</time>
      </trkpt>
      <trkpt lat="39.854509653523564" lon="3.180826306343079">
        <ele>52.049999999999997</ele>
        <time>2014-09-02T10:18:08Z</time>
      </trkpt>
      <trkpt lat="39.854507390409708" lon="3.180786408483982">
        <ele>51.57</ele>
        <time>2014-09-02T10:18:18Z</time>
      </trkpt>
      <trkpt lat="39.854528093710542" lon="3.180799735710025">
        <ele>51.57</ele>
        <time>2014-09-02T10:18:23Z</time>
      </trkpt>
      <trkpt lat="39.854568326845765" lon="3.180827395990491">
        <ele>52.049999999999997</ele>
        <time>2014-09-02T10:18:27Z</time>
      </trkpt>
      <trkpt lat="39.85462473705411" lon="3.180818343535066">
        <ele>51.57</ele>
        <time>2014-09-02T10:18:31Z</time>
      </trkpt>
      <trkpt lat="39.854681231081486" lon="3.180819265544415">
        <ele>52.049999999999997</ele>
        <time>2014-09-02T10:18:35Z</time>
      </trkpt>
      <trkpt lat="39.854691624641418" lon="3.180824294686317">
        <ele>51.090000000000003</ele>
        <time>2014-09-02T10:18:37Z</time>
      </trkpt>
      <trkpt lat="39.854703359305859" lon="3.180829910561442">
        <ele>53.969999999999999</ele>
        <time>2014-09-02T10:18:38Z</time>
      </trkpt>
      <trkpt lat="39.854745101183653" lon="3.180844830349088">
        <ele>47.719999999999999</ele>
        <time>2014-09-02T10:18:42Z</time>
      </trkpt>
      <trkpt lat="39.854751303792" lon="3.180853296071291">
        <ele>51.57</ele>
        <time>2014-09-02T10:18:43Z</time>
      </trkpt>
      <trkpt lat="39.854759518057108" lon="3.180862097069621">
        <ele>54.93</ele>
        <time>2014-09-02T10:18:44Z</time>
      </trkpt>
      <trkpt lat="39.854766391217709" lon="3.180870395153761">
        <ele>53.009999999999998</ele>
        <time>2014-09-02T10:18:45Z</time>
      </trkpt>
      <trkpt lat="39.854774186387658" lon="3.180873077362776">
        <ele>58.780000000000001</ele>
        <time>2014-09-02T10:18:50Z</time>
      </trkpt>
      <trkpt lat="39.854784999042749" lon="3.180872658267617">
        <ele>54.93</ele>
        <time>2014-09-02T10:18:51Z</time>
      </trkpt>
      <trkpt lat="39.854807211086154" lon="3.180880788713694">
        <ele>53.009999999999998</ele>
        <time>2014-09-02T10:18:52Z</time>
      </trkpt>
      <trkpt lat="39.854841576889157" lon="3.180885734036565">
        <ele>51.57</ele>
        <time>2014-09-02T10:18:54Z</time>
      </trkpt>
      <trkpt lat="39.854855658486485" lon="3.180904760956764">
        <ele>49.159999999999997</ele>
        <time>2014-09-02T10:18:56Z</time>
      </trkpt>
      <trkpt lat="39.854858843609691" lon="3.18090895190835">
        <ele>54.450000000000003</ele>
        <time>2014-09-02T10:18:58Z</time>
      </trkpt>
      <trkpt lat="39.85486957244575" lon="3.180914232507348">
        <ele>55.890000000000001</ele>
        <time>2014-09-02T10:18:59Z</time>
      </trkpt>
      <trkpt lat="39.854882480576634" lon="3.180915908887982">
        <ele>58.299999999999997</ele>
        <time>2014-09-02T10:19:00Z</time>
      </trkpt>
      <trkpt lat="39.854899076744914" lon="3.180916244164109">
        <ele>56.369999999999997</ele>
        <time>2014-09-02T10:19:01Z</time>
      </trkpt>
      <trkpt lat="39.854916175827384" lon="3.180920267477632">
        <ele>56.369999999999997</ele>
        <time>2014-09-02T10:19:02Z</time>
      </trkpt>
      <trkpt lat="39.854934699833393" lon="3.180923033505678">
        <ele>53.490000000000002</ele>
        <time>2014-09-02T10:19:03Z</time>
      </trkpt>
      <trkpt lat="39.854956995695829" lon="3.180922782048583">
        <ele>47.719999999999999</ele>
        <time>2014-09-02T10:19:05Z</time>
      </trkpt>
      <trkpt lat="39.85496386885643" lon="3.180925967171788">
        <ele>53.009999999999998</ele>
        <time>2014-09-02T10:19:06Z</time>
      </trkpt>
      <trkpt lat="39.854973508045077" lon="3.18093191832304">
        <ele>54.93</ele>
        <time>2014-09-02T10:19:07Z</time>
      </trkpt>
      <trkpt lat="39.854984739795327" lon="3.180939378216863">
        <ele>58.299999999999997</ele>
        <time>2014-09-02T10:19:08Z</time>
      </trkpt>
      <trkpt lat="39.854999408125877" lon="3.180941389873624">
        <ele>57.340000000000003</ele>
        <time>2014-09-02T10:19:09Z</time>
      </trkpt>
      <trkpt lat="39.855015501379967" lon="3.180942898616195">
        <ele>54.93</ele>
        <time>2014-09-02T10:19:10Z</time>
      </trkpt>
      <trkpt lat="39.855026062577963" lon="3.180948346853256">
        <ele>51.57</ele>
        <time>2014-09-02T10:19:11Z</time>
      </trkpt>
      <trkpt lat="39.855062272399664" lon="3.180961422622204">
        <ele>57.340000000000003</ele>
        <time>2014-09-02T10:19:14Z</time>
      </trkpt>
      <trkpt lat="39.85507526434958" lon="3.180969469249249">
        <ele>56.859999999999999</ele>
        <time>2014-09-02T10:19:15Z</time>
      </trkpt>
      <trkpt lat="39.855107869952917" lon="3.180983299389482">
        <ele>54.93</ele>
        <time>2014-09-02T10:19:17Z</time>
      </trkpt>
      <trkpt lat="39.855127315968275" lon="3.180979276075959">
        <ele>50.609999999999999</ele>
        <time>2014-09-02T10:19:18Z</time>
      </trkpt>
      <trkpt lat="39.855138128623366" lon="3.180975336581469">
        <ele>54.450000000000003</ele>
        <time>2014-09-02T10:19:19Z</time>
      </trkpt>
      <trkpt lat="39.855162687599659" lon="3.180982042104006">
        <ele>58.780000000000001</ele>
        <time>2014-09-02T10:19:25Z</time>
      </trkpt>
      <trkpt lat="39.855176936835051" lon="3.180991010740399">
        <ele>56.369999999999997</ele>
        <time>2014-09-02T10:19:26Z</time>
      </trkpt>
      <trkpt lat="39.855191521346569" lon="3.180999141186476">
        <ele>54.450000000000003</ele>
        <time>2014-09-02T10:19:27Z</time>
      </trkpt>
      <trkpt lat="39.855210045352578" lon="3.181018503382802">
        <ele>52.530000000000001</ele>
        <time>2014-09-02T10:19:29Z</time>
      </trkpt>
      <trkpt lat="39.855217924341559" lon="3.181022945791483">
        <ele>55.890000000000001</ele>
        <time>2014-09-02T10:19:30Z</time>
      </trkpt>
      <trkpt lat="39.855236113071442" lon="3.181042559444904">
        <ele>58.299999999999997</ele>
        <time>2014-09-02T10:19:32Z</time>
      </trkpt>
      <trkpt lat="39.855248434469104" lon="3.1810496840626">
        <ele>56.369999999999997</ele>
        <time>2014-09-02T10:19:33Z</time>
      </trkpt>
      <trkpt lat="39.855258828029037" lon="3.181055802851915">
        <ele>53.969999999999999</ele>
        <time>2014-09-02T10:19:34Z</time>
      </trkpt>
      <trkpt lat="39.855273077264428" lon="3.18106577731669">
        <ele>52.049999999999997</ele>
        <time>2014-09-02T10:19:36Z</time>
      </trkpt>
      <trkpt lat="39.855279447510839" lon="3.181071728467941">
        <ele>54.93</ele>
        <time>2014-09-02T10:19:37Z</time>
      </trkpt>
      <trkpt lat="39.855287997052073" lon="3.181079523637891">
        <ele>60.219999999999999</ele>
        <time>2014-09-02T10:19:38Z</time>
      </trkpt>
      <trkpt lat="39.855314316228032" lon="3.181096035987139">
        <ele>56.369999999999997</ele>
        <time>2014-09-02T10:19:40Z</time>
      </trkpt>
      <trkpt lat="39.855450773611665" lon="3.181129060685635">
        <ele>57.340000000000003</ele>
        <time>2014-09-02T10:19:51Z</time>
      </trkpt>
      <trkpt lat="39.855471309274435" lon="3.181160325184465">
        <ele>58.299999999999997</ele>
        <time>2014-09-02T10:19:55Z</time>
      </trkpt>
      <trkpt lat="39.855494694784284" lon="3.181170467287302">
        <ele>57.340000000000003</ele>
        <time>2014-09-02T10:19:57Z</time>
      </trkpt>
      <trkpt lat="39.855510452762246" lon="3.181176837533712">
        <ele>58.299999999999997</ele>
        <time>2014-09-02T10:19:58Z</time>
      </trkpt>
      <trkpt lat="39.85555806197226" lon="3.181192176416516">
        <ele>57.340000000000003</ele>
        <time>2014-09-02T10:20:02Z</time>
      </trkpt>
      <trkpt lat="39.855584632605314" lon="3.181201061233878">
        <ele>58.299999999999997</ele>
        <time>2014-09-02T10:20:04Z</time>
      </trkpt>
      <trkpt lat="39.855602150782943" lon="3.181207096204162">
        <ele>58.299999999999997</ele>
        <time>2014-09-02T10:20:05Z</time>
      </trkpt>
      <trkpt lat="39.85572662204504" lon="3.181275492534041">
        <ele>58.780000000000001</ele>
        <time>2014-09-02T10:20:14Z</time>
      </trkpt>
      <trkpt lat="39.855856206268072" lon="3.181335087865591">
        <ele>60.700000000000003</ele>
        <time>2014-09-02T10:20:27Z</time>
      </trkpt>
      <trkpt lat="39.855901636183262" lon="3.181327041238546">
        <ele>60.219999999999999</ele>
        <time>2014-09-02T10:20:31Z</time>
      </trkpt>
      <trkpt lat="39.855909179896116" lon="3.18132528103888">
        <ele>60.700000000000003</ele>
        <time>2014-09-02T10:20:32Z</time>
      </trkpt>
      <trkpt lat="39.855944216251373" lon="3.181339194998145">
        <ele>60.700000000000003</ele>
        <time>2014-09-02T10:20:36Z</time>
      </trkpt>
      <trkpt lat="39.855953184887767" lon="3.181337267160416">
        <ele>61.18</ele>
        <time>2014-09-02T10:20:37Z</time>
      </trkpt>
      <trkpt lat="39.855991993099451" lon="3.181339697912335">
        <ele>61.18</ele>
        <time>2014-09-02T10:20:38Z</time>
      </trkpt>
      <trkpt lat="39.856009343639016" lon="3.181336093693972">
        <ele>61.18</ele>
        <time>2014-09-02T10:20:39Z</time>
      </trkpt>
      <trkpt lat="39.856100874021649" lon="3.181351013481617">
        <ele>60.700000000000003</ele>
        <time>2014-09-02T10:20:46Z</time>
      </trkpt>
      <trkpt lat="39.856115374714136" lon="3.18134430795908">
        <ele>61.18</ele>
        <time>2014-09-02T10:20:47Z</time>
      </trkpt>
      <trkpt lat="39.856153512373567" lon="3.181357719004154">
        <ele>61.659999999999997</ele>
        <time>2014-09-02T10:20:49Z</time>
      </trkpt>
      <trkpt lat="39.856198523193598" lon="3.181429803371429">
        <ele>61.18</ele>
        <time>2014-09-02T10:20:56Z</time>
      </trkpt>
      <trkpt lat="39.856215203180909" lon="3.181448914110661">
        <ele>61.18</ele>
        <time>2014-09-02T10:20:57Z</time>
      </trkpt>
      <trkpt lat="39.856291729956865" lon="3.181520579382777">
        <ele>61.18</ele>
        <time>2014-09-02T10:21:05Z</time>
      </trkpt>
      <trkpt lat="39.856390887871385" lon="3.181643877178431">
        <ele>62.140000000000001</ele>
        <time>2014-09-02T10:21:14Z</time>
      </trkpt>
      <trkpt lat="39.856390468776226" lon="3.181662149727345">
        <ele>62.619999999999997</ele>
        <time>2014-09-02T10:21:17Z</time>
      </trkpt>
      <trkpt lat="39.856393905356526" lon="3.181675896048546">
        <ele>62.619999999999997</ele>
        <time>2014-09-02T10:21:18Z</time>
      </trkpt>
      <trkpt lat="39.856412513181567" lon="3.181701879948378">
        <ele>62.619999999999997</ele>
        <time>2014-09-02T10:21:19Z</time>
      </trkpt>
      <trkpt lat="39.856476048007607" lon="3.181755524128676">
        <ele>63.100000000000001</ele>
        <time>2014-09-02T10:21:25Z</time>
      </trkpt>
      <trkpt lat="39.856483424082398" lon="3.181766672059894">
        <ele>62.619999999999997</ele>
        <time>2014-09-02T10:21:26Z</time>
      </trkpt>
      <trkpt lat="39.856585934758186" lon="3.181833727285266">
        <ele>63.579999999999998</ele>
        <time>2014-09-02T10:21:37Z</time>
      </trkpt>
      <trkpt lat="39.856599597260356" lon="3.181843115016818">
        <ele>63.579999999999998</ele>
        <time>2014-09-02T10:21:38Z</time>
      </trkpt>
      <trkpt lat="39.856608398258686" lon="3.181848060339689">
        <ele>63.579999999999998</ele>
        <time>2014-09-02T10:21:39Z</time>
      </trkpt>
      <trkpt lat="39.856696492061019" lon="3.18187739700079">
        <ele>63.579999999999998</ele>
        <time>2014-09-02T10:21:46Z</time>
      </trkpt>
      <trkpt lat="39.856735887005925" lon="3.181902375072241">
        <ele>63.579999999999998</ele>
        <time>2014-09-02T10:21:48Z</time>
      </trkpt>
      <trkpt lat="39.856772599741817" lon="3.181942608207464">
        <ele>64.069999999999993</ele>
        <time>2014-09-02T10:21:53Z</time>
      </trkpt>
      <trkpt lat="39.85677913762629" lon="3.181948643177748">
        <ele>64.069999999999993</ele>
        <time>2014-09-02T10:21:54Z</time>
      </trkpt>
      <trkpt lat="39.856809731572866" lon="3.181962221860886">
        <ele>64.549999999999997</ele>
        <time>2014-09-02T10:21:56Z</time>
      </trkpt>
      <trkpt lat="39.856850551441312" lon="3.181993067264557">
        <ele>65.030000000000001</ele>
        <time>2014-09-02T10:22:01Z</time>
      </trkpt>
      <trkpt lat="39.856860106810927" lon="3.181997090578079">
        <ele>64.549999999999997</ele>
        <time>2014-09-02T10:22:02Z</time>
      </trkpt>
      <trkpt lat="39.856888856738806" lon="3.182004131376743">
        <ele>65.030000000000001</ele>
        <time>2014-09-02T10:22:03Z</time>
      </trkpt>
      <trkpt lat="39.856942081823945" lon="3.1820322945714">
        <ele>64.549999999999997</ele>
        <time>2014-09-02T10:22:08Z</time>
      </trkpt>
      <trkpt lat="39.856952559202909" lon="3.182032881304622">
        <ele>65.030000000000001</ele>
        <time>2014-09-02T10:22:09Z</time>
      </trkpt>
      <trkpt lat="39.857060601934791" lon="3.18207286298275">
        <ele>65.989999999999995</ele>
        <time>2014-09-02T10:22:16Z</time>
      </trkpt>
      <trkpt lat="39.857093207538128" lon="3.182098092511296">
        <ele>65.989999999999995</ele>
        <time>2014-09-02T10:22:18Z</time>
      </trkpt>
      <trkpt lat="39.85718322917819" lon="3.182169757783413">
        <ele>66.469999999999999</ele>
        <time>2014-09-02T10:22:28Z</time>
      </trkpt>
      <trkpt lat="39.857260258868337" lon="3.182233460247517">
        <ele>66.469999999999999</ele>
        <time>2014-09-02T10:22:37Z</time>
      </trkpt>
      <trkpt lat="39.857279369607568" lon="3.182233376428485">
        <ele>67.430000000000007</ele>
        <time>2014-09-02T10:22:38Z</time>
      </trkpt>
      <trkpt lat="39.857341898605227" lon="3.182263635098934">
        <ele>68.870000000000005</ele>
        <time>2014-09-02T10:22:47Z</time>
      </trkpt>
      <trkpt lat="39.857465699315071" lon="3.182283751666546">
        <ele>70.790000000000006</ele>
        <time>2014-09-02T10:22:56Z</time>
      </trkpt>
      <trkpt lat="39.857591595500708" lon="3.182288277894259">
        <ele>72.239999999999995</ele>
        <time>2014-09-02T10:23:05Z</time>
      </trkpt>
      <trkpt lat="39.857595534995198" lon="3.182286852970719">
        <ele>72.239999999999995</ele>
        <time>2014-09-02T10:23:06Z</time>
      </trkpt>
      <trkpt lat="39.857605760917068" lon="3.182281907647848">
        <ele>72.239999999999995</ele>
        <time>2014-09-02T10:23:07Z</time>
      </trkpt>
      <trkpt lat="39.857731992378831" lon="3.18230252712965">
        <ele>74.159999999999997</ele>
        <time>2014-09-02T10:23:19Z</time>
      </trkpt>
      <trkpt lat="39.85777641646564" lon="3.182308981195092">
        <ele>75.120000000000005</ele>
        <time>2014-09-02T10:23:23Z</time>
      </trkpt>
      <trkpt lat="39.857785636559129" lon="3.182308981195092">
        <ele>75.120000000000005</ele>
        <time>2014-09-02T10:23:24Z</time>
      </trkpt>
      <trkpt lat="39.857808435335755" lon="3.182310406118631">
        <ele>75.120000000000005</ele>
        <time>2014-09-02T10:23:25Z</time>
      </trkpt>
      <trkpt lat="39.857845902442932" lon="3.182303784415126">
        <ele>75.599999999999994</ele>
        <time>2014-09-02T10:23:29Z</time>
      </trkpt>
      <trkpt lat="39.85789711587131" lon="3.182298084720969">
        <ele>78</ele>
        <time>2014-09-02T10:23:34Z</time>
      </trkpt>
      <trkpt lat="39.857901893556118" lon="3.18229028955102">
        <ele>77.040000000000006</ele>
        <time>2014-09-02T10:23:35Z</time>
      </trkpt>
      <trkpt lat="39.857927709817886" lon="3.182278303429484">
        <ele>76.560000000000002</ele>
        <time>2014-09-02T10:23:38Z</time>
      </trkpt>
      <trkpt lat="39.857948161661625" lon="3.182272771373391">
        <ele>77.519999999999996</ele>
        <time>2014-09-02T10:23:40Z</time>
      </trkpt>
      <trkpt lat="39.857957130298018" lon="3.182269586250186">
        <ele>77.519999999999996</ele>
        <time>2014-09-02T10:23:41Z</time>
      </trkpt>
      <trkpt lat="39.858072130009532" lon="3.182236980646849">
        <ele>78</ele>
        <time>2014-09-02T10:23:51Z</time>
      </trkpt>
      <trkpt lat="39.858088223263621" lon="3.18224485963583">
        <ele>78.480000000000004</ele>
        <time>2014-09-02T10:23:52Z</time>
      </trkpt>
      <trkpt lat="39.858096521347761" lon="3.182285679504275">
        <ele>79.450000000000003</ele>
        <time>2014-09-02T10:23:57Z</time>
      </trkpt>
      <trkpt lat="39.858092749491334" lon="3.182303868234158">
        <ele>79.930000000000007</ele>
        <time>2014-09-02T10:23:58Z</time>
      </trkpt>
      <trkpt lat="39.85807791352272" lon="3.182323398068547">
        <ele>80.409999999999997</ele>
        <time>2014-09-02T10:24:03Z</time>
      </trkpt>
      <trkpt lat="39.858036004006863" lon="3.182353405281901">
        <ele>81.849999999999994</ele>
        <time>2014-09-02T10:24:09Z</time>
      </trkpt>
      <trkpt lat="39.857985461130738" lon="3.182415431365371">
        <ele>82.329999999999998</ele>
        <time>2014-09-02T10:24:18Z</time>
      </trkpt>
      <trkpt lat="39.857992166653275" lon="3.182427417486906">
        <ele>82.810000000000002</ele>
        <time>2014-09-02T10:24:20Z</time>
      </trkpt>
      <trkpt lat="39.858011193573475" lon="3.18248282186687">
        <ele>83.769999999999996</ele>
        <time>2014-09-02T10:24:24Z</time>
      </trkpt>
      <trkpt lat="39.858015216886997" lon="3.182496149092913">
        <ele>83.769999999999996</ele>
        <time>2014-09-02T10:24:25Z</time>
      </trkpt>
      <trkpt lat="39.858072549104691" lon="3.18262648768723">
        <ele>84.730000000000004</ele>
        <time>2014-09-02T10:24:34Z</time>
      </trkpt>
      <trkpt lat="39.858115715906024" lon="3.182643335312605">
        <ele>85.209999999999994</ele>
        <time>2014-09-02T10:24:42Z</time>
      </trkpt>
      <trkpt lat="39.858146980404854" lon="3.182645766064525">
        <ele>85.209999999999994</ele>
        <time>2014-09-02T10:24:45Z</time>
      </trkpt>
      <trkpt lat="39.858157457783818" lon="3.18264308385551">
        <ele>85.689999999999998</ele>
        <time>2014-09-02T10:24:46Z</time>
      </trkpt>
      <trkpt lat="39.858210766687989" lon="3.182663368061185">
        <ele>86.180000000000007</ele>
        <time>2014-09-02T10:24:50Z</time>
      </trkpt>
      <trkpt lat="39.858220238238573" lon="3.182664038613439">
        <ele>86.659999999999997</ele>
        <time>2014-09-02T10:24:51Z</time>
      </trkpt>
      <trkpt lat="39.85831294208765" lon="3.182765459641814">
        <ele>88.099999999999994</ele>
        <time>2014-09-02T10:25:02Z</time>
      </trkpt>
      <trkpt lat="39.858386116102338" lon="3.182868724688888">
        <ele>89.060000000000002</ele>
        <time>2014-09-02T10:25:13Z</time>
      </trkpt>
      <trkpt lat="39.858398353680968" lon="3.18288347683847">
        <ele>89.540000000000006</ele>
        <time>2014-09-02T10:25:14Z</time>
      </trkpt>
      <trkpt lat="39.858405059203506" lon="3.182983305305243">
        <ele>89.060000000000002</ele>
        <time>2014-09-02T10:25:15Z</time>
      </trkpt>
      <trkpt lat="39.858440011739731" lon="3.183008870109916">
        <ele>90.019999999999996</ele>
        <time>2014-09-02T10:25:18Z</time>
      </trkpt>
      <trkpt lat="39.858462307602167" lon="3.183037620037794">
        <ele>89.540000000000006</ele>
        <time>2014-09-02T10:25:20Z</time>
      </trkpt>
      <trkpt lat="39.858503295108676" lon="3.183138286694884">
        <ele>90.5</ele>
        <time>2014-09-02T10:25:28Z</time>
      </trkpt>
      <trkpt lat="39.85857923515141" lon="3.183176843449473">
        <ele>90.5</ele>
        <time>2014-09-02T10:25:36Z</time>
      </trkpt>
      <trkpt lat="39.858635142445564" lon="3.183223530650139">
        <ele>90.980000000000004</ele>
        <time>2014-09-02T10:25:42Z</time>
      </trkpt>
      <trkpt lat="39.858653163537383" lon="3.183245155960321">
        <ele>90.980000000000004</ele>
        <time>2014-09-02T10:25:46Z</time>
      </trkpt>
      <trkpt lat="39.858659952878952" lon="3.183253202587366">
        <ele>90.980000000000004</ele>
        <time>2014-09-02T10:25:47Z</time>
      </trkpt>
      <trkpt lat="39.858675040304661" lon="3.183300476521254">
        <ele>91.459999999999994</ele>
        <time>2014-09-02T10:25:52Z</time>
      </trkpt>
      <trkpt lat="39.858678476884961" lon="3.183316569775343">
        <ele>91.939999999999998</ele>
        <time>2014-09-02T10:25:53Z</time>
      </trkpt>
      <trkpt lat="39.858676129952073" lon="3.183338027447462">
        <ele>91.939999999999998</ele>
        <time>2014-09-02T10:25:54Z</time>
      </trkpt>
      <trkpt lat="39.858722146600485" lon="3.183435089886189">
        <ele>92.900000000000006</ele>
        <time>2014-09-02T10:26:03Z</time>
      </trkpt>
      <trkpt lat="39.858732540160418" lon="3.183448417112231">
        <ele>93.390000000000001</ele>
        <time>2014-09-02T10:26:04Z</time>
      </trkpt>
      <trkpt lat="39.858741257339716" lon="3.18348353728652">
        <ele>93.390000000000001</ele>
        <time>2014-09-02T10:26:07Z</time>
      </trkpt>
      <trkpt lat="39.858749723061919" lon="3.183496110141277">
        <ele>93.390000000000001</ele>
        <time>2014-09-02T10:26:08Z</time>
      </trkpt>
      <trkpt lat="39.858784675598145" lon="3.183549419045448">
        <ele>94.349999999999994</ele>
        <time>2014-09-02T10:26:13Z</time>
      </trkpt>
      <trkpt lat="39.858871093019843" lon="3.183663412928581">
        <ele>95.310000000000002</ele>
        <time>2014-09-02T10:26:24Z</time>
      </trkpt>
      <trkpt lat="39.858876960352063" lon="3.183676572516561">
        <ele>95.790000000000006</ele>
        <time>2014-09-02T10:26:25Z</time>
      </trkpt>
      <trkpt lat="39.858965221792459" lon="3.183789812028408">
        <ele>97.230000000000004</ele>
        <time>2014-09-02T10:26:35Z</time>
      </trkpt>
      <trkpt lat="39.858981482684612" lon="3.183806575834751">
        <ele>97.709999999999994</ele>
        <time>2014-09-02T10:26:38Z</time>
      </trkpt>
      <trkpt lat="39.858983159065247" lon="3.183820154517889">
        <ele>97.230000000000004</ele>
        <time>2014-09-02T10:26:39Z</time>
      </trkpt>
      <trkpt lat="39.858984751626849" lon="3.183867009356618">
        <ele>98.189999999999998</ele>
        <time>2014-09-02T10:26:43Z</time>
      </trkpt>
      <trkpt lat="39.85900092869997" lon="3.183915708214045">
        <ele>98.670000000000002</ele>
        <time>2014-09-02T10:26:47Z</time>
      </trkpt>
      <trkpt lat="39.859008388593793" lon="3.183927359059453">
        <ele>98.670000000000002</ele>
        <time>2014-09-02T10:26:48Z</time>
      </trkpt>
      <trkpt lat="39.859026158228517" lon="3.183986200019717">
        <ele>99.150000000000006</ele>
        <time>2014-09-02T10:26:53Z</time>
      </trkpt>
      <trkpt lat="39.859022218734026" lon="3.184006148949266">
        <ele>99.629999999999995</ele>
        <time>2014-09-02T10:26:54Z</time>
      </trkpt>
      <trkpt lat="39.859023811295629" lon="3.184024170041084">
        <ele>99.629999999999995</ele>
        <time>2014-09-02T10:26:55Z</time>
      </trkpt>
      <trkpt lat="39.859056333079934" lon="3.184101870283485">
        <ele>94.349999999999994</ele>
        <time>2014-09-02T10:27:01Z</time>
      </trkpt>
      <trkpt lat="39.859056333079934" lon="3.184103965759277">
        <ele>105.40000000000001</ele>
        <time>2014-09-02T10:27:02Z</time>
      </trkpt>
      <trkpt lat="39.859070079401135" lon="3.184114694595337">
        <ele>101.08</ele>
        <time>2014-09-02T10:27:03Z</time>
      </trkpt>
      <trkpt lat="39.859105870127678" lon="3.18417202681303">
        <ele>102.04000000000001</ele>
        <time>2014-09-02T10:27:08Z</time>
      </trkpt>
      <trkpt lat="39.859147947281599" lon="3.184244194999337">
        <ele>103</ele>
        <time>2014-09-02T10:27:17Z</time>
      </trkpt>
      <trkpt lat="39.859154401347041" lon="3.184254504740238">
        <ele>103</ele>
        <time>2014-09-02T10:27:18Z</time>
      </trkpt>
      <trkpt lat="39.859224557876587" lon="3.184277471154928">
        <ele>105.40000000000001</ele>
        <time>2014-09-02T10:27:26Z</time>
      </trkpt>
      <trkpt lat="39.859265461564064" lon="3.184318039566279">
        <ele>106.36</ele>
        <time>2014-09-02T10:27:31Z</time>
      </trkpt>
      <trkpt lat="39.859443493187428" lon="3.184405295178294">
        <ele>108.29000000000001</ele>
        <time>2014-09-02T10:27:43Z</time>
      </trkpt>
      <trkpt lat="39.859501915052533" lon="3.184473356232047">
        <ele>111.65000000000001</ele>
        <time>2014-09-02T10:27:57Z</time>
      </trkpt>
      <trkpt lat="39.859521109610796" lon="3.184479139745235">
        <ele>111.17</ele>
        <time>2014-09-02T10:27:58Z</time>
      </trkpt>
      <trkpt lat="39.859561510384083" lon="3.184538567438722">
        <ele>113.56999999999999</ele>
        <time>2014-09-02T10:28:06Z</time>
      </trkpt>
      <trkpt lat="39.859622782096267" lon="3.184571759775281">
        <ele>116.94</ele>
        <time>2014-09-02T10:28:15Z</time>
      </trkpt>
      <trkpt lat="39.859642311930656" lon="3.184575363993645">
        <ele>115.5</ele>
        <time>2014-09-02T10:28:17Z</time>
      </trkpt>
      <trkpt lat="39.859717497602105" lon="3.18470461294055">
        <ele>117.42</ele>
        <time>2014-09-02T10:28:32Z</time>
      </trkpt>
      <trkpt lat="39.859722526744008" lon="3.184723388403654">
        <ele>117.42</ele>
        <time>2014-09-02T10:28:33Z</time>
      </trkpt>
      <trkpt lat="39.859733171761036" lon="3.184735961258411">
        <ele>117.90000000000001</ele>
        <time>2014-09-02T10:28:34Z</time>
      </trkpt>
      <trkpt lat="39.859751863405108" lon="3.184763789176941">
        <ele>118.38</ele>
        <time>2014-09-02T10:28:48Z</time>
      </trkpt>
      <trkpt lat="39.859673995524645" lon="3.184776864945889">
        <ele>118.38</ele>
        <time>2014-09-02T10:29:03Z</time>
      </trkpt>
      <trkpt lat="39.859660752117634" lon="3.184752054512501">
        <ele>117.90000000000001</ele>
        <time>2014-09-02T10:29:32Z</time>
      </trkpt>
      <trkpt lat="39.859664272516966" lon="3.18475104868412">
        <ele>117.42</ele>
        <time>2014-09-02T10:29:57Z</time>
      </trkpt>
      <trkpt lat="39.859666619449854" lon="3.184758760035038">
        <ele>117.90000000000001</ele>
        <time>2014-09-02T10:30:23Z</time>
      </trkpt>
      <trkpt lat="39.859683299437165" lon="3.184760101139545">
        <ele>118.38</ele>
        <time>2014-09-02T10:30:36Z</time>
      </trkpt>
      <trkpt lat="39.859683299437165" lon="3.184760101139545">
        <ele>117.90000000000001</ele>
        <time>2014-09-02T10:31:02Z</time>
      </trkpt>
      <trkpt lat="39.859687071293592" lon="3.184748785570264">
        <ele>118.86</ele>
        <time>2014-09-02T10:31:22Z</time>
      </trkpt>
      <trkpt lat="39.859689585864544" lon="3.184743672609329">
        <ele>117.42</ele>
        <time>2014-09-02T10:31:42Z</time>
      </trkpt>
      <trkpt lat="39.859693273901939" lon="3.184735793620348">
        <ele>117.90000000000001</ele>
        <time>2014-09-02T10:32:02Z</time>
      </trkpt>
      <trkpt lat="39.85977097414434" lon="3.184671336784959">
        <ele>118.38</ele>
        <time>2014-09-02T10:32:35Z</time>
      </trkpt>
      <trkpt lat="39.859791677445173" lon="3.184687178581953">
        <ele>118.38</ele>
        <time>2014-09-02T10:32:56Z</time>
      </trkpt>
      <trkpt lat="39.859787737950683" lon="3.184732692316175">
        <ele>118.86</ele>
        <time>2014-09-02T10:33:10Z</time>
      </trkpt>
      <trkpt lat="39.85980374738574" lon="3.184727663174272">
        <ele>118.86</ele>
        <time>2014-09-02T10:33:14Z</time>
      </trkpt>
      <trkpt lat="39.859815817326307" lon="3.184735039249063">
        <ele>119.81999999999999</ele>
        <time>2014-09-02T10:33:15Z</time>
      </trkpt>
      <trkpt lat="39.859832832589746" lon="3.184743002057076">
        <ele>119.34</ele>
        <time>2014-09-02T10:33:17Z</time>
      </trkpt>
      <trkpt lat="39.859869880601764" lon="3.184681814163923">
        <ele>120.3</ele>
        <time>2014-09-02T10:33:24Z</time>
      </trkpt>
      <trkpt lat="39.859889075160027" lon="3.184653734788299">
        <ele>120.3</ele>
        <time>2014-09-02T10:33:27Z</time>
      </trkpt>
      <trkpt lat="39.859911622479558" lon="3.184605538845062">
        <ele>122.22</ele>
        <time>2014-09-02T10:33:34Z</time>
      </trkpt>
      <trkpt lat="39.859921261668205" lon="3.184601347893477">
        <ele>122.70999999999999</ele>
        <time>2014-09-02T10:33:36Z</time>
      </trkpt>
      <trkpt lat="39.859948502853513" lon="3.184572011232376">
        <ele>123.19</ele>
        <time>2014-09-02T10:33:44Z</time>
      </trkpt>
      <trkpt lat="39.85996107570827" lon="3.184504369273782">
        <ele>125.11</ele>
        <time>2014-09-02T10:33:54Z</time>
      </trkpt>
      <trkpt lat="39.859962165355682" lon="3.184469752013683">
        <ele>126.06999999999999</ele>
        <time>2014-09-02T10:33:59Z</time>
      </trkpt>
      <trkpt lat="39.860001727938652" lon="3.184434212744236">
        <ele>126.55</ele>
        <time>2014-09-02T10:34:03Z</time>
      </trkpt>
      <trkpt lat="39.860025364905596" lon="3.184428429231048">
        <ele>127.98999999999999</ele>
        <time>2014-09-02T10:34:06Z</time>
      </trkpt>
      <trkpt lat="39.86002896912396" lon="3.184426501393318">
        <ele>127.51000000000001</ele>
        <time>2014-09-02T10:34:20Z</time>
      </trkpt>
      <trkpt lat="39.860047660768032" lon="3.184426501393318">
        <ele>134.72</ele>
        <time>2014-09-02T10:34:22Z</time>
      </trkpt>
      <trkpt lat="39.860054282471538" lon="3.184430273249745">
        <ele>127.03</ele>
        <time>2014-09-02T10:34:23Z</time>
      </trkpt>
      <trkpt lat="39.860070124268532" lon="3.18444368429482">
        <ele>127.51000000000001</ele>
        <time>2014-09-02T10:34:25Z</time>
      </trkpt>
      <trkpt lat="39.86007590778172" lon="3.184448545798659">
        <ele>130.88</ele>
        <time>2014-09-02T10:34:26Z</time>
      </trkpt>
      <trkpt lat="39.860082278028131" lon="3.184452233836055">
        <ele>130.40000000000001</ele>
        <time>2014-09-02T10:34:27Z</time>
      </trkpt>
      <trkpt lat="39.860088312998414" lon="3.184453658759594">
        <ele>126.06999999999999</ele>
        <time>2014-09-02T10:34:28Z</time>
      </trkpt>
      <trkpt lat="39.860097700729966" lon="3.184457765892148">
        <ele>127.51000000000001</ele>
        <time>2014-09-02T10:34:29Z</time>
      </trkpt>
      <trkpt lat="39.860104322433472" lon="3.184464890509844">
        <ele>130.88</ele>
        <time>2014-09-02T10:34:30Z</time>
      </trkpt>
      <trkpt lat="39.860109351575375" lon="3.184472769498825">
        <ele>132.80000000000001</ele>
        <time>2014-09-02T10:34:31Z</time>
      </trkpt>
      <trkpt lat="39.860128378495574" lon="3.184477547183633">
        <ele>125.59</ele>
        <time>2014-09-02T10:34:33Z</time>
      </trkpt>
      <trkpt lat="39.860134245827794" lon="3.184478050097823">
        <ele>131.84</ele>
        <time>2014-09-02T10:34:34Z</time>
      </trkpt>
      <trkpt lat="39.860138017684221" lon="3.184477966278791">
        <ele>130.88</ele>
        <time>2014-09-02T10:34:35Z</time>
      </trkpt>
      <trkpt lat="39.860148914158344" lon="3.184460531920195">
        <ele>130.88</ele>
        <time>2014-09-02T10:34:38Z</time>
      </trkpt>
      <trkpt lat="39.860146986320615" lon="3.184398841112852">
        <ele>131.84</ele>
        <time>2014-09-02T10:34:42Z</time>
      </trkpt>
      <trkpt lat="39.860139023512602" lon="3.184356261044741">
        <ele>132.80000000000001</ele>
        <time>2014-09-02T10:34:46Z</time>
      </trkpt>
      <trkpt lat="39.860136341303587" lon="3.184300856664777">
        <ele>133.75999999999999</ele>
        <time>2014-09-02T10:34:54Z</time>
      </trkpt>
      <trkpt lat="39.860160313546658" lon="3.184336563572288">
        <ele>134.24000000000001</ele>
        <time>2014-09-02T10:34:58Z</time>
      </trkpt>
      <trkpt lat="39.860214795917273" lon="3.18436891771853">
        <ele>134.72</ele>
        <time>2014-09-02T10:35:03Z</time>
      </trkpt>
      <trkpt lat="39.860292496159673" lon="3.184390878304839">
        <ele>136.16</ele>
        <time>2014-09-02T10:35:14Z</time>
      </trkpt>
      <trkpt lat="39.860301548615098" lon="3.1843928899616">
        <ele>137.13</ele>
        <time>2014-09-02T10:35:16Z</time>
      </trkpt>
      <trkpt lat="39.860348151996732" lon="3.184320889413357">
        <ele>139.53</ele>
        <time>2014-09-02T10:35:27Z</time>
      </trkpt>
      <trkpt lat="39.860340524464846" lon="3.184256600216031">
        <ele>140.49000000000001</ele>
        <time>2014-09-02T10:35:34Z</time>
      </trkpt>
      <trkpt lat="39.860320156440139" lon="3.184178397059441">
        <ele>140.97</ele>
        <time>2014-09-02T10:35:40Z</time>
      </trkpt>
      <trkpt lat="39.860309092327952" lon="3.184140427038074">
        <ele>142.41</ele>
        <time>2014-09-02T10:35:47Z</time>
      </trkpt>
      <trkpt lat="39.860280007123947" lon="3.184055769816041">
        <ele>143.84999999999999</ele>
        <time>2014-09-02T10:35:57Z</time>
      </trkpt>
      <trkpt lat="39.860322503373027" lon="3.184036407619715">
        <ele>145.78</ele>
        <time>2014-09-02T10:36:09Z</time>
      </trkpt>
      <trkpt lat="39.860383858904243" lon="3.184048309922218">
        <ele>147.22</ele>
        <time>2014-09-02T10:36:21Z</time>
      </trkpt>
      <trkpt lat="39.860375560820103" lon="3.184021655470133">
        <ele>147.69999999999999</ele>
        <time>2014-09-02T10:36:29Z</time>
      </trkpt>
      <trkpt lat="39.860316216945648" lon="3.183914534747601">
        <ele>148.66</ele>
        <time>2014-09-02T10:36:39Z</time>
      </trkpt>
      <trkpt lat="39.860256537795067" lon="3.183801714330912">
        <ele>151.53999999999999</ele>
        <time>2014-09-02T10:36:52Z</time>
      </trkpt>
      <trkpt lat="39.860283946618438" lon="3.183832559734583">
        <ele>151.53999999999999</ele>
        <time>2014-09-02T10:37:00Z</time>
      </trkpt>
      <trkpt lat="39.860309343785048" lon="3.183857202529907">
        <ele>152.50999999999999</ele>
        <time>2014-09-02T10:37:04Z</time>
      </trkpt>
      <trkpt lat="39.860393246635795" lon="3.183947810903192">
        <ele>153.94999999999999</ele>
        <time>2014-09-02T10:37:16Z</time>
      </trkpt>
      <trkpt lat="39.86041696742177" lon="3.183961808681488">
        <ele>153.94999999999999</ele>
        <time>2014-09-02T10:37:19Z</time>
      </trkpt>
      <trkpt lat="39.860467845574021" lon="3.18398586474359">
        <ele>154.43000000000001</ele>
        <time>2014-09-02T10:37:24Z</time>
      </trkpt>
      <trkpt lat="39.86058603040874" lon="3.184058200567961">
        <ele>155.87</ele>
        <time>2014-09-02T10:37:36Z</time>
      </trkpt>
      <trkpt lat="39.860702119767666" lon="3.18410606123507">
        <ele>158.27000000000001</ele>
        <time>2014-09-02T10:37:50Z</time>
      </trkpt>
      <trkpt lat="39.860811587423086" lon="3.18416859023273">
        <ele>160.19999999999999</ele>
        <time>2014-09-02T10:38:02Z</time>
      </trkpt>
      <trkpt lat="39.860843271017075" lon="3.184189544990659">
        <ele>161.63999999999999</ele>
        <time>2014-09-02T10:38:06Z</time>
      </trkpt>
      <trkpt lat="39.860859531909227" lon="3.184138918295503">
        <ele>161.63999999999999</ele>
        <time>2014-09-02T10:38:10Z</time>
      </trkpt>
      <trkpt lat="39.860857771709561" lon="3.184075467288494">
        <ele>162.59999999999999</ele>
        <time>2014-09-02T10:38:14Z</time>
      </trkpt>
      <trkpt lat="39.86086062155664" lon="3.183961724862456">
        <ele>163.56</ele>
        <time>2014-09-02T10:38:23Z</time>
      </trkpt>
      <trkpt lat="39.860836733132601" lon="3.183907661587">
        <ele>164.52000000000001</ele>
        <time>2014-09-02T10:38:27Z</time>
      </trkpt>
      <trkpt lat="39.860836397856474" lon="3.183855442330241">
        <ele>165</ele>
        <time>2014-09-02T10:38:30Z</time>
      </trkpt>
      <trkpt lat="39.860750650987029" lon="3.183717224746943">
        <ele>166.93000000000001</ele>
        <time>2014-09-02T10:38:43Z</time>
      </trkpt>
      <trkpt lat="39.860734473913908" lon="3.183702053502202">
        <ele>166.93000000000001</ele>
        <time>2014-09-02T10:38:45Z</time>
      </trkpt>
      <trkpt lat="39.86071988940239" lon="3.183670872822404">
        <ele>168.37</ele>
        <time>2014-09-02T10:38:51Z</time>
      </trkpt>
      <trkpt lat="39.860810749232769" lon="3.183740191161633">
        <ele>169.33000000000001</ele>
        <time>2014-09-02T10:39:04Z</time>
      </trkpt>
      <trkpt lat="39.860867327079177" lon="3.183765839785337">
        <ele>170.28999999999999</ele>
        <time>2014-09-02T10:39:08Z</time>
      </trkpt>
      <trkpt lat="39.860935304313898" lon="3.183797858655453">
        <ele>171.72999999999999</ele>
        <time>2014-09-02T10:39:18Z</time>
      </trkpt>
      <trkpt lat="39.860940501093864" lon="3.18380992859602">
        <ele>171.72999999999999</ele>
        <time>2014-09-02T10:39:21Z</time>
      </trkpt>
      <trkpt lat="39.860984422266483" lon="3.18382509984076">
        <ele>172.21000000000001</ele>
        <time>2014-09-02T10:39:25Z</time>
      </trkpt>
      <trkpt lat="39.861043011769652" lon="3.183815209195018">
        <ele>173.66</ele>
        <time>2014-09-02T10:39:36Z</time>
      </trkpt>
      <trkpt lat="39.861102942377329" lon="3.183824261650443">
        <ele>164.52000000000001</ele>
        <time>2014-09-02T10:39:42Z</time>
      </trkpt>
      <trkpt lat="39.861104367300868" lon="3.183821747079492">
        <ele>177.97999999999999</ele>
        <time>2014-09-02T10:39:43Z</time>
      </trkpt>
      <trkpt lat="39.861104367300868" lon="3.183821747079492">
        <ele>174.62</ele>
        <time>2014-09-02T10:39:44Z</time>
      </trkpt>
      <trkpt lat="39.861103277653456" lon="3.183824261650443">
        <ele>173.16999999999999</ele>
        <time>2014-09-02T10:39:46Z</time>
      </trkpt>
      <trkpt lat="39.861095733940601" lon="3.183814790099859">
        <ele>173.66</ele>
        <time>2014-09-02T10:40:08Z</time>
      </trkpt>
      <trkpt lat="39.861074527725577" lon="3.183819819241762">
        <ele>171.72999999999999</ele>
        <time>2014-09-02T10:40:10Z</time>
      </trkpt>
      <trkpt lat="39.861063463613391" lon="3.183824261650443">
        <ele>178.46000000000001</ele>
        <time>2014-09-02T10:40:12Z</time>
      </trkpt>
      <trkpt lat="39.86106438562274" lon="3.18381973542273">
        <ele>174.62</ele>
        <time>2014-09-02T10:40:13Z</time>
      </trkpt>
      <trkpt lat="39.86106438562274" lon="3.18381973542273">
        <ele>171.25</ele>
        <time>2014-09-02T10:40:14Z</time>
      </trkpt>
      <trkpt lat="39.861060949042439" lon="3.183812526986003">
        <ele>174.62</ele>
        <time>2014-09-02T10:40:15Z</time>
      </trkpt>
      <trkpt lat="39.861058183014393" lon="3.18379869684577">
        <ele>172.69</ele>
        <time>2014-09-02T10:40:17Z</time>
      </trkpt>
      <trkpt lat="39.861043179407716" lon="3.183782855048776">
        <ele>175.58000000000001</ele>
        <time>2014-09-02T10:40:19Z</time>
      </trkpt>
      <trkpt lat="39.861043179407716" lon="3.183782855048776">
        <ele>174.62</ele>
        <time>2014-09-02T10:40:20Z</time>
      </trkpt>
      <trkpt lat="39.861028930172324" lon="3.183746058493853">
        <ele>175.09999999999999</ele>
        <time>2014-09-02T10:40:25Z</time>
      </trkpt>
      <trkpt lat="39.860982242971659" lon="3.183676237240434">
        <ele>176.06</ele>
        <time>2014-09-02T10:40:32Z</time>
      </trkpt>
      <trkpt lat="39.860948715358973" lon="3.183583449572325">
        <ele>177.02000000000001</ele>
        <time>2014-09-02T10:40:40Z</time>
      </trkpt>
      <trkpt lat="39.860907979309559" lon="3.183526787906885">
        <ele>177.5</ele>
        <time>2014-09-02T10:40:46Z</time>
      </trkpt>
      <trkpt lat="39.860893646255136" lon="3.183495188131928">
        <ele>177.97999999999999</ele>
        <time>2014-09-02T10:40:48Z</time>
      </trkpt>
      <trkpt lat="39.860883001238108" lon="3.18342830054462">
        <ele>178.94</ele>
        <time>2014-09-02T10:40:55Z</time>
      </trkpt>
      <trkpt lat="39.860852658748627" lon="3.183416314423084">
        <ele>180.38</ele>
        <time>2014-09-02T10:41:01Z</time>
      </trkpt>
      <trkpt lat="39.860813096165657" lon="3.183370884507895">
        <ele>180.87</ele>
        <time>2014-09-02T10:41:05Z</time>
      </trkpt>
      <trkpt lat="39.860764900222421" lon="3.183290418237448">
        <ele>181.83000000000001</ele>
        <time>2014-09-02T10:41:15Z</time>
      </trkpt>
      <trkpt lat="39.860763056203723" lon="3.183281030505896">
        <ele>182.78999999999999</ele>
        <time>2014-09-02T10:41:17Z</time>
      </trkpt>
      <trkpt lat="39.860722152516246" lon="3.183263931423426">
        <ele>183.75</ele>
        <time>2014-09-02T10:41:25Z</time>
      </trkpt>
      <trkpt lat="39.860716955736279" lon="3.183235265314579">
        <ele>184.22999999999999</ele>
        <time>2014-09-02T10:41:28Z</time>
      </trkpt>
      <trkpt lat="39.860716955736279" lon="3.183235265314579">
        <ele>183.27000000000001</ele>
        <time>2014-09-02T10:41:41Z</time>
      </trkpt>
      <trkpt lat="39.860622156411409" lon="3.183109033852816">
        <ele>181.34999999999999</ele>
        <time>2014-09-02T10:41:51Z</time>
      </trkpt>
      <trkpt lat="39.860612936317921" lon="3.183050444349647">
        <ele>184.22999999999999</ele>
        <time>2014-09-02T10:41:54Z</time>
      </trkpt>
      <trkpt lat="39.860595837235451" lon="3.182954974472523">
        <ele>183.75</ele>
        <time>2014-09-02T10:42:04Z</time>
      </trkpt>
      <trkpt lat="39.860581252723932" lon="3.182870065793395">
        <ele>181.83000000000001</ele>
        <time>2014-09-02T10:42:16Z</time>
      </trkpt>
      <trkpt lat="39.860579911619425" lon="3.182858498767018">
        <ele>185.66999999999999</ele>
        <time>2014-09-02T10:42:17Z</time>
      </trkpt>
      <trkpt lat="39.860560549423099" lon="3.182784486562014">
        <ele>185.66999999999999</ele>
        <time>2014-09-02T10:42:24Z</time>
      </trkpt>
      <trkpt lat="39.86054889857769" lon="3.182762023061514">
        <ele>182.78999999999999</ele>
        <time>2014-09-02T10:42:26Z</time>
      </trkpt>
      <trkpt lat="39.860549317672849" lon="3.182726316154003">
        <ele>187.11000000000001</ele>
        <time>2014-09-02T10:42:29Z</time>
      </trkpt>
      <trkpt lat="39.860588712617755" lon="3.182570077478886">
        <ele>188.08000000000001</ele>
        <time>2014-09-02T10:42:41Z</time>
      </trkpt>
      <trkpt lat="39.860581085085869" lon="3.182465890422463">
        <ele>189.03999999999999</ele>
        <time>2014-09-02T10:42:49Z</time>
      </trkpt>
      <trkpt lat="39.860598770901561" lon="3.182527916505933">
        <ele>191.44</ele>
        <time>2014-09-02T10:42:57Z</time>
      </trkpt>
      <trkpt lat="39.860625844448805" lon="3.182587344199419">
        <ele>191.44</ele>
        <time>2014-09-02T10:43:07Z</time>
      </trkpt>
      <trkpt lat="39.860625844448805" lon="3.182587344199419">
        <ele>191.44</ele>
        <time>2014-09-02T10:43:10Z</time>
      </trkpt>
      <trkpt lat="39.860639926046133" lon="3.182649035006762">
        <ele>192.88</ele>
        <time>2014-09-02T10:43:15Z</time>
      </trkpt>
      <trkpt lat="39.860646212473512" lon="3.182700835168362">
        <ele>192.40000000000001</ele>
        <time>2014-09-02T10:43:18Z</time>
      </trkpt>
      <trkpt lat="39.860645793378353" lon="3.182737044990063">
        <ele>192.88</ele>
        <time>2014-09-02T10:43:21Z</time>
      </trkpt>
      <trkpt lat="39.860648224130273" lon="3.182787587866187">
        <ele>193.36000000000001</ele>
        <time>2014-09-02T10:43:26Z</time>
      </trkpt>
      <trkpt lat="39.860692145302892" lon="3.182883393019438">
        <ele>195.77000000000001</ele>
        <time>2014-09-02T10:43:35Z</time>
      </trkpt>
      <trkpt lat="39.860725170001388" lon="3.182922033593059">
        <ele>196.72999999999999</ele>
        <time>2014-09-02T10:43:39Z</time>
      </trkpt>
      <trkpt lat="39.860755344852805" lon="3.182965451851487">
        <ele>197.21000000000001</ele>
        <time>2014-09-02T10:43:43Z</time>
      </trkpt>
      <trkpt lat="39.860795326530933" lon="3.183006439357996">
        <ele>197.69</ele>
        <time>2014-09-02T10:43:49Z</time>
      </trkpt>
      <trkpt lat="39.86081276088953" lon="3.183006187900901">
        <ele>199.13</ele>
        <time>2014-09-02T10:44:02Z</time>
      </trkpt>
      <trkpt lat="39.860813012346625" lon="3.183015659451485">
        <ele>199.13</ele>
        <time>2014-09-02T10:44:11Z</time>
      </trkpt>
      <trkpt lat="39.860813012346625" lon="3.183015659451485">
        <ele>197.21000000000001</ele>
        <time>2014-09-02T10:44:25Z</time>
      </trkpt>
      <trkpt lat="39.860848467797041" lon="3.183041894808412">
        <ele>204.90000000000001</ele>
        <time>2014-09-02T10:44:28Z</time>
      </trkpt>
      <trkpt lat="39.860877217724919" lon="3.183051869273186">
        <ele>201.05000000000001</ele>
        <time>2014-09-02T10:44:31Z</time>
      </trkpt>
      <trkpt lat="39.860891299322248" lon="3.183074332773686">
        <ele>193.36000000000001</ele>
        <time>2014-09-02T10:44:33Z</time>
      </trkpt>
      <trkpt lat="39.860898004844785" lon="3.183085732161999">
        <ele>202.00999999999999</ele>
        <time>2014-09-02T10:44:34Z</time>
      </trkpt>
      <trkpt lat="39.860902698710561" lon="3.183095119893551">
        <ele>206.34</ele>
        <time>2014-09-02T10:44:35Z</time>
      </trkpt>
      <trkpt lat="39.860912840813398" lon="3.183102076873183">
        <ele>197.21000000000001</ele>
        <time>2014-09-02T10:44:36Z</time>
      </trkpt>
      <trkpt lat="39.860925748944283" lon="3.183113476261497">
        <ele>199.13</ele>
        <time>2014-09-02T10:44:37Z</time>
      </trkpt>
      <trkpt lat="39.860940333455801" lon="3.183136442676187">
        <ele>206.81999999999999</ele>
        <time>2014-09-02T10:44:39Z</time>
      </trkpt>
      <trkpt lat="39.86094762571156" lon="3.183143064379692">
        <ele>203.46000000000001</ele>
        <time>2014-09-02T10:44:40Z</time>
      </trkpt>
      <trkpt lat="39.860951565206051" lon="3.183152033016086">
        <ele>195.77000000000001</ele>
        <time>2014-09-02T10:44:41Z</time>
      </trkpt>
      <trkpt lat="39.860965311527252" lon="3.183163097128272">
        <ele>201.05000000000001</ele>
        <time>2014-09-02T10:44:43Z</time>
      </trkpt>
      <trkpt lat="39.860976208001375" lon="3.18316544406116">
        <ele>208.25999999999999</ele>
        <time>2014-09-02T10:44:44Z</time>
      </trkpt>
      <trkpt lat="39.861001018434763" lon="3.183175334706903">
        <ele>191.91999999999999</ele>
        <time>2014-09-02T10:44:46Z</time>
      </trkpt>
      <trkpt lat="39.861005796119571" lon="3.183179944753647">
        <ele>200.56999999999999</ele>
        <time>2014-09-02T10:44:47Z</time>
      </trkpt>
      <trkpt lat="39.861012753099203" lon="3.18318304605782">
        <ele>209.22</ele>
        <time>2014-09-02T10:44:48Z</time>
      </trkpt>
      <trkpt lat="39.861017111688852" lon="3.183181369677186">
        <ele>192.40000000000001</ele>
        <time>2014-09-02T10:44:49Z</time>
      </trkpt>
      <trkpt lat="39.861034797504544" lon="3.183183381333947">
        <ele>202.00999999999999</ele>
        <time>2014-09-02T10:44:51Z</time>
      </trkpt>
      <trkpt lat="39.861050639301538" lon="3.183187991380692">
        <ele>202.97999999999999</ele>
        <time>2014-09-02T10:44:53Z</time>
      </trkpt>
      <trkpt lat="39.861062038689852" lon="3.183192266151309">
        <ele>194.31999999999999</ele>
        <time>2014-09-02T10:44:54Z</time>
      </trkpt>
      <trkpt lat="39.861070169135928" lon="3.183191092684865">
        <ele>202.97999999999999</ele>
        <time>2014-09-02T10:44:55Z</time>
      </trkpt>
      <trkpt lat="39.861073940992355" lon="3.183191260322928">
        <ele>207.30000000000001</ele>
        <time>2014-09-02T10:44:56Z</time>
      </trkpt>
      <trkpt lat="39.861077293753624" lon="3.183186817914248">
        <ele>204.41999999999999</ele>
        <time>2014-09-02T10:44:57Z</time>
      </trkpt>
      <trkpt lat="39.861077293753624" lon="3.183186817914248">
        <ele>202.97999999999999</ele>
        <time>2014-09-02T10:44:59Z</time>
      </trkpt>
      <trkpt lat="39.861074443906546" lon="3.183185392990708">
        <ele>191.91999999999999</ele>
        <time>2014-09-02T10:45:06Z</time>
      </trkpt>
      <trkpt lat="39.861074611544609" lon="3.183185392990708">
        <ele>206.81999999999999</ele>
        <time>2014-09-02T10:45:07Z</time>
      </trkpt>
      <trkpt lat="39.861090620979667" lon="3.183190170675516">
        <ele>200.56999999999999</ele>
        <time>2014-09-02T10:45:09Z</time>
      </trkpt>
      <trkpt lat="39.8611044511199" lon="3.18319327197969">
        <ele>204.41999999999999</ele>
        <time>2014-09-02T10:45:11Z</time>
      </trkpt>
      <trkpt lat="39.861122472211719" lon="3.183201570063829">
        <ele>200.09</ele>
        <time>2014-09-02T10:45:13Z</time>
      </trkpt>
      <trkpt lat="39.861132446676493" lon="3.18320207297802">
        <ele>200.09</ele>
        <time>2014-09-02T10:45:14Z</time>
      </trkpt>
      <trkpt lat="39.861132446676493" lon="3.18320207297802">
        <ele>210.19</ele>
        <time>2014-09-02T10:45:15Z</time>
      </trkpt>
      <trkpt lat="39.861135967075825" lon="3.18320257589221">
        <ele>204.41999999999999</ele>
        <time>2014-09-02T10:45:16Z</time>
      </trkpt>
      <trkpt lat="39.861154826357961" lon="3.183185644447804">
        <ele>200.56999999999999</ele>
        <time>2014-09-02T10:45:28Z</time>
      </trkpt>
      <trkpt lat="39.861154826357961" lon="3.183185644447804">
        <ele>204.41999999999999</ele>
        <time>2014-09-02T10:45:29Z</time>
      </trkpt>
      <trkpt lat="39.861154826357961" lon="3.183185644447804">
        <ele>203.94</ele>
        <time>2014-09-02T10:45:45Z</time>
      </trkpt>
      <trkpt lat="39.861154910176992" lon="3.18319377489388">
        <ele>202.00999999999999</ele>
        <time>2014-09-02T10:46:06Z</time>
      </trkpt>
      <trkpt lat="39.861153485253453" lon="3.183195954188705">
        <ele>208.74000000000001</ele>
        <time>2014-09-02T10:46:08Z</time>
      </trkpt>
      <trkpt lat="39.861150132492185" lon="3.18319377489388">
        <ele>201.05000000000001</ele>
        <time>2014-09-02T10:46:09Z</time>
      </trkpt>
      <trkpt lat="39.861145690083504" lon="3.183184554800391">
        <ele>209.22</ele>
        <time>2014-09-02T10:46:11Z</time>
      </trkpt>
      <trkpt lat="39.861143762245774" lon="3.183183381333947">
        <ele>209.22</ele>
        <time>2014-09-02T10:46:12Z</time>
      </trkpt>
      <trkpt lat="39.861141247674823" lon="3.183179190382361">
        <ele>196.25</ele>
        <time>2014-09-02T10:46:13Z</time>
      </trkpt>
      <trkpt lat="39.861138314008713" lon="3.183170892298222">
        <ele>206.34</ele>
        <time>2014-09-02T10:46:14Z</time>
      </trkpt>
      <trkpt lat="39.861128339543939" lon="3.183152033016086">
        <ele>202.00999999999999</ele>
        <time>2014-09-02T10:46:16Z</time>
      </trkpt>
      <trkpt lat="39.861131859943271" lon="3.183139711618424">
        <ele>206.81999999999999</ele>
        <time>2014-09-02T10:46:17Z</time>
      </trkpt>
      <trkpt lat="39.861067403107882" lon="3.183036278933287">
        <ele>207.78</ele>
        <time>2014-09-02T10:46:29Z</time>
      </trkpt>
      <trkpt lat="39.86104535870254" lon="3.183004846796393">
        <ele>209.22</ele>
        <time>2014-09-02T10:46:33Z</time>
      </trkpt>
      <trkpt lat="39.861029600724578" lon="3.182955142110586">
        <ele>210.19</ele>
        <time>2014-09-02T10:46:39Z</time>
      </trkpt>
      <trkpt lat="39.8609783872962" lon="3.182931756600738">
        <ele>209.22</ele>
        <time>2014-09-02T10:46:44Z</time>
      </trkpt>
      <trkpt lat="39.860977046191692" lon="3.182878699153662">
        <ele>209.69999999999999</ele>
        <time>2014-09-02T10:46:48Z</time>
      </trkpt>
      <trkpt lat="39.860964808613062" lon="3.182790772989392">
        <ele>209.22</ele>
        <time>2014-09-02T10:46:54Z</time>
      </trkpt>
      <trkpt lat="39.860970424488187" lon="3.182758670300245">
        <ele>209.69999999999999</ele>
        <time>2014-09-02T10:46:56Z</time>
      </trkpt>
      <trkpt lat="39.860968496650457" lon="3.182731848210096">
        <ele>209.69999999999999</ele>
        <time>2014-09-02T10:46:58Z</time>
      </trkpt>
      <trkpt lat="39.860960114747286" lon="3.18269731476903">
        <ele>209.22</ele>
        <time>2014-09-02T10:47:03Z</time>
      </trkpt>
      <trkpt lat="39.860957264900208" lon="3.182667810469866">
        <ele>209.69999999999999</ele>
        <time>2014-09-02T10:47:05Z</time>
      </trkpt>
      <trkpt lat="39.860936896875501" lon="3.182530933991075">
        <ele>208.74000000000001</ele>
        <time>2014-09-02T10:47:13Z</time>
      </trkpt>
      <trkpt lat="39.860906386747956" lon="3.182451389729977">
        <ele>207.30000000000001</ele>
        <time>2014-09-02T10:47:17Z</time>
      </trkpt>
      <trkpt lat="39.860916864126921" lon="3.182458765804768">
        <ele>206.81999999999999</ele>
        <time>2014-09-02T10:47:20Z</time>
      </trkpt>
      <trkpt lat="39.860898004844785" lon="3.182399170473218">
        <ele>205.86000000000001</ele>
        <time>2014-09-02T10:47:26Z</time>
      </trkpt>
      <trkpt lat="39.860878810286522" lon="3.182334126904607">
        <ele>206.81999999999999</ele>
        <time>2014-09-02T10:47:30Z</time>
      </trkpt>
      <trkpt lat="39.860852994024754" lon="3.182290121912956">
        <ele>206.81999999999999</ele>
        <time>2014-09-02T10:47:33Z</time>
      </trkpt>
      <trkpt lat="39.860813515260816" lon="3.182208817452192">
        <ele>207.30000000000001</ele>
        <time>2014-09-02T10:47:39Z</time>
      </trkpt>
      <trkpt lat="39.860820220783353" lon="3.182162214070559">
        <ele>207.30000000000001</ele>
        <time>2014-09-02T10:47:42Z</time>
      </trkpt>
      <trkpt lat="39.860811335965991" lon="3.182117119431496">
        <ele>208.25999999999999</ele>
        <time>2014-09-02T10:47:46Z</time>
      </trkpt>
      <trkpt lat="39.860835811123252" lon="3.182035982608795">
        <ele>210.19</ele>
        <time>2014-09-02T10:47:56Z</time>
      </trkpt>
      <trkpt lat="39.860849725082517" lon="3.182006981223822">
        <ele>212.59</ele>
        <time>2014-09-02T10:48:07Z</time>
      </trkpt>
      <trkpt lat="39.860858526080847" lon="3.182028606534004">
        <ele>213.55000000000001</ele>
        <time>2014-09-02T10:48:09Z</time>
      </trkpt>
      <trkpt lat="39.860887108370662" lon="3.182094153016806">
        <ele>214.03</ele>
        <time>2014-09-02T10:48:20Z</time>
      </trkpt>
      <trkpt lat="39.860890544950962" lon="3.182080239057541">
        <ele>214.50999999999999</ele>
        <time>2014-09-02T10:48:22Z</time>
      </trkpt>
      <trkpt lat="39.860870596021414" lon="3.182012848556042">
        <ele>214.99000000000001</ele>
        <time>2014-09-02T10:48:27Z</time>
      </trkpt>
      <trkpt lat="39.860860034823418" lon="3.181968005374074">
        <ele>215.47</ele>
        <time>2014-09-02T10:48:38Z</time>
      </trkpt>
      <trkpt lat="39.860911332070827" lon="3.181900950148702">
        <ele>216.43000000000001</ele>
        <time>2014-09-02T10:48:50Z</time>
      </trkpt>
      <trkpt lat="39.860918121412396" lon="3.18189206533134">
        <ele>215.94999999999999</ele>
        <time>2014-09-02T10:48:51Z</time>
      </trkpt>
      <trkpt lat="39.860928850248456" lon="3.181876558810473">
        <ele>216.43000000000001</ele>
        <time>2014-09-02T10:48:53Z</time>
      </trkpt>
      <trkpt lat="39.860967490822077" lon="3.181850155815482">
        <ele>218.84</ele>
        <time>2014-09-02T10:49:05Z</time>
      </trkpt>
      <trkpt lat="39.86096422187984" lon="3.181858537718654">
        <ele>218.84</ele>
        <time>2014-09-02T10:49:06Z</time>
      </trkpt>
      <trkpt lat="39.860965982079506" lon="3.181918719783425">
        <ele>219.80000000000001</ele>
        <time>2014-09-02T10:49:14Z</time>
      </trkpt>
      <trkpt lat="39.860965562984347" lon="3.181958114728332">
        <ele>220.28</ele>
        <time>2014-09-02T10:49:17Z</time>
      </trkpt>
      <trkpt lat="39.860972184687853" lon="3.182008657604456">
        <ele>221.24000000000001</ele>
        <time>2014-09-02T10:49:22Z</time>
      </trkpt>
      <trkpt lat="39.860979057848454" lon="3.182029696181417">
        <ele>221.24000000000001</ele>
        <time>2014-09-02T10:49:26Z</time>
      </trkpt>
      <trkpt lat="39.860984506085515" lon="3.182021733373404">
        <ele>222.19999999999999</ele>
        <time>2014-09-02T10:49:38Z</time>
      </trkpt>
      <trkpt lat="39.860989283770323" lon="3.182025253772736">
        <ele>221.72</ele>
        <time>2014-09-02T10:49:47Z</time>
      </trkpt>
      <trkpt lat="39.86101258546114" lon="3.182047214359045">
        <ele>221.24000000000001</ele>
        <time>2014-09-02T10:49:50Z</time>
      </trkpt>
      <trkpt lat="39.861038820818067" lon="3.182017207145691">
        <ele>222.68000000000001</ele>
        <time>2014-09-02T10:49:54Z</time>
      </trkpt>
      <trkpt lat="39.861038066446781" lon="3.181989882141352">
        <ele>223.16</ele>
        <time>2014-09-02T10:49:56Z</time>
      </trkpt>
      <trkpt lat="39.861079305410385" lon="3.181894579902291">
        <ele>224.12</ele>
        <time>2014-09-02T10:50:07Z</time>
      </trkpt>
      <trkpt lat="39.861089028418064" lon="3.181892987340689">
        <ele>225.09</ele>
        <time>2014-09-02T10:50:14Z</time>
      </trkpt>
      <trkpt lat="39.861112916842103" lon="3.181953588500619">
        <ele>227.49000000000001</ele>
        <time>2014-09-02T10:50:21Z</time>
      </trkpt>
      <trkpt lat="39.861108725890517" lon="3.181960880756378">
        <ele>227.00999999999999</ele>
        <time>2014-09-02T10:50:22Z</time>
      </trkpt>
      <trkpt lat="39.861112581565976" lon="3.182002287358046">
        <ele>227.97</ele>
        <time>2014-09-02T10:50:28Z</time>
      </trkpt>
      <trkpt lat="39.861118365079165" lon="3.181978818029165">
        <ele>228.93000000000001</ele>
        <time>2014-09-02T10:50:31Z</time>
      </trkpt>
      <trkpt lat="39.86111618578434" lon="3.181939506903291">
        <ele>230.37</ele>
        <time>2014-09-02T10:50:34Z</time>
      </trkpt>
      <trkpt lat="39.861116856336594" lon="3.18190430290997">
        <ele>229.88999999999999</ele>
        <time>2014-09-02T10:50:38Z</time>
      </trkpt>
      <trkpt lat="39.861128004267812" lon="3.181874128058553">
        <ele>230.84999999999999</ele>
        <time>2014-09-02T10:50:41Z</time>
      </trkpt>
      <trkpt lat="39.861134709790349" lon="3.181831715628505">
        <ele>230.37</ele>
        <time>2014-09-02T10:50:45Z</time>
      </trkpt>
      <trkpt lat="39.861143762245774" lon="3.181781088933349">
        <ele>231.33000000000001</ele>
        <time>2014-09-02T10:50:50Z</time>
      </trkpt>
      <trkpt lat="39.86117628403008" lon="3.181752003729343">
        <ele>231.81</ele>
        <time>2014-09-02T10:50:54Z</time>
      </trkpt>
      <trkpt lat="39.86119681969285" lon="3.181769941002131">
        <ele>235.66</ele>
        <time>2014-09-02T10:51:00Z</time>
      </trkpt>
      <trkpt lat="39.861195143312216" lon="3.181770863011479">
        <ele>231.33000000000001</ele>
        <time>2014-09-02T10:51:17Z</time>
      </trkpt>
      <trkpt lat="39.861201848834753" lon="3.181782430037856">
        <ele>230.84999999999999</ele>
        <time>2014-09-02T10:51:18Z</time>
      </trkpt>
      <trkpt lat="39.861211739480495" lon="3.181784776970744">
        <ele>229.88999999999999</ele>
        <time>2014-09-02T10:51:22Z</time>
      </trkpt>
      <trkpt lat="39.861226407811046" lon="3.181799445301294">
        <ele>227.49000000000001</ele>
        <time>2014-09-02T10:51:24Z</time>
      </trkpt>
      <trkpt lat="39.861224479973316" lon="3.18181243725121">
        <ele>235.18000000000001</ele>
        <time>2014-09-02T10:51:25Z</time>
      </trkpt>
      <trkpt lat="39.861249625682831" lon="3.181860214099288">
        <ele>239.02000000000001</ele>
        <time>2014-09-02T10:51:31Z</time>
      </trkpt>
      <trkpt lat="39.861251721158624" lon="3.181864488869906">
        <ele>229.88999999999999</ele>
        <time>2014-09-02T10:51:32Z</time>
      </trkpt>
      <trkpt lat="39.861253229901195" lon="3.181871278211474">
        <ele>236.13999999999999</ele>
        <time>2014-09-02T10:51:33Z</time>
      </trkpt>
      <trkpt lat="39.861263623461127" lon="3.181886114180088">
        <ele>228.44999999999999</ele>
        <time>2014-09-02T10:51:35Z</time>
      </trkpt>
      <trkpt lat="39.861263623461127" lon="3.181886114180088">
        <ele>235.18000000000001</ele>
        <time>2014-09-02T10:51:36Z</time>
      </trkpt>
      <trkpt lat="39.86126571893692" lon="3.181894747540355">
        <ele>237.58000000000001</ele>
        <time>2014-09-02T10:51:37Z</time>
      </trkpt>
      <trkpt lat="39.861272592097521" lon="3.181933471933007">
        <ele>236.13999999999999</ele>
        <time>2014-09-02T10:51:43Z</time>
      </trkpt>
      <trkpt lat="39.86130184493959" lon="3.18199910223484">
        <ele>237.09999999999999</ele>
        <time>2014-09-02T10:51:51Z</time>
      </trkpt>
      <trkpt lat="39.861313160508871" lon="3.182120304554701">
        <ele>238.53999999999999</ele>
        <time>2014-09-02T10:52:00Z</time>
      </trkpt>
      <trkpt lat="39.861315842717886" lon="3.182149054482579">
        <ele>239.50999999999999</ele>
        <time>2014-09-02T10:52:03Z</time>
      </trkpt>
      <trkpt lat="39.861321207135916" lon="3.182177552953363">
        <ele>239.50999999999999</ele>
        <time>2014-09-02T10:52:07Z</time>
      </trkpt>
      <trkpt lat="39.861331600695848" lon="3.182260785251856">
        <ele>241.91</ele>
        <time>2014-09-02T10:52:14Z</time>
      </trkpt>
      <trkpt lat="39.861346520483494" lon="3.182226251810789">
        <ele>243.34999999999999</ele>
        <time>2014-09-02T10:52:17Z</time>
      </trkpt>
      <trkpt lat="39.861359596252441" lon="3.18219842389226">
        <ele>243.34999999999999</ele>
        <time>2014-09-02T10:52:21Z</time>
      </trkpt>
      <trkpt lat="39.861392537131906" lon="3.182192053645849">
        <ele>243.83000000000001</ele>
        <time>2014-09-02T10:52:25Z</time>
      </trkpt>
      <trkpt lat="39.861400499939919" lon="3.182243769988418">
        <ele>244.78999999999999</ele>
        <time>2014-09-02T10:52:30Z</time>
      </trkpt>
      <trkpt lat="39.861420029774308" lon="3.182272100821137">
        <ele>245.75</ele>
        <time>2014-09-02T10:52:33Z</time>
      </trkpt>
      <trkpt lat="39.86142254434526" lon="3.182293474674225">
        <ele>246.72</ele>
        <time>2014-09-02T10:52:37Z</time>
      </trkpt>
      <trkpt lat="39.861432937905192" lon="3.182311831042171">
        <ele>246.72</ele>
        <time>2014-09-02T10:52:39Z</time>
      </trkpt>
      <trkpt lat="39.861439224332571" lon="3.182331612333655">
        <ele>247.68000000000001</ele>
        <time>2014-09-02T10:52:43Z</time>
      </trkpt>
      <trkpt lat="39.861475098878145" lon="3.182367403060198">
        <ele>249.59999999999999</ele>
        <time>2014-09-02T10:52:50Z</time>
      </trkpt>
      <trkpt lat="39.861502759158611" lon="3.18240755237639">
        <ele>251.03999999999999</ele>
        <time>2014-09-02T10:52:57Z</time>
      </trkpt>
      <trkpt lat="39.861512985080481" lon="3.182426495477557">
        <ele>252</ele>
        <time>2014-09-02T10:52:59Z</time>
      </trkpt>
      <trkpt lat="39.861516589298844" lon="3.182430015876889">
        <ele>252</ele>
        <time>2014-09-02T10:53:00Z</time>
      </trkpt>
      <trkpt lat="39.861523127183318" lon="3.182443426921964">
        <ele>252</ele>
        <time>2014-09-02T10:53:02Z</time>
      </trkpt>
      <trkpt lat="39.861619519069791" lon="3.182533197104931">
        <ele>252</ele>
        <time>2014-09-02T10:53:13Z</time>
      </trkpt>
      <trkpt lat="39.861632091924548" lon="3.18254635669291">
        <ele>252.47999999999999</ele>
        <time>2014-09-02T10:53:15Z</time>
      </trkpt>
      <trkpt lat="39.861666709184647" lon="3.182598827406764">
        <ele>253.93000000000001</ele>
        <time>2014-09-02T10:53:26Z</time>
      </trkpt>
      <trkpt lat="39.861705433577299" lon="3.18262062035501">
        <ele>254.41</ele>
        <time>2014-09-02T10:53:40Z</time>
      </trkpt>
      <trkpt lat="39.861733177676797" lon="3.182635791599751">
        <ele>255.84999999999999</ele>
        <time>2014-09-02T10:53:43Z</time>
      </trkpt>
      <trkpt lat="39.861741475760937" lon="3.182638809084892">
        <ele>251.52000000000001</ele>
        <time>2014-09-02T10:53:44Z</time>
      </trkpt>
      <trkpt lat="39.861746421083808" lon="3.182644927874208">
        <ele>255.84999999999999</ele>
        <time>2014-09-02T10:53:45Z</time>
      </trkpt>
      <trkpt lat="39.861754048615694" lon="3.18264995701611">
        <ele>252.47999999999999</ele>
        <time>2014-09-02T10:53:47Z</time>
      </trkpt>
      <trkpt lat="39.861761843785644" lon="3.182653058320284">
        <ele>255.84999999999999</ele>
        <time>2014-09-02T10:53:48Z</time>
      </trkpt>
      <trkpt lat="39.861813308671117" lon="3.182633277028799">
        <ele>256.32999999999998</ele>
        <time>2014-09-02T10:53:58Z</time>
      </trkpt>
      <trkpt lat="39.861817751079798" lon="3.18263721652329">
        <ele>257.29000000000002</ele>
        <time>2014-09-02T10:54:00Z</time>
      </trkpt>
      <trkpt lat="39.861826132982969" lon="3.182638892903924">
        <ele>258.25</ele>
        <time>2014-09-02T10:54:03Z</time>
      </trkpt>
      <trkpt lat="39.86182227730751" lon="3.18259228952229">
        <ele>259.69</ele>
        <time>2014-09-02T10:54:07Z</time>
      </trkpt>
      <trkpt lat="39.861812219023705" lon="3.182551804929972">
        <ele>259.69</ele>
        <time>2014-09-02T10:54:11Z</time>
      </trkpt>
      <trkpt lat="39.86180710606277" lon="3.182523977011442">
        <ele>259.69</ele>
        <time>2014-09-02T10:54:13Z</time>
      </trkpt>
      <trkpt lat="39.861792018637061" lon="3.182505704462528">
        <ele>260.64999999999998</ele>
        <time>2014-09-02T10:54:15Z</time>
      </trkpt>
      <trkpt lat="39.861766370013356" lon="3.182442588731647">
        <ele>261.62</ele>
        <time>2014-09-02T10:54:20Z</time>
      </trkpt>
      <trkpt lat="39.861754467710853" lon="3.182409480214119">
        <ele>262.10000000000002</ele>
        <time>2014-09-02T10:54:26Z</time>
      </trkpt>
      <trkpt lat="39.861758071929216" lon="3.182395817711949">
        <ele>263.54000000000002</ele>
        <time>2014-09-02T10:54:31Z</time>
      </trkpt>
      <trkpt lat="39.861838035285473" lon="3.182470332831144">
        <ele>264.5</ele>
        <time>2014-09-02T10:54:42Z</time>
      </trkpt>
      <trkpt lat="39.861839795485139" lon="3.182465052232146">
        <ele>264.5</ele>
        <time>2014-09-02T10:54:43Z</time>
      </trkpt>
      <trkpt lat="39.861835101619363" lon="3.182435883209109">
        <ele>264.98000000000002</ele>
        <time>2014-09-02T10:54:46Z</time>
      </trkpt>
      <trkpt lat="39.861830323934555" lon="3.182427752763033">
        <ele>265.45999999999998</ele>
        <time>2014-09-02T10:54:48Z</time>
      </trkpt>
      <trkpt lat="39.861828647553921" lon="3.182403529062867">
        <ele>266.42000000000002</ele>
        <time>2014-09-02T10:54:50Z</time>
      </trkpt>
      <trkpt lat="39.861824372783303" lon="3.182379305362701">
        <ele>266.42000000000002</ele>
        <time>2014-09-02T10:54:53Z</time>
      </trkpt>
      <trkpt lat="39.861820181831717" lon="3.182350639253855">
        <ele>265.94</ele>
        <time>2014-09-02T10:54:55Z</time>
      </trkpt>
      <trkpt lat="39.86177584156394" lon="3.182287020608783">
        <ele>268.35000000000002</ele>
        <time>2014-09-02T10:55:04Z</time>
      </trkpt>
      <trkpt lat="39.86180073581636" lon="3.182298336178064">
        <ele>268.35000000000002</ele>
        <time>2014-09-02T10:55:08Z</time>
      </trkpt>
      <trkpt lat="39.861823953688145" lon="3.182331109419465">
        <ele>268.35000000000002</ele>
        <time>2014-09-02T10:55:11Z</time>
      </trkpt>
      <trkpt lat="39.861847925931215" lon="3.18234552629292">
        <ele>268.82999999999998</ele>
        <time>2014-09-02T10:55:15Z</time>
      </trkpt>
      <trkpt lat="39.861885644495487" lon="3.182385675609112">
        <ele>269.31</ele>
        <time>2014-09-02T10:55:21Z</time>
      </trkpt>
      <trkpt lat="39.861950939521194" lon="3.182426746934652">
        <ele>271.23000000000002</ele>
        <time>2014-09-02T10:55:30Z</time>
      </trkpt>
      <trkpt lat="39.861981449648738" lon="3.182442672550678">
        <ele>271.70999999999998</ele>
        <time>2014-09-02T10:55:34Z</time>
      </trkpt>
      <trkpt lat="39.862010534852743" lon="3.182467063888907">
        <ele>273.14999999999998</ele>
        <time>2014-09-02T10:55:38Z</time>
      </trkpt>
      <trkpt lat="39.862027298659086" lon="3.182480894029141">
        <ele>273.63</ele>
        <time>2014-09-02T10:55:40Z</time>
      </trkpt>
      <trkpt lat="39.862059568986297" lon="3.182505453005433">
        <ele>273.63</ele>
        <time>2014-09-02T10:55:44Z</time>
      </trkpt>
      <trkpt lat="39.862084966152906" lon="3.182535879313946">
        <ele>274.58999999999997</ele>
        <time>2014-09-02T10:55:48Z</time>
      </trkpt>
      <trkpt lat="39.862124109640718" lon="3.182563707232475">
        <ele>275.06999999999999</ele>
        <time>2014-09-02T10:55:52Z</time>
      </trkpt>
      <trkpt lat="39.862135760486126" lon="3.182584326714277">
        <ele>275.06999999999999</ele>
        <time>2014-09-02T10:55:54Z</time>
      </trkpt>
      <trkpt lat="39.862147076055408" lon="3.182596983388066">
        <ele>275.56</ele>
        <time>2014-09-02T10:55:57Z</time>
      </trkpt>
      <trkpt lat="39.862179262563586" lon="3.18263528868556">
        <ele>276.04000000000002</ele>
        <time>2014-09-02T10:56:03Z</time>
      </trkpt>
      <trkpt lat="39.862226033583283" lon="3.182689435780048">
        <ele>277.95999999999998</ele>
        <time>2014-09-02T10:56:11Z</time>
      </trkpt>
      <trkpt lat="39.862241456285119" lon="3.182710809633136">
        <ele>277.48000000000002</ele>
        <time>2014-09-02T10:56:13Z</time>
      </trkpt>
      <trkpt lat="39.862303901463747" lon="3.182813320308924">
        <ele>278.92000000000002</ele>
        <time>2014-09-02T10:56:23Z</time>
      </trkpt>
      <trkpt lat="39.86233776435256" lon="3.182858331128955">
        <ele>279.39999999999998</ele>
        <time>2014-09-02T10:56:27Z</time>
      </trkpt>
      <trkpt lat="39.862364837899804" lon="3.182875597849488">
        <ele>280.36000000000001</ele>
        <time>2014-09-02T10:56:31Z</time>
      </trkpt>
      <trkpt lat="39.862385541200638" lon="3.182908203452826">
        <ele>280.83999999999997</ele>
        <time>2014-09-02T10:56:35Z</time>
      </trkpt>
      <trkpt lat="39.862398533150554" lon="3.182941731065512">
        <ele>280.83999999999997</ele>
        <time>2014-09-02T10:56:38Z</time>
      </trkpt>
      <trkpt lat="39.862428288906813" lon="3.182972660288215">
        <ele>281.31999999999999</ele>
        <time>2014-09-02T10:56:42Z</time>
      </trkpt>
      <trkpt lat="39.862447064369917" lon="3.183008953928947">
        <ele>282.27999999999997</ele>
        <time>2014-09-02T10:56:48Z</time>
      </trkpt>
      <trkpt lat="39.862457038834691" lon="3.183054802939296">
        <ele>283.25</ele>
        <time>2014-09-02T10:56:52Z</time>
      </trkpt>
      <trkpt lat="39.862462822347879" lon="3.183081541210413">
        <ele>284.20999999999998</ele>
        <time>2014-09-02T10:56:54Z</time>
      </trkpt>
      <trkpt lat="39.862487884238362" lon="3.18314004689455">
        <ele>287.56999999999999</ele>
        <time>2014-09-02T10:57:01Z</time>
      </trkpt>
      <trkpt lat="39.862494086846709" lon="3.18316594697535">
        <ele>284.69</ele>
        <time>2014-09-02T10:57:03Z</time>
      </trkpt>
      <trkpt lat="39.862493248656392" lon="3.183175837621093">
        <ele>281.31999999999999</ele>
        <time>2014-09-02T10:57:04Z</time>
      </trkpt>
      <trkpt lat="39.862491907551885" lon="3.183177011087537">
        <ele>287.08999999999997</ele>
        <time>2014-09-02T10:57:05Z</time>
      </trkpt>
      <trkpt lat="39.862497774884105" lon="3.183178603649139">
        <ele>279.88</ele>
        <time>2014-09-02T10:57:18Z</time>
      </trkpt>
      <trkpt lat="39.862499535083771" lon="3.183180531486869">
        <ele>286.61000000000001</ele>
        <time>2014-09-02T10:57:19Z</time>
      </trkpt>
      <trkpt lat="39.862511856481433" lon="3.18319327197969">
        <ele>279.39999999999998</ele>
        <time>2014-09-02T10:57:21Z</time>
      </trkpt>
      <trkpt lat="39.86251562833786" lon="3.183201150968671">
        <ele>288.52999999999997</ele>
        <time>2014-09-02T10:57:22Z</time>
      </trkpt>
      <trkpt lat="39.862520238384604" lon="3.183218669146299">
        <ele>280.36000000000001</ele>
        <time>2014-09-02T10:57:24Z</time>
      </trkpt>
      <trkpt lat="39.862519567832351" lon="3.183226380497217">
        <ele>285.64999999999998</ele>
        <time>2014-09-02T10:57:25Z</time>
      </trkpt>
      <trkpt lat="39.862519567832351" lon="3.183226380497217">
        <ele>291.89999999999998</ele>
        <time>2014-09-02T10:57:26Z</time>
      </trkpt>
      <trkpt lat="39.862521663308144" lon="3.183230571448803">
        <ele>281.31999999999999</ele>
        <time>2014-09-02T10:57:27Z</time>
      </trkpt>
      <trkpt lat="39.862521663308144" lon="3.183230571448803">
        <ele>288.05000000000001</ele>
        <time>2014-09-02T10:57:28Z</time>
      </trkpt>
      <trkpt lat="39.862521663308144" lon="3.183230571448803">
        <ele>286.61000000000001</ele>
        <time>2014-09-02T10:57:51Z</time>
      </trkpt>
      <trkpt lat="39.862525602802634" lon="3.183225290849805">
        <ele>280.83999999999997</ele>
        <time>2014-09-02T10:57:55Z</time>
      </trkpt>
      <trkpt lat="39.862525602802634" lon="3.183225290849805">
        <ele>290.94</ele>
        <time>2014-09-02T10:57:56Z</time>
      </trkpt>
      <trkpt lat="39.862525518983603" lon="3.183211628347635">
        <ele>287.08999999999997</ele>
        <time>2014-09-02T10:57:57Z</time>
      </trkpt>
      <trkpt lat="39.86250733025372" lon="3.183203665539622">
        <ele>283.25</ele>
        <time>2014-09-02T10:58:02Z</time>
      </trkpt>
      <trkpt lat="39.862508922815323" lon="3.183196457102895">
        <ele>284.69</ele>
        <time>2014-09-02T10:58:03Z</time>
      </trkpt>
      <trkpt lat="39.862508922815323" lon="3.183196457102895">
        <ele>286.61000000000001</ele>
        <time>2014-09-02T10:58:05Z</time>
      </trkpt>
      <trkpt lat="39.862514790147543" lon="3.183191260322928">
        <ele>292.86000000000001</ele>
        <time>2014-09-02T10:58:22Z</time>
      </trkpt>
      <trkpt lat="39.862522417679429" lon="3.183194613084197">
        <ele>286.61000000000001</ele>
        <time>2014-09-02T10:58:23Z</time>
      </trkpt>
      <trkpt lat="39.862511521205306" lon="3.183183548972011">
        <ele>290.94</ele>
        <time>2014-09-02T10:58:31Z</time>
      </trkpt>
      <trkpt lat="39.862514790147543" lon="3.183167539536953">
        <ele>283.73000000000002</ele>
        <time>2014-09-02T10:58:33Z</time>
      </trkpt>
      <trkpt lat="39.862516717985272" lon="3.183158654719591">
        <ele>288.52999999999997</ele>
        <time>2014-09-02T10:58:34Z</time>
      </trkpt>
      <trkpt lat="39.862519567832351" lon="3.183148261159658">
        <ele>282.27999999999997</ele>
        <time>2014-09-02T10:58:35Z</time>
      </trkpt>
      <trkpt lat="39.86251856200397" lon="3.183151697739959">
        <ele>291.42000000000002</ele>
        <time>2014-09-02T10:58:36Z</time>
      </trkpt>
      <trkpt lat="39.862518394365907" lon="3.183145746588707">
        <ele>288.05000000000001</ele>
        <time>2014-09-02T10:58:37Z</time>
      </trkpt>
      <trkpt lat="39.86251856200397" lon="3.183131078258157">
        <ele>292.38</ele>
        <time>2014-09-02T10:58:39Z</time>
      </trkpt>
      <trkpt lat="39.862518645823002" lon="3.1831219419837">
        <ele>284.20999999999998</ele>
        <time>2014-09-02T10:58:40Z</time>
      </trkpt>
      <trkpt lat="39.862515460699797" lon="3.183112973347306">
        <ele>288.52999999999997</ele>
        <time>2014-09-02T10:58:41Z</time>
      </trkpt>
      <trkpt lat="39.862505067139864" lon="3.183086737990379">
        <ele>285.64999999999998</ele>
        <time>2014-09-02T10:58:44Z</time>
      </trkpt>
      <trkpt lat="39.862502133473754" lon="3.183079529553652">
        <ele>289.00999999999999</ele>
        <time>2014-09-02T10:58:45Z</time>
      </trkpt>
      <trkpt lat="39.862501295283437" lon="3.183058742433786">
        <ele>283.25</ele>
        <time>2014-09-02T10:58:47Z</time>
      </trkpt>
      <trkpt lat="39.862501546740532" lon="3.183050863444805">
        <ele>295.25999999999999</ele>
        <time>2014-09-02T10:58:48Z</time>
      </trkpt>
      <trkpt lat="39.862503055483103" lon="3.183040469884872">
        <ele>288.05000000000001</ele>
        <time>2014-09-02T10:58:49Z</time>
      </trkpt>
      <trkpt lat="39.862502720206976" lon="3.183021862059832">
        <ele>291.89999999999998</ele>
        <time>2014-09-02T10:58:51Z</time>
      </trkpt>
      <trkpt lat="39.862498948350549" lon="3.18301297724247">
        <ele>288.05000000000001</ele>
        <time>2014-09-02T10:58:52Z</time>
      </trkpt>
      <trkpt lat="39.862490566447377" lon="3.183000572025776">
        <ele>294.30000000000001</ele>
        <time>2014-09-02T10:58:54Z</time>
      </trkpt>
      <trkpt lat="39.862485285848379" lon="3.182990346103907">
        <ele>287.08999999999997</ele>
        <time>2014-09-02T10:58:55Z</time>
      </trkpt>
      <trkpt lat="39.86248972825706" lon="3.182983808219433">
        <ele>288.52999999999997</ele>
        <time>2014-09-02T10:58:56Z</time>
      </trkpt>
      <trkpt lat="39.862539181485772" lon="3.182960255071521">
        <ele>286.13</ele>
        <time>2014-09-02T10:58:58Z</time>
      </trkpt>
      <trkpt lat="39.86253758892417" lon="3.182974420487881">
        <ele>291.89999999999998</ele>
        <time>2014-09-02T10:58:59Z</time>
      </trkpt>
      <trkpt lat="39.862541863694787" lon="3.1829993147403">
        <ele>286.61000000000001</ele>
        <time>2014-09-02T10:59:01Z</time>
      </trkpt>
      <trkpt lat="39.862545635551214" lon="3.183004092425108">
        <ele>289.49000000000001</ele>
        <time>2014-09-02T10:59:02Z</time>
      </trkpt>
      <trkpt lat="39.862549072131515" lon="3.183012306690216">
        <ele>293.81999999999999</ele>
        <time>2014-09-02T10:59:03Z</time>
      </trkpt>
      <trkpt lat="39.862550161778927" lon="3.183018006384373">
        <ele>289.97000000000003</ele>
        <time>2014-09-02T10:59:04Z</time>
      </trkpt>
      <trkpt lat="39.862561142072082" lon="3.183037620037794">
        <ele>297.67000000000002</ele>
        <time>2014-09-02T10:59:06Z</time>
      </trkpt>
      <trkpt lat="39.862566590309143" lon="3.183045415207744">
        <ele>290.94</ele>
        <time>2014-09-02T10:59:07Z</time>
      </trkpt>
      <trkpt lat="39.862577319145203" lon="3.183058239519596">
        <ele>295.74000000000001</ele>
        <time>2014-09-02T10:59:09Z</time>
      </trkpt>
      <trkpt lat="39.862577319145203" lon="3.183071650564671">
        <ele>290.94</ele>
        <time>2014-09-02T10:59:10Z</time>
      </trkpt>
      <trkpt lat="39.86257866024971" lon="3.183080535382032">
        <ele>290.45999999999998</ele>
        <time>2014-09-02T10:59:11Z</time>
      </trkpt>
      <trkpt lat="39.862581761553884" lon="3.183089755475521">
        <ele>295.25999999999999</ele>
        <time>2014-09-02T10:59:12Z</time>
      </trkpt>
      <trkpt lat="39.862596346065402" lon="3.183109452947974">
        <ele>286.13</ele>
        <time>2014-09-02T10:59:14Z</time>
      </trkpt>
      <trkpt lat="39.862597687169909" lon="3.1831185054034">
        <ele>301.02999999999997</ele>
        <time>2014-09-02T10:59:15Z</time>
      </trkpt>
      <trkpt lat="39.862601542845368" lon="3.183143148198724">
        <ele>293.81999999999999</ele>
        <time>2014-09-02T10:59:18Z</time>
      </trkpt>
      <trkpt lat="39.86260405741632" lon="3.183166198432446">
        <ele>292.38</ele>
        <time>2014-09-02T10:59:21Z</time>
      </trkpt>
      <trkpt lat="39.862610511481762" lon="3.183193607255817">
        <ele>294.77999999999997</ele>
        <time>2014-09-02T10:59:23Z</time>
      </trkpt>
      <trkpt lat="39.862623251974583" lon="3.183210035786033">
        <ele>288.05000000000001</ele>
        <time>2014-09-02T10:59:24Z</time>
      </trkpt>
      <trkpt lat="39.862622749060392" lon="3.183221686631441">
        <ele>295.74000000000001</ele>
        <time>2014-09-02T10:59:25Z</time>
      </trkpt>
      <trkpt lat="39.862631885334849" lon="3.183243814855814">
        <ele>291.89999999999998</ele>
        <time>2014-09-02T10:59:27Z</time>
      </trkpt>
      <trkpt lat="39.862631885334849" lon="3.183243814855814">
        <ele>294.30000000000001</ele>
        <time>2014-09-02T10:59:28Z</time>
      </trkpt>
      <trkpt lat="39.862632723525167" lon="3.183244317770004">
        <ele>289.97000000000003</ele>
        <time>2014-09-02T10:59:31Z</time>
      </trkpt>
      <trkpt lat="39.862632723525167" lon="3.183244317770004">
        <ele>299.58999999999997</ele>
        <time>2014-09-02T10:59:32Z</time>
      </trkpt>
      <trkpt lat="39.862631885334849" lon="3.183244988322258">
        <ele>294.77999999999997</ele>
        <time>2014-09-02T10:59:33Z</time>
      </trkpt>
      <trkpt lat="39.862629119306803" lon="3.183254711329937">
        <ele>294.30000000000001</ele>
        <time>2014-09-02T10:59:48Z</time>
      </trkpt>
      <trkpt lat="39.862629119306803" lon="3.183254711329937">
        <ele>297.67000000000002</ele>
        <time>2014-09-02T10:59:58Z</time>
      </trkpt>
      <trkpt lat="39.86262945458293" lon="3.183243060484529">
        <ele>290.94</ele>
        <time>2014-09-02T10:59:59Z</time>
      </trkpt>
      <trkpt lat="39.862631130963564" lon="3.183233672752976">
        <ele>292.38</ele>
        <time>2014-09-02T11:00:00Z</time>
      </trkpt>
      <trkpt lat="39.862624341621995" lon="3.183225877583027">
        <ele>287.56999999999999</ele>
        <time>2014-09-02T11:00:02Z</time>
      </trkpt>
      <trkpt lat="39.862618558108807" lon="3.183215819299221">
        <ele>297.18000000000001</ele>
        <time>2014-09-02T11:00:03Z</time>
      </trkpt>
      <trkpt lat="39.862610846757889" lon="3.183192433789372">
        <ele>291.42000000000002</ele>
        <time>2014-09-02T11:00:05Z</time>
      </trkpt>
      <trkpt lat="39.862609254196286" lon="3.183181537315249">
        <ele>296.69999999999999</ele>
        <time>2014-09-02T11:00:06Z</time>
      </trkpt>
      <trkpt lat="39.862603889778256" lon="3.18316007964313">
        <ele>291.89999999999998</ele>
        <time>2014-09-02T11:00:08Z</time>
      </trkpt>
      <trkpt lat="39.862601710483432" lon="3.183159995824099">
        <ele>296.69999999999999</ele>
        <time>2014-09-02T11:00:09Z</time>
      </trkpt>
      <trkpt lat="39.862603889778256" lon="3.18316007964313">
        <ele>292.86000000000001</ele>
        <time>2014-09-02T11:00:12Z</time>
      </trkpt>
      <trkpt lat="39.86260405741632" lon="3.183149686083198">
        <ele>296.22000000000003</ele>
        <time>2014-09-02T11:00:13Z</time>
      </trkpt>
      <trkpt lat="39.86260405741632" lon="3.183149686083198">
        <ele>291.42000000000002</ele>
        <time>2014-09-02T11:00:14Z</time>
      </trkpt>
      <trkpt lat="39.862601459026337" lon="3.183137699961662">
        <ele>297.67000000000002</ele>
        <time>2014-09-02T11:00:15Z</time>
      </trkpt>
      <trkpt lat="39.862597603350878" lon="3.183106686919928">
        <ele>292.38</ele>
        <time>2014-09-02T11:00:17Z</time>
      </trkpt>
      <trkpt lat="39.862580085173249" lon="3.183055389672518">
        <ele>293.81999999999999</ele>
        <time>2014-09-02T11:00:20Z</time>
      </trkpt>
      <trkpt lat="39.862578492611647" lon="3.18304818123579">
        <ele>297.67000000000002</ele>
        <time>2014-09-02T11:00:21Z</time>
      </trkpt>
      <trkpt lat="39.862573547288775" lon="3.183037620037794">
        <ele>301.02999999999997</ele>
        <time>2014-09-02T11:00:22Z</time>
      </trkpt>
      <trkpt lat="39.862571535632014" lon="3.183026555925608">
        <ele>300.06999999999999</ele>
        <time>2014-09-02T11:00:23Z</time>
      </trkpt>
      <trkpt lat="39.862570026889443" lon="3.183010378852487">
        <ele>295.74000000000001</ele>
        <time>2014-09-02T11:00:24Z</time>
      </trkpt>
      <trkpt lat="39.862566171213984" lon="3.182997973635793">
        <ele>295.74000000000001</ele>
        <time>2014-09-02T11:00:25Z</time>
      </trkpt>
      <trkpt lat="39.862558711320162" lon="3.182991351932287">
        <ele>303.43000000000001</ele>
        <time>2014-09-02T11:00:26Z</time>
      </trkpt>
      <trkpt lat="39.862556029111147" lon="3.182978695258498">
        <ele>298.14999999999998</ele>
        <time>2014-09-02T11:00:27Z</time>
      </trkpt>
      <trkpt lat="39.8625532630831" lon="3.182963104918599">
        <ele>290.94</ele>
        <time>2014-09-02T11:00:28Z</time>
      </trkpt>
      <trkpt lat="39.862551586702466" lon="3.182950951159">
        <ele>299.58999999999997</ele>
        <time>2014-09-02T11:00:29Z</time>
      </trkpt>
      <trkpt lat="39.862550497055054" lon="3.182941060513258">
        <ele>304.38999999999999</ele>
        <time>2014-09-02T11:00:30Z</time>
      </trkpt>
      <trkpt lat="39.862546641379595" lon="3.18292940966785">
        <ele>293.33999999999997</ele>
        <time>2014-09-02T11:00:31Z</time>
      </trkpt>
      <trkpt lat="39.862542701885104" lon="3.182915411889553">
        <ele>301.99000000000001</ele>
        <time>2014-09-02T11:00:32Z</time>
      </trkpt>
      <trkpt lat="39.862546306103468" lon="3.182880040258169">
        <ele>299.58999999999997</ele>
        <time>2014-09-02T11:00:35Z</time>
      </trkpt>
      <trkpt lat="39.862565835937858" lon="3.182746516540647">
        <ele>299.11000000000001</ele>
        <time>2014-09-02T11:00:42Z</time>
      </trkpt>
      <trkpt lat="39.862562147900462" lon="3.182683316990733">
        <ele>299.58999999999997</ele>
        <time>2014-09-02T11:00:47Z</time>
      </trkpt>
      <trkpt lat="39.862512024119496" lon="3.182638641446829">
        <ele>301.50999999999999</ele>
        <time>2014-09-02T11:00:56Z</time>
      </trkpt>
      <trkpt lat="39.862476149573922" lon="3.182617016136646">
        <ele>301.99000000000001</ele>
        <time>2014-09-02T11:01:04Z</time>
      </trkpt>
      <trkpt lat="39.862477658316493" lon="3.182571418583393">
        <ele>302.94999999999999</ele>
        <time>2014-09-02T11:01:08Z</time>
      </trkpt>
      <trkpt lat="39.862502887845039" lon="3.182508470490575">
        <ele>304.88</ele>
        <time>2014-09-02T11:01:17Z</time>
      </trkpt>
      <trkpt lat="39.862551083788276" lon="3.182533364742994">
        <ele>304.88</ele>
        <time>2014-09-02T11:01:21Z</time>
      </trkpt>
      <trkpt lat="39.862580504268408" lon="3.182607460767031">
        <ele>306.31999999999999</ele>
        <time>2014-09-02T11:01:29Z</time>
      </trkpt>
      <trkpt lat="39.862584276124835" lon="3.182639647275209">
        <ele>306.80000000000001</ele>
        <time>2014-09-02T11:01:32Z</time>
      </trkpt>
      <trkpt lat="39.862600872293115" lon="3.182665882632136">
        <ele>308.24000000000001</ele>
        <time>2014-09-02T11:01:42Z</time>
      </trkpt>
      <trkpt lat="39.862600872293115" lon="3.182665882632136">
        <ele>311.60000000000002</ele>
        <time>2014-09-02T11:02:01Z</time>
      </trkpt>
      <trkpt lat="39.862603722140193" lon="3.182666385546327">
        <ele>308.24000000000001</ele>
        <time>2014-09-02T11:02:04Z</time>
      </trkpt>
      <trkpt lat="39.862606152892113" lon="3.182659009471536">
        <ele>308.24000000000001</ele>
        <time>2014-09-02T11:02:06Z</time>
      </trkpt>
      <trkpt lat="39.862630544230342" lon="3.182625146582723">
        <ele>308.72000000000003</ele>
        <time>2014-09-02T11:02:16Z</time>
      </trkpt>
      <trkpt lat="39.862609338015318" lon="3.182604862377048">
        <ele>308.72000000000003</ele>
        <time>2014-09-02T11:02:18Z</time>
      </trkpt>
      <trkpt lat="39.862599531188607" lon="3.182556414976716">
        <ele>309.68000000000001</ele>
        <time>2014-09-02T11:02:23Z</time>
      </trkpt>
      <trkpt lat="39.862596932798624" lon="3.182529509067535">
        <ele>309.68000000000001</ele>
        <time>2014-09-02T11:02:25Z</time>
      </trkpt>
      <trkpt lat="39.862643955275416" lon="3.182496232911944">
        <ele>310.16000000000003</ele>
        <time>2014-09-02T11:02:31Z</time>
      </trkpt>
      <trkpt lat="39.862677315250039" lon="3.182486174628139">
        <ele>310.63999999999999</ele>
        <time>2014-09-02T11:02:35Z</time>
      </trkpt>
      <trkpt lat="39.862747471779585" lon="3.182468572631478">
        <ele>312.08999999999997</ele>
        <time>2014-09-02T11:02:42Z</time>
      </trkpt>
      <trkpt lat="39.862814862281084" lon="3.182364217936993">
        <ele>311.60000000000002</ele>
        <time>2014-09-02T11:02:52Z</time>
      </trkpt>
      <trkpt lat="39.862830033525825" lon="3.182339072227478">
        <ele>312.08999999999997</ele>
        <time>2014-09-02T11:02:55Z</time>
      </trkpt>
      <trkpt lat="39.862849479541183" lon="3.182299342006445">
        <ele>311.60000000000002</ele>
        <time>2014-09-02T11:02:59Z</time>
      </trkpt>
      <trkpt lat="39.862869093194604" lon="3.182283500209451">
        <ele>310.16000000000003</ele>
        <time>2014-09-02T11:03:01Z</time>
      </trkpt>
      <trkpt lat="39.862874960526824" lon="3.182257181033492">
        <ele>315.44999999999999</ele>
        <time>2014-09-02T11:03:03Z</time>
      </trkpt>
      <trkpt lat="39.862883761525154" lon="3.182247374206781">
        <ele>312.08999999999997</ele>
        <time>2014-09-02T11:03:04Z</time>
      </trkpt>
      <trkpt lat="39.862899351865053" lon="3.182148216292262">
        <ele>311.12</ele>
        <time>2014-09-02T11:03:12Z</time>
      </trkpt>
      <trkpt lat="39.862900106236339" lon="3.182100523263216">
        <ele>310.63999999999999</ele>
        <time>2014-09-02T11:03:15Z</time>
      </trkpt>
      <trkpt lat="39.862898848950863" lon="3.182047046720982">
        <ele>310.16000000000003</ele>
        <time>2014-09-02T11:03:19Z</time>
      </trkpt>
      <trkpt lat="39.862909493967891" lon="3.1819839309901">
        <ele>309.68000000000001</ele>
        <time>2014-09-02T11:03:25Z</time>
      </trkpt>
      <trkpt lat="39.86291435547173" lon="3.181940261274576">
        <ele>309.68000000000001</ele>
        <time>2014-09-02T11:03:29Z</time>
      </trkpt>
      <trkpt lat="39.862911757081747" lon="3.181840600445867">
        <ele>308.24000000000001</ele>
        <time>2014-09-02T11:03:39Z</time>
      </trkpt>
      <trkpt lat="39.86291334964335" lon="3.181838002055883">
        <ele>308.24000000000001</ele>
        <time>2014-09-02T11:03:40Z</time>
      </trkpt>
      <trkpt lat="39.862908739596605" lon="3.181756781414151">
        <ele>308.24000000000001</ele>
        <time>2014-09-02T11:03:45Z</time>
      </trkpt>
      <trkpt lat="39.86292902380228" lon="3.181621329858899">
        <ele>308.24000000000001</ele>
        <time>2014-09-02T11:03:56Z</time>
      </trkpt>
      <trkpt lat="39.862923072651029" lon="3.181508760899305">
        <ele>306.80000000000001</ele>
        <time>2014-09-02T11:04:03Z</time>
      </trkpt>
      <trkpt lat="39.862915193662047" lon="3.181455200538039">
        <ele>305.83999999999997</ele>
        <time>2014-09-02T11:04:07Z</time>
      </trkpt>
      <trkpt lat="39.862923910841346" lon="3.18134430795908">
        <ele>304.88</ele>
        <time>2014-09-02T11:04:16Z</time>
      </trkpt>
      <trkpt lat="39.862923324108124" lon="3.181302901357412">
        <ele>305.36000000000001</ele>
        <time>2014-09-02T11:04:19Z</time>
      </trkpt>
      <trkpt lat="39.862934304401278" lon="3.181276749819517">
        <ele>305.36000000000001</ele>
        <time>2014-09-02T11:04:21Z</time>
      </trkpt>
      <trkpt lat="39.862950649112463" lon="3.181227128952742">
        <ele>306.31999999999999</ele>
        <time>2014-09-02T11:04:27Z</time>
      </trkpt>
      <trkpt lat="39.862980069592595" lon="3.181182956323028">
        <ele>306.31999999999999</ele>
        <time>2014-09-02T11:04:32Z</time>
      </trkpt>
      <trkpt lat="39.863028852269053" lon="3.181150015443564">
        <ele>306.31999999999999</ele>
        <time>2014-09-02T11:04:40Z</time>
      </trkpt>
      <trkpt lat="39.863111497834325" lon="3.181085558608174">
        <ele>303.91000000000003</ele>
        <time>2014-09-02T11:04:47Z</time>
      </trkpt>
      <trkpt lat="39.863141588866711" lon="3.181074410676956">
        <ele>306.31999999999999</ele>
        <time>2014-09-02T11:04:50Z</time>
      </trkpt>
      <trkpt lat="39.863150222226977" lon="3.181072901934385">
        <ele>296.69999999999999</ele>
        <time>2014-09-02T11:04:51Z</time>
      </trkpt>
      <trkpt lat="39.863151898607612" lon="3.181069800630212">
        <ele>306.80000000000001</ele>
        <time>2014-09-02T11:04:52Z</time>
      </trkpt>
      <trkpt lat="39.863150054588914" lon="3.181072231382132">
        <ele>301.99000000000001</ele>
        <time>2014-09-02T11:04:56Z</time>
      </trkpt>
      <trkpt lat="39.863168997690082" lon="3.181051444262266">
        <ele>306.31999999999999</ele>
        <time>2014-09-02T11:04:58Z</time>
      </trkpt>
      <trkpt lat="39.863190036267042" lon="3.181039961054921">
        <ele>302.47000000000003</ele>
        <time>2014-09-02T11:05:00Z</time>
      </trkpt>
      <trkpt lat="39.863207386806607" lon="3.18103157915175">
        <ele>307.27999999999997</ele>
        <time>2014-09-02T11:05:02Z</time>
      </trkpt>
      <trkpt lat="39.863258767873049" lon="3.181016407907009">
        <ele>302.47000000000003</ele>
        <time>2014-09-02T11:05:06Z</time>
      </trkpt>
      <trkpt lat="39.863309394568205" lon="3.180984975770116">
        <ele>306.31999999999999</ele>
        <time>2014-09-02T11:05:11Z</time>
      </trkpt>
      <trkpt lat="39.863352477550507" lon="3.180972235277295">
        <ele>301.99000000000001</ele>
        <time>2014-09-02T11:05:14Z</time>
      </trkpt>
      <trkpt lat="39.863413749262691" lon="3.180937031283975">
        <ele>306.31999999999999</ele>
        <time>2014-09-02T11:05:20Z</time>
      </trkpt>
      <trkpt lat="39.863450461998582" lon="3.18092848174274">
        <ele>300.06999999999999</ele>
        <time>2014-09-02T11:05:23Z</time>
      </trkpt>
      <trkpt lat="39.863477116450667" lon="3.180929571390152">
        <ele>304.38999999999999</ele>
        <time>2014-09-02T11:05:26Z</time>
      </trkpt>
      <trkpt lat="39.863486588001251" lon="3.180936193093658">
        <ele>305.36000000000001</ele>
        <time>2014-09-02T11:05:27Z</time>
      </trkpt>
      <trkpt lat="39.863514164462686" lon="3.180974246934056">
        <ele>298.63</ele>
        <time>2014-09-02T11:05:30Z</time>
      </trkpt>
      <trkpt lat="39.863519361242652" lon="3.180977934971452">
        <ele>300.55000000000001</ele>
        <time>2014-09-02T11:05:31Z</time>
      </trkpt>
      <trkpt lat="39.863538639619946" lon="3.180986400693655">
        <ele>306.31999999999999</ele>
        <time>2014-09-02T11:05:33Z</time>
      </trkpt>
      <trkpt lat="39.863542746752501" lon="3.180996458977461">
        <ele>300.55000000000001</ele>
        <time>2014-09-02T11:05:34Z</time>
      </trkpt>
      <trkpt lat="39.863542411476374" lon="3.181003583595157">
        <ele>297.67000000000002</ele>
        <time>2014-09-02T11:05:35Z</time>
      </trkpt>
      <trkpt lat="39.863544590771198" lon="3.181010121479631">
        <ele>301.50999999999999</ele>
        <time>2014-09-02T11:05:36Z</time>
      </trkpt>
      <trkpt lat="39.863549200817943" lon="3.181015066802502">
        <ele>304.38999999999999</ele>
        <time>2014-09-02T11:05:37Z</time>
      </trkpt>
      <trkpt lat="39.863552385941148" lon="3.181018587201834">
        <ele>300.55000000000001</ele>
        <time>2014-09-02T11:05:38Z</time>
      </trkpt>
      <trkpt lat="39.863550122827291" lon="3.181013055145741">
        <ele>296.69999999999999</ele>
        <time>2014-09-02T11:05:40Z</time>
      </trkpt>
      <trkpt lat="39.863550122827291" lon="3.181013055145741">
        <ele>301.50999999999999</ele>
        <time>2014-09-02T11:05:41Z</time>
      </trkpt>
      <trkpt lat="39.863550122827291" lon="3.181013055145741">
        <ele>296.22000000000003</ele>
        <time>2014-09-02T11:05:43Z</time>
      </trkpt>
      <trkpt lat="39.863550122827291" lon="3.181013055145741">
        <ele>300.55000000000001</ele>
        <time>2014-09-02T11:05:44Z</time>
      </trkpt>
      <trkpt lat="39.863554313778877" lon="3.181015318259597">
        <ele>299.58999999999997</ele>
        <time>2014-09-02T11:05:53Z</time>
      </trkpt>
      <trkpt lat="39.863540818914771" lon="3.181005930528045">
        <ele>301.02999999999997</ele>
        <time>2014-09-02T11:05:55Z</time>
      </trkpt>
      <trkpt lat="39.863537969067693" lon="3.180999392643571">
        <ele>299.58999999999997</ele>
        <time>2014-09-02T11:06:11Z</time>
      </trkpt>
      <trkpt lat="39.863537969067693" lon="3.180999392643571">
        <ele>300.55000000000001</ele>
        <time>2014-09-02T11:06:19Z</time>
      </trkpt>
      <trkpt lat="39.863556241616607" lon="3.181028561666608">
        <ele>301.50999999999999</ele>
        <time>2014-09-02T11:06:21Z</time>
      </trkpt>
      <trkpt lat="39.863562611863017" lon="3.181043900549412">
        <ele>301.50999999999999</ele>
        <time>2014-09-02T11:06:22Z</time>
      </trkpt>
      <trkpt lat="39.863587254658341" lon="3.181089079007506">
        <ele>296.22000000000003</ele>
        <time>2014-09-02T11:06:25Z</time>
      </trkpt>
      <trkpt lat="39.863592870533466" lon="3.181083798408508">
        <ele>297.18000000000001</ele>
        <time>2014-09-02T11:06:26Z</time>
      </trkpt>
      <trkpt lat="39.863595720380545" lon="3.181070303544402">
        <ele>300.55000000000001</ele>
        <time>2014-09-02T11:06:28Z</time>
      </trkpt>
      <trkpt lat="39.863593121990561" lon="3.181032836437225">
        <ele>298.14999999999998</ele>
        <time>2014-09-02T11:06:31Z</time>
      </trkpt>
      <trkpt lat="39.863594798371196" lon="3.18102428689599">
        <ele>297.18000000000001</ele>
        <time>2014-09-02T11:06:33Z</time>
      </trkpt>
      <trkpt lat="39.863597145304084" lon="3.181016659364104">
        <ele>297.67000000000002</ele>
        <time>2014-09-02T11:06:46Z</time>
      </trkpt>
      <trkpt lat="39.863599995151162" lon="3.181003080680966">
        <ele>295.25999999999999</ele>
        <time>2014-09-02T11:06:48Z</time>
      </trkpt>
      <trkpt lat="39.863600581884384" lon="3.180992938578129">
        <ele>295.74000000000001</ele>
        <time>2014-09-02T11:06:49Z</time>
      </trkpt>
      <trkpt lat="39.863607622683048" lon="3.180945916101337">
        <ele>296.69999999999999</ele>
        <time>2014-09-02T11:06:52Z</time>
      </trkpt>
      <trkpt lat="39.863618602976203" lon="3.180922362953425">
        <ele>292.86000000000001</ele>
        <time>2014-09-02T11:06:54Z</time>
      </trkpt>
      <trkpt lat="39.863633858039975" lon="3.180875005200505">
        <ele>296.22000000000003</ele>
        <time>2014-09-02T11:06:57Z</time>
      </trkpt>
      <trkpt lat="39.863633690401912" lon="3.180862683802843">
        <ele>301.99000000000001</ele>
        <time>2014-09-02T11:06:58Z</time>
      </trkpt>
      <trkpt lat="39.863630086183548" lon="3.180849272757769">
        <ele>296.69999999999999</ele>
        <time>2014-09-02T11:06:59Z</time>
      </trkpt>
      <trkpt lat="39.863616339862347" lon="3.180828988552094">
        <ele>294.30000000000001</ele>
        <time>2014-09-02T11:07:01Z</time>
      </trkpt>
      <trkpt lat="39.863625057041645" lon="3.180743660777807">
        <ele>293.33999999999997</ele>
        <time>2014-09-02T11:07:07Z</time>
      </trkpt>
      <trkpt lat="39.863607622683048" lon="3.180648107081652">
        <ele>292.38</ele>
        <time>2014-09-02T11:07:13Z</time>
      </trkpt>
      <trkpt lat="39.863566635176539" lon="3.180520534515381">
        <ele>292.38</ele>
        <time>2014-09-02T11:07:20Z</time>
      </trkpt>
      <trkpt lat="39.863572502508759" lon="3.180383574217558">
        <ele>288.05000000000001</ele>
        <time>2014-09-02T11:07:29Z</time>
      </trkpt>
      <trkpt lat="39.863569568842649" lon="3.180362284183502">
        <ele>289.49000000000001</ele>
        <time>2014-09-02T11:07:30Z</time>
      </trkpt>
      <trkpt lat="39.863550374284387" lon="3.180324397981167">
        <ele>290.45999999999998</ele>
        <time>2014-09-02T11:07:32Z</time>
      </trkpt>
      <trkpt lat="39.863541657105088" lon="3.180290870368481">
        <ele>290.45999999999998</ele>
        <time>2014-09-02T11:07:34Z</time>
      </trkpt>
      <trkpt lat="39.863556241616607" lon="3.18023219704628">
        <ele>288.52999999999997</ele>
        <time>2014-09-02T11:07:40Z</time>
      </trkpt>
      <trkpt lat="39.863568646833301" lon="3.18020386621356">
        <ele>291.42000000000002</ele>
        <time>2014-09-02T11:07:42Z</time>
      </trkpt>
      <trkpt lat="39.863574849441648" lon="3.180189030244947">
        <ele>289.00999999999999</ele>
        <time>2014-09-02T11:07:43Z</time>
      </trkpt>
      <trkpt lat="39.863579208031297" lon="3.180140918120742">
        <ele>290.45999999999998</ele>
        <time>2014-09-02T11:07:47Z</time>
      </trkpt>
      <trkpt lat="39.863578705117106" lon="3.180123567581177">
        <ele>292.38</ele>
        <time>2014-09-02T11:07:48Z</time>
      </trkpt>
      <trkpt lat="39.863572753965855" lon="3.180089453235269">
        <ele>290.94</ele>
        <time>2014-09-02T11:07:50Z</time>
      </trkpt>
      <trkpt lat="39.863575100898743" lon="3.180047795176506">
        <ele>288.05000000000001</ele>
        <time>2014-09-02T11:07:53Z</time>
      </trkpt>
      <trkpt lat="39.863575100898743" lon="3.180047795176506">
        <ele>289.49000000000001</ele>
        <time>2014-09-02T11:07:55Z</time>
      </trkpt>
      <trkpt lat="39.863576525822282" lon="3.180038826540113">
        <ele>284.20999999999998</ele>
        <time>2014-09-02T11:07:58Z</time>
      </trkpt>
      <trkpt lat="39.863581638783216" lon="3.180026840418577">
        <ele>289.49000000000001</ele>
        <time>2014-09-02T11:07:59Z</time>
      </trkpt>
      <trkpt lat="39.863587338477373" lon="3.179997419938445">
        <ele>291.42000000000002</ele>
        <time>2014-09-02T11:08:01Z</time>
      </trkpt>
      <trkpt lat="39.863600833341479" lon="3.179958947002888">
        <ele>287.56999999999999</ele>
        <time>2014-09-02T11:08:03Z</time>
      </trkpt>
      <trkpt lat="39.863607957959175" lon="3.179940925911069">
        <ele>287.56999999999999</ele>
        <time>2014-09-02T11:08:04Z</time>
      </trkpt>
      <trkpt lat="39.863613741472363" lon="3.17992826923728">
        <ele>281.80000000000001</ele>
        <time>2014-09-02T11:08:05Z</time>
      </trkpt>
      <trkpt lat="39.863619189709425" lon="3.179918713867664">
        <ele>285.64999999999998</ele>
        <time>2014-09-02T11:08:06Z</time>
      </trkpt>
      <trkpt lat="39.863625895231962" lon="3.179906560108066">
        <ele>289.00999999999999</ele>
        <time>2014-09-02T11:08:07Z</time>
      </trkpt>
      <trkpt lat="39.863643329590559" lon="3.179845623672009">
        <ele>287.56999999999999</ele>
        <time>2014-09-02T11:08:11Z</time>
      </trkpt>
      <trkpt lat="39.863650621846318" lon="3.179826010018587">
        <ele>284.20999999999998</ele>
        <time>2014-09-02T11:08:13Z</time>
      </trkpt>
      <trkpt lat="39.863656908273697" lon="3.179823411628604">
        <ele>284.69</ele>
        <time>2014-09-02T11:08:14Z</time>
      </trkpt>
      <trkpt lat="39.863664032891393" lon="3.179818131029606">
        <ele>285.64999999999998</ele>
        <time>2014-09-02T11:08:15Z</time>
      </trkpt>
      <trkpt lat="39.863657578825951" lon="3.179787285625935">
        <ele>287.08999999999997</ele>
        <time>2014-09-02T11:08:17Z</time>
      </trkpt>
      <trkpt lat="39.863667888566852" lon="3.179796757176518">
        <ele>282.27999999999997</ele>
        <time>2014-09-02T11:08:19Z</time>
      </trkpt>
      <trkpt lat="39.863679120317101" lon="3.179815951734781">
        <ele>283.73000000000002</ele>
        <time>2014-09-02T11:08:21Z</time>
      </trkpt>
      <trkpt lat="39.86368834041059" lon="3.179840678349137">
        <ele>290.45999999999998</ele>
        <time>2014-09-02T11:08:23Z</time>
      </trkpt>
      <trkpt lat="39.863694123923779" lon="3.179851993918419">
        <ele>288.52999999999997</ele>
        <time>2014-09-02T11:08:24Z</time>
      </trkpt>
      <trkpt lat="39.863742738962173" lon="3.17985936999321">
        <ele>282.76999999999998</ele>
        <time>2014-09-02T11:08:28Z</time>
      </trkpt>
      <trkpt lat="39.863767884671688" lon="3.179832380264998">
        <ele>285.17000000000002</ele>
        <time>2014-09-02T11:08:37Z</time>
      </trkpt>
      <trkpt lat="39.863761095330119" lon="3.179773623123765">
        <ele>281.80000000000001</ele>
        <time>2014-09-02T11:08:40Z</time>
      </trkpt>
      <trkpt lat="39.863769058138132" lon="3.179740179330111">
        <ele>278.92000000000002</ele>
        <time>2014-09-02T11:08:42Z</time>
      </trkpt>
      <trkpt lat="39.863758832216263" lon="3.179688965901732">
        <ele>286.13</ele>
        <time>2014-09-02T11:08:46Z</time>
      </trkpt>
      <trkpt lat="39.863759335130453" lon="3.179676812142134">
        <ele>285.64999999999998</ele>
        <time>2014-09-02T11:08:47Z</time>
      </trkpt>
      <trkpt lat="39.8637621011585" lon="3.179665748029947">
        <ele>281.80000000000001</ele>
        <time>2014-09-02T11:08:48Z</time>
      </trkpt>
      <trkpt lat="39.863742738962173" lon="3.179601794108748">
        <ele>276.51999999999998</ele>
        <time>2014-09-02T11:08:51Z</time>
      </trkpt>
      <trkpt lat="39.863739721477032" lon="3.17959014326334">
        <ele>280.36000000000001</ele>
        <time>2014-09-02T11:08:52Z</time>
      </trkpt>
      <trkpt lat="39.863737793639302" lon="3.1795784085989">
        <ele>285.64999999999998</ele>
        <time>2014-09-02T11:08:53Z</time>
      </trkpt>
      <trkpt lat="39.863740056753159" lon="3.179576983675361">
        <ele>283.25</ele>
        <time>2014-09-02T11:08:54Z</time>
      </trkpt>
      <trkpt lat="39.863737123087049" lon="3.179564494639635">
        <ele>278.44</ele>
        <time>2014-09-02T11:08:56Z</time>
      </trkpt>
      <trkpt lat="39.863737123087049" lon="3.179564494639635">
        <ele>280.36000000000001</ele>
        <time>2014-09-02T11:08:57Z</time>
      </trkpt>
      <trkpt lat="39.863751623779535" lon="3.179564075544477">
        <ele>278.44</ele>
        <time>2014-09-02T11:08:59Z</time>
      </trkpt>
      <trkpt lat="39.863770483061671" lon="3.179558459669352">
        <ele>283.73000000000002</ele>
        <time>2014-09-02T11:09:01Z</time>
      </trkpt>
      <trkpt lat="39.86377333290875" lon="3.179555693641305">
        <ele>279.88</ele>
        <time>2014-09-02T11:09:02Z</time>
      </trkpt>
      <trkpt lat="39.863787498325109" lon="3.179551586508751">
        <ele>282.76999999999998</ele>
        <time>2014-09-02T11:09:04Z</time>
      </trkpt>
      <trkpt lat="39.863835191354156" lon="3.179532140493393">
        <ele>277.48000000000002</ele>
        <time>2014-09-02T11:09:07Z</time>
      </trkpt>
      <trkpt lat="39.863847345113754" lon="3.179529793560505">
        <ele>271.23000000000002</ele>
        <time>2014-09-02T11:09:08Z</time>
      </trkpt>
      <trkpt lat="39.863888919353485" lon="3.179520992562175">
        <ele>282.27999999999997</ele>
        <time>2014-09-02T11:09:11Z</time>
      </trkpt>
      <trkpt lat="39.863902078941464" lon="3.179513784125447">
        <ele>283.25</ele>
        <time>2014-09-02T11:09:12Z</time>
      </trkpt>
      <trkpt lat="39.863942228257656" lon="3.179485620930791">
        <ele>276.51999999999998</ele>
        <time>2014-09-02T11:09:15Z</time>
      </trkpt>
      <trkpt lat="39.863944239914417" lon="3.179454356431961">
        <ele>275.56</ele>
        <time>2014-09-02T11:09:17Z</time>
      </trkpt>
      <trkpt lat="39.863944239914417" lon="3.179454356431961">
        <ele>277</ele>
        <time>2014-09-02T11:09:19Z</time>
      </trkpt>
      <trkpt lat="39.86394390463829" lon="3.179446142166853">
        <ele>271.23000000000002</ele>
        <time>2014-09-02T11:09:23Z</time>
      </trkpt>
      <trkpt lat="39.863939043134451" lon="3.179434407502413">
        <ele>275.06999999999999</ele>
        <time>2014-09-02T11:09:24Z</time>
      </trkpt>
      <trkpt lat="39.863932253792882" lon="3.179417224600911">
        <ele>289.00999999999999</ele>
        <time>2014-09-02T11:09:25Z</time>
      </trkpt>
      <trkpt lat="39.863927392289042" lon="3.179402640089393">
        <ele>268.35000000000002</ele>
        <time>2014-09-02T11:09:26Z</time>
      </trkpt>
      <trkpt lat="39.863926637917757" lon="3.17939568310976">
        <ele>281.80000000000001</ele>
        <time>2014-09-02T11:09:27Z</time>
      </trkpt>
      <trkpt lat="39.863922279328108" lon="3.17938344553113">
        <ele>278.44</ele>
        <time>2014-09-02T11:09:28Z</time>
      </trkpt>
      <trkpt lat="39.863920770585537" lon="3.179376237094402">
        <ele>273.14999999999998</ele>
        <time>2014-09-02T11:09:29Z</time>
      </trkpt>
      <trkpt lat="39.863920351490378" lon="3.179373471066356">
        <ele>279.39999999999998</ele>
        <time>2014-09-02T11:09:30Z</time>
      </trkpt>
      <trkpt lat="39.863914148882031" lon="3.179358299821615">
        <ele>268.35000000000002</ele>
        <time>2014-09-02T11:09:32Z</time>
      </trkpt>
      <trkpt lat="39.863899061456323" lon="3.17934044636786">
        <ele>279.39999999999998</ele>
        <time>2014-09-02T11:09:34Z</time>
      </trkpt>
      <trkpt lat="39.863894702866673" lon="3.179334327578545">
        <ele>270.75</ele>
        <time>2014-09-02T11:09:35Z</time>
      </trkpt>
      <trkpt lat="39.863894116133451" lon="3.179325275123119">
        <ele>280.83999999999997</ele>
        <time>2014-09-02T11:09:36Z</time>
      </trkpt>
      <trkpt lat="39.863894786685705" lon="3.179312953725457">
        <ele>285.64999999999998</ele>
        <time>2014-09-02T11:09:37Z</time>
      </trkpt>
      <trkpt lat="39.863899732008576" lon="3.17931110970676">
        <ele>277.48000000000002</ele>
        <time>2014-09-02T11:09:38Z</time>
      </trkpt>
      <trkpt lat="39.863902917131782" lon="3.179302895441651">
        <ele>280.83999999999997</ele>
        <time>2014-09-02T11:09:39Z</time>
      </trkpt>
      <trkpt lat="39.863905180245638" lon="3.179293172433972">
        <ele>274.11000000000001</ele>
        <time>2014-09-02T11:09:40Z</time>
      </trkpt>
      <trkpt lat="39.863907862454653" lon="3.179265847429633">
        <ele>290.94</ele>
        <time>2014-09-02T11:09:42Z</time>
      </trkpt>
      <trkpt lat="39.863910879939795" lon="3.179254615679383">
        <ele>277.48000000000002</ele>
        <time>2014-09-02T11:09:43Z</time>
      </trkpt>
      <trkpt lat="39.863912807777524" lon="3.179232655093074">
        <ele>281.80000000000001</ele>
        <time>2014-09-02T11:09:45Z</time>
      </trkpt>
      <trkpt lat="39.863927727565169" lon="3.179206755012274">
        <ele>282.76999999999998</ele>
        <time>2014-09-02T11:09:48Z</time>
      </trkpt>
      <trkpt lat="39.863902581855655" lon="3.179164594039321">
        <ele>276.51999999999998</ele>
        <time>2014-09-02T11:09:50Z</time>
      </trkpt>
      <trkpt lat="39.863900234922767" lon="3.179154116660357">
        <ele>282.76999999999998</ele>
        <time>2014-09-02T11:09:51Z</time>
      </trkpt>
      <trkpt lat="39.863891936838627" lon="3.179131988435984">
        <ele>277.48000000000002</ele>
        <time>2014-09-02T11:09:53Z</time>
      </trkpt>
      <trkpt lat="39.863883974030614" lon="3.1791225168854">
        <ele>285.64999999999998</ele>
        <time>2014-09-02T11:09:54Z</time>
      </trkpt>
      <trkpt lat="39.86387986689806" lon="3.179120337590575">
        <ele>279.88</ele>
        <time>2014-09-02T11:09:55Z</time>
      </trkpt>
      <trkpt lat="39.86387986689806" lon="3.179120337590575">
        <ele>283.25</ele>
        <time>2014-09-02T11:09:56Z</time>
      </trkpt>
      <trkpt lat="39.863897133618593" lon="3.179149422794581">
        <ele>278.92000000000002</ele>
        <time>2014-09-02T11:10:14Z</time>
      </trkpt>
      <trkpt lat="39.863909706473351" lon="3.179163839668036">
        <ele>284.20999999999998</ele>
        <time>2014-09-02T11:10:15Z</time>
      </trkpt>
      <trkpt lat="39.863924710080028" lon="3.179161995649338">
        <ele>279.88</ele>
        <time>2014-09-02T11:10:17Z</time>
      </trkpt>
      <trkpt lat="39.863907191902399" lon="3.179117320105434">
        <ele>287.56999999999999</ele>
        <time>2014-09-02T11:10:19Z</time>
      </trkpt>
      <trkpt lat="39.863918507471681" lon="3.179118158295751">
        <ele>276.04000000000002</ele>
        <time>2014-09-02T11:10:20Z</time>
      </trkpt>
      <trkpt lat="39.863918842747808" lon="3.179106842726469">
        <ele>280.83999999999997</ele>
        <time>2014-09-02T11:10:21Z</time>
      </trkpt>
      <trkpt lat="39.86392286606133" lon="3.179101226851344">
        <ele>287.08999999999997</ele>
        <time>2014-09-02T11:10:22Z</time>
      </trkpt>
      <trkpt lat="39.863933762535453" lon="3.179089073091745">
        <ele>277.95999999999998</ele>
        <time>2014-09-02T11:10:24Z</time>
      </trkpt>
      <trkpt lat="39.863930745050311" lon="3.179072728380561">
        <ele>284.20999999999998</ele>
        <time>2014-09-02T11:10:25Z</time>
      </trkpt>
      <trkpt lat="39.863936780020595" lon="3.179057389497757">
        <ele>281.80000000000001</ele>
        <time>2014-09-02T11:10:27Z</time>
      </trkpt>
      <trkpt lat="39.863941809162498" lon="3.179025202989578">
        <ele>278.44</ele>
        <time>2014-09-02T11:10:29Z</time>
      </trkpt>
      <trkpt lat="39.86394633539021" lon="3.179019084200263">
        <ele>279.39999999999998</ele>
        <time>2014-09-02T11:10:30Z</time>
      </trkpt>
      <trkpt lat="39.863951867446303" lon="3.178998213261366">
        <ele>286.13</ele>
        <time>2014-09-02T11:10:32Z</time>
      </trkpt>
      <trkpt lat="39.863948179408908" lon="3.178981533274055">
        <ele>279.88</ele>
        <time>2014-09-02T11:10:33Z</time>
      </trkpt>
      <trkpt lat="39.86395119689405" lon="3.178967032581568">
        <ele>283.73000000000002</ele>
        <time>2014-09-02T11:10:34Z</time>
      </trkpt>
      <trkpt lat="39.863955304026604" lon="3.178949514403939">
        <ele>289.49000000000001</ele>
        <time>2014-09-02T11:10:35Z</time>
      </trkpt>
      <trkpt lat="39.863964272662997" lon="3.178941551595926">
        <ele>282.27999999999997</ele>
        <time>2014-09-02T11:10:36Z</time>
      </trkpt>
      <trkpt lat="39.86398053355515" lon="3.178925458341837">
        <ele>288.05000000000001</ele>
        <time>2014-09-02T11:10:38Z</time>
      </trkpt>
      <trkpt lat="39.864004841074347" lon="3.178919423371553">
        <ele>277</ele>
        <time>2014-09-02T11:10:40Z</time>
      </trkpt>
      <trkpt lat="39.864024957641959" lon="3.178907269611955">
        <ele>291.42000000000002</ele>
        <time>2014-09-02T11:10:42Z</time>
      </trkpt>
      <trkpt lat="39.864042559638619" lon="3.178901402279735">
        <ele>285.17000000000002</ele>
        <time>2014-09-02T11:10:43Z</time>
      </trkpt>
      <trkpt lat="39.86405236646533" lon="3.178889835253358">
        <ele>279.88</ele>
        <time>2014-09-02T11:10:44Z</time>
      </trkpt>
      <trkpt lat="39.864053875207901" lon="3.178878016769886">
        <ele>279.88</ele>
        <time>2014-09-02T11:10:45Z</time>
      </trkpt>
      <trkpt lat="39.86405722796917" lon="3.178863683715463">
        <ele>289.49000000000001</ele>
        <time>2014-09-02T11:10:46Z</time>
      </trkpt>
      <trkpt lat="39.864069046452641" lon="3.178843148052692">
        <ele>283.25</ele>
        <time>2014-09-02T11:10:48Z</time>
      </trkpt>
      <trkpt lat="39.864076841622591" lon="3.17883518524468">
        <ele>279.88</ele>
        <time>2014-09-02T11:10:49Z</time>
      </trkpt>
      <trkpt lat="39.864078350365162" lon="3.17881959490478">
        <ele>287.56999999999999</ele>
        <time>2014-09-02T11:10:50Z</time>
      </trkpt>
      <trkpt lat="39.864074913784862" lon="3.178799143061042">
        <ele>293.33999999999997</ele>
        <time>2014-09-02T11:10:51Z</time>
      </trkpt>
      <trkpt lat="39.864081619307399" lon="3.178789839148521">
        <ele>285.64999999999998</ele>
        <time>2014-09-02T11:10:52Z</time>
      </trkpt>
      <trkpt lat="39.864077009260654" lon="3.178776763379574">
        <ele>280.36000000000001</ele>
        <time>2014-09-02T11:10:53Z</time>
      </trkpt>
      <trkpt lat="39.86407876946032" lon="3.178772991523147">
        <ele>283.73000000000002</ele>
        <time>2014-09-02T11:10:54Z</time>
      </trkpt>
      <trkpt lat="39.864076003432274" lon="3.178748600184917">
        <ele>287.08999999999997</ele>
        <time>2014-09-02T11:10:56Z</time>
      </trkpt>
      <trkpt lat="39.864090587943792" lon="3.178750276565552">
        <ele>282.76999999999998</ele>
        <time>2014-09-02T11:10:57Z</time>
      </trkpt>
      <trkpt lat="39.864106345921755" lon="3.178750444203615">
        <ele>286.13</ele>
        <time>2014-09-02T11:10:58Z</time>
      </trkpt>
      <trkpt lat="39.864118499681354" lon="3.17874968983233">
        <ele>292.86000000000001</ele>
        <time>2014-09-02T11:10:59Z</time>
      </trkpt>
      <trkpt lat="39.864132246002555" lon="3.17873015999794">
        <ele>282.27999999999997</ele>
        <time>2014-09-02T11:11:01Z</time>
      </trkpt>
      <trkpt lat="39.864135095849633" lon="3.178722616285086">
        <ele>283.73000000000002</ele>
        <time>2014-09-02T11:11:02Z</time>
      </trkpt>
      <trkpt lat="39.864135095849633" lon="3.178722616285086">
        <ele>291.42000000000002</ele>
        <time>2014-09-02T11:11:03Z</time>
      </trkpt>
      <trkpt lat="39.864135263487697" lon="3.178722029551864">
        <ele>288.52999999999997</ele>
        <time>2014-09-02T11:11:04Z</time>
      </trkpt>
      <trkpt lat="39.864133754745126" lon="3.178699901327491">
        <ele>282.27999999999997</ele>
        <time>2014-09-02T11:11:16Z</time>
      </trkpt>
      <trkpt lat="39.864137526601553" lon="3.178697722032666">
        <ele>289.00999999999999</ele>
        <time>2014-09-02T11:11:17Z</time>
      </trkpt>
      <trkpt lat="39.86414615996182" lon="3.178696548566222">
        <ele>285.17000000000002</ele>
        <time>2014-09-02T11:11:19Z</time>
      </trkpt>
      <trkpt lat="39.864196199923754" lon="3.178686322644353">
        <ele>278.92000000000002</ele>
        <time>2014-09-02T11:11:22Z</time>
      </trkpt>
      <trkpt lat="39.864196954295039" lon="3.178682718425989">
        <ele>289.00999999999999</ele>
        <time>2014-09-02T11:11:23Z</time>
      </trkpt>
      <trkpt lat="39.864203156903386" lon="3.178674839437008">
        <ele>294.77999999999997</ele>
        <time>2014-09-02T11:11:24Z</time>
      </trkpt>
      <trkpt lat="39.864207180216908" lon="3.178664781153202">
        <ele>287.08999999999997</ele>
        <time>2014-09-02T11:11:25Z</time>
      </trkpt>
      <trkpt lat="39.864211874082685" lon="3.178659249097109">
        <ele>284.69</ele>
        <time>2014-09-02T11:11:26Z</time>
      </trkpt>
      <trkpt lat="39.864257806912065" lon="3.178602084517479">
        <ele>291.42000000000002</ele>
        <time>2014-09-02T11:11:35Z</time>
      </trkpt>
      <trkpt lat="39.864322850480676" lon="3.178571071475744">
        <ele>292.38</ele>
        <time>2014-09-02T11:11:45Z</time>
      </trkpt>
      <trkpt lat="39.864347577095032" lon="3.17852882668376">
        <ele>293.33999999999997</ele>
        <time>2014-09-02T11:11:50Z</time>
      </trkpt>
      <trkpt lat="39.864385966211557" lon="3.178522204980254">
        <ele>293.81999999999999</ele>
        <time>2014-09-02T11:11:55Z</time>
      </trkpt>
      <trkpt lat="39.864424522966146" lon="3.178487755358219">
        <ele>296.69999999999999</ele>
        <time>2014-09-02T11:12:02Z</time>
      </trkpt>
      <trkpt lat="39.864439778029919" lon="3.178448444232345">
        <ele>297.18000000000001</ele>
        <time>2014-09-02T11:12:07Z</time>
      </trkpt>
      <trkpt lat="39.864449417218566" lon="3.178422208875418">
        <ele>297.67000000000002</ele>
        <time>2014-09-02T11:12:09Z</time>
      </trkpt>
      <trkpt lat="39.864464839920402" lon="3.178403517231345">
        <ele>297.18000000000001</ele>
        <time>2014-09-02T11:12:12Z</time>
      </trkpt>
      <trkpt lat="39.864524938166142" lon="3.178364206105471">
        <ele>301.02999999999997</ele>
        <time>2014-09-02T11:12:23Z</time>
      </trkpt>
      <trkpt lat="39.864585706964135" lon="3.17835146561265">
        <ele>303.43000000000001</ele>
        <time>2014-09-02T11:12:32Z</time>
      </trkpt>
      <trkpt lat="39.864593585953116" lon="3.17830896936357">
        <ele>303.91000000000003</ele>
        <time>2014-09-02T11:12:40Z</time>
      </trkpt>
      <trkpt lat="39.864594088867307" lon="3.178284829482436">
        <ele>304.38999999999999</ele>
        <time>2014-09-02T11:12:42Z</time>
      </trkpt>
      <trkpt lat="39.864600878208876" lon="3.178251637145877">
        <ele>304.88</ele>
        <time>2014-09-02T11:12:45Z</time>
      </trkpt>
      <trkpt lat="39.864604901522398" lon="3.178255241364241">
        <ele>304.88</ele>
        <time>2014-09-02T11:12:48Z</time>
      </trkpt>
      <trkpt lat="39.86462015658617" lon="3.178301006555557">
        <ele>306.31999999999999</ele>
        <time>2014-09-02T11:12:55Z</time>
      </trkpt>
      <trkpt lat="39.86466801725328" lon="3.178317351266742">
        <ele>307.75999999999999</ele>
        <time>2014-09-02T11:13:05Z</time>
      </trkpt>
      <trkpt lat="39.864672292023897" lon="3.178314585238695">
        <ele>308.72000000000003</ele>
        <time>2014-09-02T11:13:08Z</time>
      </trkpt>
      <trkpt lat="39.864699449390173" lon="3.17821123637259">
        <ele>312.56999999999999</ele>
        <time>2014-09-02T11:13:18Z</time>
      </trkpt>
      <trkpt lat="39.864703640341759" lon="3.178205117583275">
        <ele>310.63999999999999</ele>
        <time>2014-09-02T11:13:19Z</time>
      </trkpt>
      <trkpt lat="39.864700539037585" lon="3.17820779979229">
        <ele>307.75999999999999</ele>
        <time>2014-09-02T11:13:22Z</time>
      </trkpt>
      <trkpt lat="39.864702047780156" lon="3.178207967430353">
        <ele>311.12</ele>
        <time>2014-09-02T11:13:23Z</time>
      </trkpt>
      <trkpt lat="39.864708418026567" lon="3.178191371262074">
        <ele>304.88</ele>
        <time>2014-09-02T11:13:25Z</time>
      </trkpt>
      <trkpt lat="39.864712441340089" lon="3.178178630769253">
        <ele>313.52999999999997</ele>
        <time>2014-09-02T11:13:26Z</time>
      </trkpt>
      <trkpt lat="39.864716632291675" lon="3.1781658064574">
        <ele>312.08999999999997</ele>
        <time>2014-09-02T11:13:29Z</time>
      </trkpt>
      <trkpt lat="39.864719649776816" lon="3.178146695718169">
        <ele>313.05000000000001</ele>
        <time>2014-09-02T11:13:40Z</time>
      </trkpt>
      <trkpt lat="39.864756362512708" lon="3.178101601079106">
        <ele>314.00999999999999</ele>
        <time>2014-09-02T11:13:50Z</time>
      </trkpt>
      <trkpt lat="39.864778574556112" lon="3.178136721253395">
        <ele>315.93000000000001</ele>
        <time>2014-09-02T11:14:00Z</time>
      </trkpt>
      <trkpt lat="39.864805648103356" lon="3.178180977702141">
        <ele>316.88999999999999</ele>
        <time>2014-09-02T11:14:06Z</time>
      </trkpt>
      <trkpt lat="39.864838505163789" lon="3.178226659074426">
        <ele>315.93000000000001</ele>
        <time>2014-09-02T11:14:10Z</time>
      </trkpt>
      <trkpt lat="39.864859795197845" lon="3.178235879167914">
        <ele>316.88999999999999</ele>
        <time>2014-09-02T11:14:13Z</time>
      </trkpt>
      <trkpt lat="39.864976806566119" lon="3.178264210000634">
        <ele>317.85000000000002</ele>
        <time>2014-09-02T11:14:24Z</time>
      </trkpt>
      <trkpt lat="39.864982087165117" lon="3.178260857239366">
        <ele>319.30000000000001</ele>
        <time>2014-09-02T11:14:28Z</time>
      </trkpt>
      <trkpt lat="39.864982338622212" lon="3.178229425102472">
        <ele>319.77999999999997</ele>
        <time>2014-09-02T11:14:34Z</time>
      </trkpt>
      <trkpt lat="39.865033132955432" lon="3.178242919966579">
        <ele>320.25999999999999</ele>
        <time>2014-09-02T11:14:40Z</time>
      </trkpt>
      <trkpt lat="39.865064145997167" lon="3.178245602175593">
        <ele>321.69999999999999</ele>
        <time>2014-09-02T11:14:45Z</time>
      </trkpt>
      <trkpt lat="39.865095326676965" lon="3.178209392353892">
        <ele>322.66000000000003</ele>
        <time>2014-09-02T11:14:50Z</time>
      </trkpt>
      <trkpt lat="39.865136230364442" lon="3.178115850314498">
        <ele>325.54000000000002</ele>
        <time>2014-09-02T11:15:01Z</time>
      </trkpt>
      <trkpt lat="39.865159783512354" lon="3.178113587200642">
        <ele>325.54000000000002</ele>
        <time>2014-09-02T11:15:03Z</time>
      </trkpt>
      <trkpt lat="39.865190545096993" lon="3.178114593029022">
        <ele>325.06</ele>
        <time>2014-09-02T11:15:06Z</time>
      </trkpt>
      <trkpt lat="39.865240417420864" lon="3.178038988262415">
        <ele>326.5</ele>
        <time>2014-09-02T11:15:16Z</time>
      </trkpt>
      <trkpt lat="39.865243015810847" lon="3.178036976605654">
        <ele>326.99000000000001</ele>
        <time>2014-09-02T11:15:33Z</time>
      </trkpt>
      <trkpt lat="39.865229018032551" lon="3.178007053211331">
        <ele>326.99000000000001</ele>
        <time>2014-09-02T11:15:44Z</time>
      </trkpt>
      <trkpt lat="39.865211918950081" lon="3.177982829511166">
        <ele>327.94999999999999</ele>
        <time>2014-09-02T11:15:46Z</time>
      </trkpt>
      <trkpt lat="39.865175625309348" lon="3.177965981885791">
        <ele>328.43000000000001</ele>
        <time>2014-09-02T11:15:50Z</time>
      </trkpt>
      <trkpt lat="39.865147462114692" lon="3.177959360182285">
        <ele>328.91000000000003</ele>
        <time>2014-09-02T11:15:53Z</time>
      </trkpt>
      <trkpt lat="39.865097925066948" lon="3.177956258878112">
        <ele>329.87</ele>
        <time>2014-09-02T11:15:59Z</time>
      </trkpt>
      <trkpt lat="39.865079987794161" lon="3.177936980500817">
        <ele>329.87</ele>
        <time>2014-09-02T11:16:02Z</time>
      </trkpt>
      <trkpt lat="39.865075293928385" lon="3.17790630273521">
        <ele>330.82999999999998</ele>
        <time>2014-09-02T11:16:06Z</time>
      </trkpt>
      <trkpt lat="39.865065738558769" lon="3.177874535322189">
        <ele>330.82999999999998</ele>
        <time>2014-09-02T11:16:09Z</time>
      </trkpt>
      <trkpt lat="39.865061044692993" lon="3.177819130942226">
        <ele>331.79000000000002</ele>
        <time>2014-09-02T11:16:15Z</time>
      </trkpt>
      <trkpt lat="39.865063307806849" lon="3.17771284841001">
        <ele>332.26999999999998</ele>
        <time>2014-09-02T11:16:24Z</time>
      </trkpt>
      <trkpt lat="39.865060206502676" lon="3.177602039650083">
        <ele>333.23000000000002</ele>
        <time>2014-09-02T11:16:33Z</time>
      </trkpt>
      <trkpt lat="39.865070348605514" lon="3.177570607513189">
        <ele>332.75</ele>
        <time>2014-09-02T11:16:36Z</time>
      </trkpt>
      <trkpt lat="39.865086274221539" lon="3.17753791809082">
        <ele>333.70999999999998</ele>
        <time>2014-09-02T11:16:39Z</time>
      </trkpt>
      <trkpt lat="39.865099349990487" lon="3.177516125142574">
        <ele>334.19999999999999</ele>
        <time>2014-09-02T11:16:42Z</time>
      </trkpt>
      <trkpt lat="39.86511661671102" lon="3.177484273910523">
        <ele>334.68000000000001</ele>
        <time>2014-09-02T11:16:45Z</time>
      </trkpt>
      <trkpt lat="39.865139164030552" lon="3.177449572831392">
        <ele>336.12</ele>
        <time>2014-09-02T11:16:49Z</time>
      </trkpt>
      <trkpt lat="39.865183336660266" lon="3.177405316382647">
        <ele>338.04000000000002</ele>
        <time>2014-09-02T11:16:59Z</time>
      </trkpt>
      <trkpt lat="39.865218373015523" lon="3.177386038005352">
        <ele>338.51999999999998</ele>
        <time>2014-09-02T11:17:03Z</time>
      </trkpt>
      <trkpt lat="39.865228766575456" lon="3.177372207865119">
        <ele>339</ele>
        <time>2014-09-02T11:17:05Z</time>
      </trkpt>
      <trkpt lat="39.865249134600163" lon="3.177383607253432">
        <ele>339.48000000000002</ele>
        <time>2014-09-02T11:17:08Z</time>
      </trkpt>
      <trkpt lat="39.865263048559427" lon="3.177407830953598">
        <ele>339.48000000000002</ele>
        <time>2014-09-02T11:17:22Z</time>
      </trkpt>
      <trkpt lat="39.865265814587474" lon="3.177410094067454">
        <ele>339.95999999999998</ele>
        <time>2014-09-02T11:17:41Z</time>
      </trkpt>
      <trkpt lat="39.865251146256924" lon="3.177402131259441">
        <ele>339.48000000000002</ele>
        <time>2014-09-02T11:18:04Z</time>
      </trkpt>
      <trkpt lat="39.865245195105672" lon="3.177398275583983">
        <ele>340.44</ele>
        <time>2014-09-02T11:18:21Z</time>
      </trkpt>
      <trkpt lat="39.865229856222868" lon="3.17736734636128">
        <ele>339</ele>
        <time>2014-09-02T11:18:36Z</time>
      </trkpt>
      <trkpt lat="39.865232622250915" lon="3.177290065214038">
        <ele>339.95999999999998</ele>
        <time>2014-09-02T11:18:42Z</time>
      </trkpt>
      <trkpt lat="39.865229772403836" lon="3.177260393276811">
        <ele>336.60000000000002</ele>
        <time>2014-09-02T11:18:45Z</time>
      </trkpt>
      <trkpt lat="39.865232286974788" lon="3.177252011373639">
        <ele>341.88999999999999</ele>
        <time>2014-09-02T11:18:46Z</time>
      </trkpt>
      <trkpt lat="39.865249134600163" lon="3.177229715511203">
        <ele>341.88999999999999</ele>
        <time>2014-09-02T11:18:50Z</time>
      </trkpt>
      <trkpt lat="39.865257935598493" lon="3.177173137664795">
        <ele>341.88999999999999</ele>
        <time>2014-09-02T11:18:55Z</time>
      </trkpt>
      <trkpt lat="39.86529297195375" lon="3.177068363875151">
        <ele>343.81</ele>
        <time>2014-09-02T11:19:07Z</time>
      </trkpt>
      <trkpt lat="39.865294648334384" lon="3.177064675837755">
        <ele>344.29000000000002</ele>
        <time>2014-09-02T11:19:08Z</time>
      </trkpt>
      <trkpt lat="39.865319291129708" lon="3.177007343620062">
        <ele>344.76999999999998</ele>
        <time>2014-09-02T11:19:15Z</time>
      </trkpt>
      <trkpt lat="39.865326499566436" lon="3.176933331415057">
        <ele>345.73000000000002</ele>
        <time>2014-09-02T11:19:22Z</time>
      </trkpt>
      <trkpt lat="39.865335887297988" lon="3.176907598972321">
        <ele>347.17000000000002</ele>
        <time>2014-09-02T11:19:24Z</time>
      </trkpt>
      <trkpt lat="39.86533597111702" lon="3.176866779103875">
        <ele>347.17000000000002</ele>
        <time>2014-09-02T11:19:27Z</time>
      </trkpt>
      <trkpt lat="39.865383496508002" lon="3.176822438836098">
        <ele>348.62</ele>
        <time>2014-09-02T11:19:35Z</time>
      </trkpt>
      <trkpt lat="39.865402271971107" lon="3.176798969507217">
        <ele>349.10000000000002</ele>
        <time>2014-09-02T11:19:38Z</time>
      </trkpt>
      <trkpt lat="39.865404283627868" lon="3.176777008920908">
        <ele>348.62</ele>
        <time>2014-09-02T11:19:41Z</time>
      </trkpt>
      <trkpt lat="39.865403948351741" lon="3.176716659218073">
        <ele>349.10000000000002</ele>
        <time>2014-09-02T11:19:45Z</time>
      </trkpt>
      <trkpt lat="39.865413084626198" lon="3.176651196554303">
        <ele>347.64999999999998</ele>
        <time>2014-09-02T11:19:52Z</time>
      </trkpt>
      <trkpt lat="39.865435967221856" lon="3.176579028367996">
        <ele>349.57999999999998</ele>
        <time>2014-09-02T11:20:01Z</time>
      </trkpt>
      <trkpt lat="39.865468321368098" lon="3.176508452743292">
        <ele>351.5</ele>
        <time>2014-09-02T11:20:13Z</time>
      </trkpt>
      <trkpt lat="39.865475865080953" lon="3.176510548219085">
        <ele>351.5</ele>
        <time>2014-09-02T11:20:14Z</time>
      </trkpt>
      <trkpt lat="39.865509057417512" lon="3.176494790241122">
        <ele>352.45999999999998</ele>
        <time>2014-09-02T11:20:18Z</time>
      </trkpt>
      <trkpt lat="39.865515343844891" lon="3.17648196592927">
        <ele>351.98000000000002</ele>
        <time>2014-09-02T11:20:21Z</time>
      </trkpt>
      <trkpt lat="39.865585835650563" lon="3.176449025049806">
        <ele>352.45999999999998</ele>
        <time>2014-09-02T11:20:29Z</time>
      </trkpt>
      <trkpt lat="39.86562279984355" lon="3.176413318142295">
        <ele>355.33999999999997</ele>
        <time>2014-09-02T11:20:40Z</time>
      </trkpt>
      <trkpt lat="39.865635456517339" lon="3.176402421668172">
        <ele>354.38</ele>
        <time>2014-09-02T11:20:56Z</time>
      </trkpt>
      <trkpt lat="39.865635624155402" lon="3.176403008401394">
        <ele>354.38</ele>
        <time>2014-09-02T11:21:16Z</time>
      </trkpt>
      <trkpt lat="39.865631517022848" lon="3.176365960389376">
        <ele>356.31</ele>
        <time>2014-09-02T11:21:35Z</time>
      </trkpt>
      <trkpt lat="39.865618608891964" lon="3.176271663978696">
        <ele>357.26999999999998</ele>
        <time>2014-09-02T11:21:44Z</time>
      </trkpt>
      <trkpt lat="39.865618357434869" lon="3.176250960677862">
        <ele>357.75</ele>
        <time>2014-09-02T11:21:48Z</time>
      </trkpt>
      <trkpt lat="39.865622213110328" lon="3.176237130537629">
        <ele>357.26999999999998</ele>
        <time>2014-09-02T11:21:51Z</time>
      </trkpt>
      <trkpt lat="39.865637216717005" lon="3.176231179386377">
        <ele>356.79000000000002</ele>
        <time>2014-09-02T11:21:53Z</time>
      </trkpt>
      <trkpt lat="39.865647358819842" lon="3.176212487742305">
        <ele>357.75</ele>
        <time>2014-09-02T11:21:55Z</time>
      </trkpt>
      <trkpt lat="39.86567510291934" lon="3.176223216578364">
        <ele>357.75</ele>
        <time>2014-09-02T11:21:59Z</time>
      </trkpt>
      <trkpt lat="39.865672755986452" lon="3.176122801378369">
        <ele>360.14999999999998</ele>
        <time>2014-09-02T11:22:10Z</time>
      </trkpt>
      <trkpt lat="39.865666637197137" lon="3.176103606820107">
        <ele>360.14999999999998</ele>
        <time>2014-09-02T11:22:12Z</time>
      </trkpt>
      <trkpt lat="39.86565263941884" lon="3.175995815545321">
        <ele>359.67000000000002</ele>
        <time>2014-09-02T11:22:21Z</time>
      </trkpt>
      <trkpt lat="39.865656411275268" lon="3.17596941255033">
        <ele>360.14999999999998</ele>
        <time>2014-09-02T11:22:24Z</time>
      </trkpt>
      <trkpt lat="39.865668313577771" lon="3.175893556326628">
        <ele>360.14999999999998</ele>
        <time>2014-09-02T11:22:30Z</time>
      </trkpt>
      <trkpt lat="39.865672839805484" lon="3.175858184695244">
        <ele>360.63</ele>
        <time>2014-09-02T11:22:33Z</time>
      </trkpt>
      <trkpt lat="39.865697231143713" lon="3.175772689282894">
        <ele>362.06999999999999</ele>
        <time>2014-09-02T11:22:39Z</time>
      </trkpt>
      <trkpt lat="39.865696392953396" lon="3.175679231062532">
        <ele>363.51999999999998</ele>
        <time>2014-09-02T11:22:50Z</time>
      </trkpt>
      <trkpt lat="39.86570100300014" lon="3.175631705671549">
        <ele>365.92000000000002</ele>
        <time>2014-09-02T11:22:57Z</time>
      </trkpt>
      <trkpt lat="39.865696812048554" lon="3.175586443394423">
        <ele>366.88</ele>
        <time>2014-09-02T11:23:05Z</time>
      </trkpt>
      <trkpt lat="39.865699075162411" lon="3.175489883869886">
        <ele>369.27999999999997</ele>
        <time>2014-09-02T11:23:15Z</time>
      </trkpt>
      <trkpt lat="39.86569756641984" lon="3.175436742603779">
        <ele>368.31999999999999</ele>
        <time>2014-09-02T11:23:23Z</time>
      </trkpt>
      <trkpt lat="39.86569706350565" lon="3.175353677943349">
        <ele>368.80000000000001</ele>
        <time>2014-09-02T11:23:32Z</time>
      </trkpt>
      <trkpt lat="39.865693040192127" lon="3.17531269043684">
        <ele>369.75999999999999</ele>
        <time>2014-09-02T11:23:35Z</time>
      </trkpt>
      <trkpt lat="39.865687508136034" lon="3.175267763435841">
        <ele>370.73000000000002</ele>
        <time>2014-09-02T11:23:39Z</time>
      </trkpt>
      <trkpt lat="39.865703014656901" lon="3.175192158669233">
        <ele>373.13</ele>
        <time>2014-09-02T11:23:50Z</time>
      </trkpt>
      <trkpt lat="39.865697231143713" lon="3.175167432054877">
        <ele>372.64999999999998</ele>
        <time>2014-09-02T11:23:52Z</time>
      </trkpt>
      <trkpt lat="39.865695219486952" lon="3.175141531974077">
        <ele>373.61000000000001</ele>
        <time>2014-09-02T11:23:55Z</time>
      </trkpt>
      <trkpt lat="39.865690693259239" lon="3.175093252211809">
        <ele>374.56999999999999</ele>
        <time>2014-09-02T11:23:59Z</time>
      </trkpt>
      <trkpt lat="39.865692453458905" lon="3.175082020461559">
        <ele>373.61000000000001</ele>
        <time>2014-09-02T11:24:01Z</time>
      </trkpt>
      <trkpt lat="39.86569220200181" lon="3.175002476200461">
        <ele>375.52999999999997</ele>
        <time>2014-09-02T11:24:09Z</time>
      </trkpt>
      <trkpt lat="39.865672420710325" lon="3.174880519509316">
        <ele>377.44999999999999</ele>
        <time>2014-09-02T11:24:19Z</time>
      </trkpt>
      <trkpt lat="39.865671750158072" lon="3.174838861450553">
        <ele>377.94</ele>
        <time>2014-09-02T11:24:24Z</time>
      </trkpt>
      <trkpt lat="39.865661775693297" lon="3.17473073489964">
        <ele>377.94</ele>
        <time>2014-09-02T11:24:34Z</time>
      </trkpt>
      <trkpt lat="39.865651717409492" lon="3.174697794020176">
        <ele>378.89999999999998</ele>
        <time>2014-09-02T11:24:38Z</time>
      </trkpt>
      <trkpt lat="39.865642748773098" lon="3.174658734351397">
        <ele>379.86000000000001</ele>
        <time>2014-09-02T11:24:43Z</time>
      </trkpt>
      <trkpt lat="39.865626906976104" lon="3.174599893391132">
        <ele>380.33999999999997</ele>
        <time>2014-09-02T11:24:49Z</time>
      </trkpt>
      <trkpt lat="39.865625649690628" lon="3.174484139308333">
        <ele>382.25999999999999</ele>
        <time>2014-09-02T11:24:58Z</time>
      </trkpt>
      <trkpt lat="39.86562330275774" lon="3.174450527876616">
        <ele>381.77999999999997</ele>
        <time>2014-09-02T11:25:00Z</time>
      </trkpt>
      <trkpt lat="39.865603437647223" lon="3.174381963908672">
        <ele>383.69999999999999</ele>
        <time>2014-09-02T11:25:04Z</time>
      </trkpt>
      <trkpt lat="39.865585332736373" lon="3.174324799329042">
        <ele>384.18000000000001</ele>
        <time>2014-09-02T11:25:12Z</time>
      </trkpt>
      <trkpt lat="39.865573095157743" lon="3.174297641962767">
        <ele>384.66000000000003</ele>
        <time>2014-09-02T11:25:15Z</time>
      </trkpt>
      <trkpt lat="39.865539986640215" lon="3.17424307577312">
        <ele>386.58999999999997</ele>
        <time>2014-09-02T11:25:22Z</time>
      </trkpt>
      <trkpt lat="39.865578878670931" lon="3.174215415492654">
        <ele>388.02999999999997</ele>
        <time>2014-09-02T11:25:29Z</time>
      </trkpt>
      <trkpt lat="39.865623554214835" lon="3.174223797395825">
        <ele>388.99000000000001</ele>
        <time>2014-09-02T11:25:39Z</time>
      </trkpt>
      <trkpt lat="39.865628834813833" lon="3.174235448241234">
        <ele>389.47000000000003</ele>
        <time>2014-09-02T11:25:44Z</time>
      </trkpt>
      <trkpt lat="39.865648867562413" lon="3.174247015267611">
        <ele>389.94999999999999</ele>
        <time>2014-09-02T11:25:47Z</time>
      </trkpt>
      <trkpt lat="39.865665966644883" lon="3.174257995560765">
        <ele>390.91000000000003</ele>
        <time>2014-09-02T11:25:50Z</time>
      </trkpt>
      <trkpt lat="39.865693207830191" lon="3.174270736053586">
        <ele>390.91000000000003</ele>
        <time>2014-09-02T11:25:53Z</time>
      </trkpt>
      <trkpt lat="39.865723298862576" lon="3.174301665276289">
        <ele>392.36000000000001</ele>
        <time>2014-09-02T11:25:59Z</time>
      </trkpt>
      <trkpt lat="39.865750875324011" lon="3.174339216202498">
        <ele>393.31999999999999</ele>
        <time>2014-09-02T11:26:06Z</time>
      </trkpt>
      <trkpt lat="39.865778116509318" lon="3.174375928938389">
        <ele>393.31999999999999</ele>
        <time>2014-09-02T11:26:09Z</time>
      </trkpt>
      <trkpt lat="39.865814577788115" lon="3.174397554248571">
        <ele>393.80000000000001</ele>
        <time>2014-09-02T11:26:13Z</time>
      </trkpt>
      <trkpt lat="39.865830084308982" lon="3.17444977350533">
        <ele>394.27999999999997</ele>
        <time>2014-09-02T11:26:19Z</time>
      </trkpt>
      <trkpt lat="39.865860007703304" lon="3.174532670527697">
        <ele>394.27999999999997</ele>
        <time>2014-09-02T11:26:25Z</time>
      </trkpt>
      <trkpt lat="39.865888003259897" lon="3.174595618620515">
        <ele>395.24000000000001</ele>
        <time>2014-09-02T11:26:31Z</time>
      </trkpt>
      <trkpt lat="39.865903677418828" lon="3.174617746844888">
        <ele>394.27999999999997</ele>
        <time>2014-09-02T11:26:33Z</time>
      </trkpt>
      <trkpt lat="39.865910550579429" lon="3.174655884504318">
        <ele>395.72000000000003</ele>
        <time>2014-09-02T11:26:36Z</time>
      </trkpt>
      <trkpt lat="39.865913148969412" lon="3.174707936123014">
        <ele>391.38999999999999</ele>
        <time>2014-09-02T11:26:42Z</time>
      </trkpt>
      <trkpt lat="39.865917591378093" lon="3.174722688272595">
        <ele>401.97000000000003</ele>
        <time>2014-09-02T11:26:43Z</time>
      </trkpt>
      <trkpt lat="39.86592186614871" lon="3.174732495099306">
        <ele>394.27999999999997</ele>
        <time>2014-09-02T11:26:44Z</time>
      </trkpt>
      <trkpt lat="39.865931253880262" lon="3.174752192571759">
        <ele>397.63999999999999</ele>
        <time>2014-09-02T11:26:46Z</time>
      </trkpt>
      <trkpt lat="39.86593502573669" lon="3.174756970256567">
        <ele>392.83999999999997</ele>
        <time>2014-09-02T11:26:47Z</time>
      </trkpt>
      <trkpt lat="39.865945754572749" lon="3.174758395180106">
        <ele>403.88999999999999</ele>
        <time>2014-09-02T11:26:49Z</time>
      </trkpt>
      <trkpt lat="39.865950448438525" lon="3.174764094874263">
        <ele>395.72000000000003</ele>
        <time>2014-09-02T11:26:50Z</time>
      </trkpt>
      <trkpt lat="39.865950532257557" lon="3.174773566424847">
        <ele>390.91000000000003</ele>
        <time>2014-09-02T11:26:51Z</time>
      </trkpt>
      <trkpt lat="39.865946928039193" lon="3.174778847023845">
        <ele>398.60000000000002</ele>
        <time>2014-09-02T11:26:52Z</time>
      </trkpt>
      <trkpt lat="39.865945754572749" lon="3.174779685214162">
        <ele>398.12</ele>
        <time>2014-09-02T11:26:53Z</time>
      </trkpt>
      <trkpt lat="39.865946928039193" lon="3.174778847023845">
        <ele>398.12</ele>
        <time>2014-09-02T11:27:05Z</time>
      </trkpt>
      <trkpt lat="39.865946928039193" lon="3.174778847023845">
        <ele>397.16000000000003</ele>
        <time>2014-09-02T11:27:07Z</time>
      </trkpt>
      <trkpt lat="39.865946928039193" lon="3.174766777083278">
        <ele>395.72000000000003</ele>
        <time>2014-09-02T11:27:12Z</time>
      </trkpt>
      <trkpt lat="39.865951789543033" lon="3.174737943336368">
        <ele>400.52999999999997</ele>
        <time>2014-09-02T11:27:15Z</time>
      </trkpt>
      <trkpt lat="39.865951789543033" lon="3.174737943336368">
        <ele>397.16000000000003</ele>
        <time>2014-09-02T11:27:16Z</time>
      </trkpt>
      <trkpt lat="39.865959668532014" lon="3.174720760434866">
        <ele>397.16000000000003</ele>
        <time>2014-09-02T11:27:19Z</time>
      </trkpt>
      <trkpt lat="39.865970648825169" lon="3.174701649695635">
        <ele>401.97000000000003</ele>
        <time>2014-09-02T11:27:21Z</time>
      </trkpt>
      <trkpt lat="39.865973247215152" lon="3.174695866182447">
        <ele>398.12</ele>
        <time>2014-09-02T11:27:22Z</time>
      </trkpt>
      <trkpt lat="39.865977186709642" lon="3.174688741564751">
        <ele>394.27999999999997</ele>
        <time>2014-09-02T11:27:23Z</time>
      </trkpt>
      <trkpt lat="39.865982718765736" lon="3.174680359661579">
        <ele>402.93000000000001</ele>
        <time>2014-09-02T11:27:24Z</time>
      </trkpt>
      <trkpt lat="39.865987161174417" lon="3.174672313034535">
        <ele>396.19999999999999</ele>
        <time>2014-09-02T11:27:25Z</time>
      </trkpt>
      <trkpt lat="39.866004092618823" lon="3.174658315256238">
        <ele>400.52999999999997</ele>
        <time>2014-09-02T11:27:27Z</time>
      </trkpt>
      <trkpt lat="39.866010043770075" lon="3.174649262800813">
        <ele>397.63999999999999</ele>
        <time>2014-09-02T11:27:28Z</time>
      </trkpt>
      <trkpt lat="39.866024544462562" lon="3.174640210345388">
        <ele>403.41000000000003</ele>
        <time>2014-09-02T11:27:30Z</time>
      </trkpt>
      <trkpt lat="39.866031585261226" lon="3.174638282507658">
        <ele>399.07999999999998</ele>
        <time>2014-09-02T11:27:31Z</time>
      </trkpt>
      <trkpt lat="39.866038206964731" lon="3.17463836632669">
        <ele>395.72000000000003</ele>
        <time>2014-09-02T11:27:32Z</time>
      </trkpt>
      <trkpt lat="39.866038206964731" lon="3.17463836632669">
        <ele>399.07999999999998</ele>
        <time>2014-09-02T11:27:33Z</time>
      </trkpt>
      <trkpt lat="39.866060083732009" lon="3.174623865634203">
        <ele>398.12</ele>
        <time>2014-09-02T11:27:35Z</time>
      </trkpt>
      <trkpt lat="39.866063687950373" lon="3.174615399912">
        <ele>397.63999999999999</ele>
        <time>2014-09-02T11:27:36Z</time>
      </trkpt>
      <trkpt lat="39.866075422614813" lon="3.17459536716342">
        <ele>404.37</ele>
        <time>2014-09-02T11:27:38Z</time>
      </trkpt>
      <trkpt lat="39.866079613566399" lon="3.174590757116675">
        <ele>399.07999999999998</ele>
        <time>2014-09-02T11:27:39Z</time>
      </trkpt>
      <trkpt lat="39.866088749840856" lon="3.174586482346058">
        <ele>395.24000000000001</ele>
        <time>2014-09-02T11:27:40Z</time>
      </trkpt>
      <trkpt lat="39.866096712648869" lon="3.174581956118345">
        <ele>399.56999999999999</ele>
        <time>2014-09-02T11:27:41Z</time>
      </trkpt>
      <trkpt lat="39.866106603294611" lon="3.174568796530366">
        <ele>391.87</ele>
        <time>2014-09-02T11:27:43Z</time>
      </trkpt>
      <trkpt lat="39.866120852530003" lon="3.174552116543055">
        <ele>403.88999999999999</ele>
        <time>2014-09-02T11:27:45Z</time>
      </trkpt>
      <trkpt lat="39.866127222776413" lon="3.174541555345058">
        <ele>399.56999999999999</ele>
        <time>2014-09-02T11:27:46Z</time>
      </trkpt>
      <trkpt lat="39.86615002155304" lon="3.174522193148732">
        <ele>405.32999999999998</ele>
        <time>2014-09-02T11:27:49Z</time>
      </trkpt>
      <trkpt lat="39.866153541952372" lon="3.174518086016178">
        <ele>395.24000000000001</ele>
        <time>2014-09-02T11:27:50Z</time>
      </trkpt>
      <trkpt lat="39.866162594407797" lon="3.174511548131704">
        <ele>405.81</ele>
        <time>2014-09-02T11:27:52Z</time>
      </trkpt>
      <trkpt lat="39.866174664348364" lon="3.174505848437548">
        <ele>393.80000000000001</ele>
        <time>2014-09-02T11:27:54Z</time>
      </trkpt>
      <trkpt lat="39.866186147555709" lon="3.174501741304994">
        <ele>397.16000000000003</ele>
        <time>2014-09-02T11:27:55Z</time>
      </trkpt>
      <trkpt lat="39.866199307143688" lon="3.17449520342052">
        <ele>408.22000000000003</ele>
        <time>2014-09-02T11:27:56Z</time>
      </trkpt>
      <trkpt lat="39.866208359599113" lon="3.174487743526697">
        <ele>397.63999999999999</ele>
        <time>2014-09-02T11:27:57Z</time>
      </trkpt>
      <trkpt lat="39.866223698481917" lon="3.174471482634544">
        <ele>399.07999999999998</ele>
        <time>2014-09-02T11:27:59Z</time>
      </trkpt>
      <trkpt lat="39.866229481995106" lon="3.174460921436548">
        <ele>402.93000000000001</ele>
        <time>2014-09-02T11:28:00Z</time>
      </trkpt>
      <trkpt lat="39.86623652279377" lon="3.174451617524028">
        <ele>393.31999999999999</ele>
        <time>2014-09-02T11:28:01Z</time>
      </trkpt>
      <trkpt lat="39.866244653239846" lon="3.174443319439888">
        <ele>405.32999999999998</ele>
        <time>2014-09-02T11:28:02Z</time>
      </trkpt>
      <trkpt lat="39.86625999212265" lon="3.174432003870606">
        <ele>391.87</ele>
        <time>2014-09-02T11:28:04Z</time>
      </trkpt>
      <trkpt lat="39.866268457844853" lon="3.174429154023528">
        <ele>403.41000000000003</ele>
        <time>2014-09-02T11:28:05Z</time>
      </trkpt>
      <trkpt lat="39.866273151710629" lon="3.174424879252911">
        <ele>408.22000000000003</ele>
        <time>2014-09-02T11:28:06Z</time>
      </trkpt>
      <trkpt lat="39.866278097033501" lon="3.17441800609231">
        <ele>392.36000000000001</ele>
        <time>2014-09-02T11:28:07Z</time>
      </trkpt>
      <trkpt lat="39.86628295853734" lon="3.174412809312344">
        <ele>402.93000000000001</ele>
        <time>2014-09-02T11:28:08Z</time>
      </trkpt>
      <trkpt lat="39.866285556927323" lon="3.174407444894314">
        <ele>415.43000000000001</ele>
        <time>2014-09-02T11:28:09Z</time>
      </trkpt>
      <trkpt lat="39.866290334612131" lon="3.174401326104999">
        <ele>399.56999999999999</ele>
        <time>2014-09-02T11:28:10Z</time>
      </trkpt>
      <trkpt lat="39.866296872496605" lon="3.17439797334373">
        <ele>404.85000000000002</ele>
        <time>2014-09-02T11:28:11Z</time>
      </trkpt>
      <trkpt lat="39.866304164752364" lon="3.174393782392144">
        <ele>411.57999999999998</ele>
        <time>2014-09-02T11:28:12Z</time>
      </trkpt>
      <trkpt lat="39.866310199722648" lon="3.174384729936719">
        <ele>400.05000000000001</ele>
        <time>2014-09-02T11:28:13Z</time>
      </trkpt>
      <trkpt lat="39.866313887760043" lon="3.174376599490643">
        <ele>406.76999999999998</ele>
        <time>2014-09-02T11:28:14Z</time>
      </trkpt>
      <trkpt lat="39.866320258006454" lon="3.174367882311344">
        <ele>400.52999999999997</ele>
        <time>2014-09-02T11:28:16Z</time>
      </trkpt>
      <trkpt lat="39.866325203329325" lon="3.174360422417522">
        <ele>408.69999999999999</ele>
        <time>2014-09-02T11:28:17Z</time>
      </trkpt>
      <trkpt lat="39.866328136995435" lon="3.174355225637555">
        <ele>403.88999999999999</ele>
        <time>2014-09-02T11:28:18Z</time>
      </trkpt>
      <trkpt lat="39.866339117288589" lon="3.174346005544066">
        <ele>418.31</ele>
        <time>2014-09-02T11:28:20Z</time>
      </trkpt>
      <trkpt lat="39.866347163915634" lon="3.174333851784468">
        <ele>395.24000000000001</ele>
        <time>2014-09-02T11:28:21Z</time>
      </trkpt>
      <trkpt lat="39.866352779790759" lon="3.174326308071613">
        <ele>408.22000000000003</ele>
        <time>2014-09-02T11:28:22Z</time>
      </trkpt>
      <trkpt lat="39.86635722219944" lon="3.174319183453918">
        <ele>402.93000000000001</ele>
        <time>2014-09-02T11:28:24Z</time>
      </trkpt>
      <trkpt lat="39.866363340988755" lon="3.174312813207507">
        <ele>413.98000000000002</ele>
        <time>2014-09-02T11:28:25Z</time>
      </trkpt>
      <trkpt lat="39.866371806710958" lon="3.174309125170112">
        <ele>401.97000000000003</ele>
        <time>2014-09-02T11:28:26Z</time>
      </trkpt>
      <trkpt lat="39.866380104795098" lon="3.174313567578793">
        <ele>407.25999999999999</ele>
        <time>2014-09-02T11:28:27Z</time>
      </trkpt>
      <trkpt lat="39.866389241069555" lon="3.174313064664602">
        <ele>411.57999999999998</ele>
        <time>2014-09-02T11:28:28Z</time>
      </trkpt>
      <trkpt lat="39.866400808095932" lon="3.174310717731714">
        <ele>408.22000000000003</ele>
        <time>2014-09-02T11:28:29Z</time>
      </trkpt>
      <trkpt lat="39.866409441456199" lon="3.174307029694319">
        <ele>397.63999999999999</ele>
        <time>2014-09-02T11:28:30Z</time>
      </trkpt>
      <trkpt lat="39.866417655721307" lon="3.174300575628877">
        <ele>407.74000000000001</ele>
        <time>2014-09-02T11:28:31Z</time>
      </trkpt>
      <trkpt lat="39.866424780339003" lon="3.174295462667942">
        <ele>413.5</ele>
        <time>2014-09-02T11:28:32Z</time>
      </trkpt>
      <trkpt lat="39.866433497518301" lon="3.174293367192149">
        <ele>401.97000000000003</ele>
        <time>2014-09-02T11:28:33Z</time>
      </trkpt>
      <trkpt lat="39.866461912170053" lon="3.17428263835609">
        <ele>410.62</ele>
        <time>2014-09-02T11:28:36Z</time>
      </trkpt>
      <trkpt lat="39.866470042616129" lon="3.174276938661933">
        <ele>402.44999999999999</ele>
        <time>2014-09-02T11:28:37Z</time>
      </trkpt>
      <trkpt lat="39.866478675976396" lon="3.174274759367108">
        <ele>405.81</ele>
        <time>2014-09-02T11:28:38Z</time>
      </trkpt>
      <trkpt lat="39.86648672260344" lon="3.174272077158094">
        <ele>409.66000000000003</ele>
        <time>2014-09-02T11:28:39Z</time>
      </trkpt>
      <trkpt lat="39.866505665704608" lon="3.174258749932051">
        <ele>403.41000000000003</ele>
        <time>2014-09-02T11:28:41Z</time>
      </trkpt>
      <trkpt lat="39.866515640169382" lon="3.174252044409514">
        <ele>406.76999999999998</ele>
        <time>2014-09-02T11:28:42Z</time>
      </trkpt>
      <trkpt lat="39.866522429510951" lon="3.174245841801167">
        <ele>410.62</ele>
        <time>2014-09-02T11:28:43Z</time>
      </trkpt>
      <trkpt lat="39.866545647382736" lon="3.174233352765441">
        <ele>405.32999999999998</ele>
        <time>2014-09-02T11:28:46Z</time>
      </trkpt>
      <trkpt lat="39.86656391993165" lon="3.174224132671952">
        <ele>407.74000000000001</ele>
        <time>2014-09-02T11:28:48Z</time>
      </trkpt>
      <trkpt lat="39.866587556898594" lon="3.174216588959098">
        <ele>403.88999999999999</ele>
        <time>2014-09-02T11:28:50Z</time>
      </trkpt>
      <trkpt lat="39.866597447544336" lon="3.174207955598831">
        <ele>400.52999999999997</ele>
        <time>2014-09-02T11:28:51Z</time>
      </trkpt>
      <trkpt lat="39.866604991257191" lon="3.174202758818865">
        <ele>410.13999999999999</ele>
        <time>2014-09-02T11:28:52Z</time>
      </trkpt>
      <trkpt lat="39.866613792255521" lon="3.174195550382137">
        <ele>410.13999999999999</ele>
        <time>2014-09-02T11:28:53Z</time>
      </trkpt>
      <trkpt lat="39.866622174158692" lon="3.174188593402505">
        <ele>404.37</ele>
        <time>2014-09-02T11:28:54Z</time>
      </trkpt>
      <trkpt lat="39.866636591032147" lon="3.174177194014192">
        <ele>409.18000000000001</ele>
        <time>2014-09-02T11:28:56Z</time>
      </trkpt>
      <trkpt lat="39.866651091724634" lon="3.17416487261653">
        <ele>401.00999999999999</ele>
        <time>2014-09-02T11:28:58Z</time>
      </trkpt>
      <trkpt lat="39.866656539961696" lon="3.174158502370119">
        <ele>412.06</ele>
        <time>2014-09-02T11:28:59Z</time>
      </trkpt>
      <trkpt lat="39.86666458658874" lon="3.174150371924043">
        <ele>412.06</ele>
        <time>2014-09-02T11:29:00Z</time>
      </trkpt>
      <trkpt lat="39.866671124473214" lon="3.174140984192491">
        <ele>407.74000000000001</ele>
        <time>2014-09-02T11:29:01Z</time>
      </trkpt>
      <trkpt lat="39.86667824909091" lon="3.174117682501674">
        <ele>406.29000000000002</ele>
        <time>2014-09-02T11:29:03Z</time>
      </trkpt>
      <trkpt lat="39.866685792803764" lon="3.174112988635898">
        <ele>413.01999999999998</ele>
        <time>2014-09-02T11:29:04Z</time>
      </trkpt>
      <trkpt lat="39.866691408678889" lon="3.174110893160105">
        <ele>408.22000000000003</ele>
        <time>2014-09-02T11:29:05Z</time>
      </trkpt>
      <trkpt lat="39.866693671792746" lon="3.174112150445581">
        <ele>411.57999999999998</ele>
        <time>2014-09-02T11:29:07Z</time>
      </trkpt>
      <trkpt lat="39.86669585108757" lon="3.17409647628665">
        <ele>402.44999999999999</ele>
        <time>2014-09-02T11:29:08Z</time>
      </trkpt>
      <trkpt lat="39.866695683449507" lon="3.174083568155766">
        <ele>411.57999999999998</ele>
        <time>2014-09-02T11:29:09Z</time>
      </trkpt>
      <trkpt lat="39.866700796410441" lon="3.174061691388488">
        <ele>399.07999999999998</ele>
        <time>2014-09-02T11:29:11Z</time>
      </trkpt>
      <trkpt lat="39.866700544953346" lon="3.174049872905016">
        <ele>411.10000000000002</ele>
        <time>2014-09-02T11:29:12Z</time>
      </trkpt>
      <trkpt lat="39.866706412285566" lon="3.174037216231227">
        <ele>404.37</ele>
        <time>2014-09-02T11:29:14Z</time>
      </trkpt>
      <trkpt lat="39.866706831380725" lon="3.17403051070869">
        <ele>409.18000000000001</ele>
        <time>2014-09-02T11:29:15Z</time>
      </trkpt>
      <trkpt lat="39.866705825552344" lon="3.174013830721378">
        <ele>405.81</ele>
        <time>2014-09-02T11:29:17Z</time>
      </trkpt>
      <trkpt lat="39.866705825552344" lon="3.174013830721378">
        <ele>407.25999999999999</ele>
        <time>2014-09-02T11:29:21Z</time>
      </trkpt>
      <trkpt lat="39.866705825552344" lon="3.174013830721378">
        <ele>407.25999999999999</ele>
        <time>2014-09-02T11:29:42Z</time>
      </trkpt>
      <trkpt lat="39.866708926856518" lon="3.174010226503015">
        <ele>408.22000000000003</ele>
        <time>2014-09-02T11:30:02Z</time>
      </trkpt>
      <trkpt lat="39.866708926856518" lon="3.174010226503015">
        <ele>406.29000000000002</ele>
        <time>2014-09-02T11:30:23Z</time>
      </trkpt>
      <trkpt lat="39.866708926856518" lon="3.174010226503015">
        <ele>407.25999999999999</ele>
        <time>2014-09-02T11:30:24Z</time>
      </trkpt>
      <trkpt lat="39.866706915199757" lon="3.17403151653707">
        <ele>401.49000000000001</ele>
        <time>2014-09-02T11:30:26Z</time>
      </trkpt>
      <trkpt lat="39.866700042039156" lon="3.174038724973798">
        <ele>409.18000000000001</ele>
        <time>2014-09-02T11:30:27Z</time>
      </trkpt>
      <trkpt lat="39.86669291742146" lon="3.174040233716369">
        <ele>413.5</ele>
        <time>2014-09-02T11:30:28Z</time>
      </trkpt>
      <trkpt lat="39.866674225777388" lon="3.17404274828732">
        <ele>412.54000000000002</ele>
        <time>2014-09-02T11:30:30Z</time>
      </trkpt>
      <trkpt lat="39.866669615730643" lon="3.174041239544749">
        <ele>418.31</ele>
        <time>2014-09-02T11:30:31Z</time>
      </trkpt>
      <trkpt lat="39.866667687892914" lon="3.174039646983147">
        <ele>405.81</ele>
        <time>2014-09-02T11:30:32Z</time>
      </trkpt>
      <trkpt lat="39.866664251312613" lon="3.174038724973798">
        <ele>406.76999999999998</ele>
        <time>2014-09-02T11:30:33Z</time>
      </trkpt>
      <trkpt lat="39.866661485284567" lon="3.17404568195343">
        <ele>418.31</ele>
        <time>2014-09-02T11:30:34Z</time>
      </trkpt>
      <trkpt lat="39.866657042875886" lon="3.174052052199841">
        <ele>408.69999999999999</ele>
        <time>2014-09-02T11:30:35Z</time>
      </trkpt>
      <trkpt lat="39.866626197472215" lon="3.174050962552428">
        <ele>412.06</ele>
        <time>2014-09-02T11:30:39Z</time>
      </trkpt>
      <trkpt lat="39.866622090339661" lon="3.174050375819206">
        <ele>411.10000000000002</ele>
        <time>2014-09-02T11:30:40Z</time>
      </trkpt>
      <trkpt lat="39.866606248542666" lon="3.174047442153096">
        <ele>410.62</ele>
        <time>2014-09-02T11:30:45Z</time>
      </trkpt>
      <trkpt lat="39.8665717151016" lon="3.174052219837904">
        <ele>411.57999999999998</ele>
        <time>2014-09-02T11:30:49Z</time>
      </trkpt>
      <trkpt lat="39.866533325985074" lon="3.174069402739406">
        <ele>412.54000000000002</ele>
        <time>2014-09-02T11:30:52Z</time>
      </trkpt>
      <trkpt lat="39.866487560793757" lon="3.17407988011837">
        <ele>413.98000000000002</ele>
        <time>2014-09-02T11:30:57Z</time>
      </trkpt>
      <trkpt lat="39.866465935483575" lon="3.174078706651926">
        <ele>414.47000000000003</ele>
        <time>2014-09-02T11:30:59Z</time>
      </trkpt>
      <trkpt lat="39.866433329880238" lon="3.174094799906015">
        <ele>415.43000000000001</ele>
        <time>2014-09-02T11:31:05Z</time>
      </trkpt>
      <trkpt lat="39.866384547203779" lon="3.174097146838903">
        <ele>416.87</ele>
        <time>2014-09-02T11:31:11Z</time>
      </trkpt>
      <trkpt lat="39.866356384009123" lon="3.174094716086984">
        <ele>417.35000000000002</ele>
        <time>2014-09-02T11:31:16Z</time>
      </trkpt>
      <trkpt lat="39.866383373737335" lon="3.174046017229557">
        <ele>418.31</ele>
        <time>2014-09-02T11:31:22Z</time>
      </trkpt>
      <trkpt lat="39.866406256332994" lon="3.174003101885319">
        <ele>419.75</ele>
        <time>2014-09-02T11:31:29Z</time>
      </trkpt>
      <trkpt lat="39.866371471434832" lon="3.173960354179144">
        <ele>421.19</ele>
        <time>2014-09-02T11:31:35Z</time>
      </trkpt>
      <trkpt lat="39.866278432309628" lon="3.173980303108692">
        <ele>422.63999999999999</ele>
        <time>2014-09-02T11:31:47Z</time>
      </trkpt>
      <trkpt lat="39.866271140053868" lon="3.173950044438243">
        <ele>424.56</ele>
        <time>2014-09-02T11:31:57Z</time>
      </trkpt>
      <trkpt lat="39.866269463673234" lon="3.173943590372801">
        <ele>425.51999999999998</ele>
        <time>2014-09-02T11:31:58Z</time>
      </trkpt>
      <trkpt lat="39.866241300478578" lon="3.173899836838245">
        <ele>426.48000000000002</ele>
        <time>2014-09-02T11:32:07Z</time>
      </trkpt>
      <trkpt lat="39.866227805614471" lon="3.173895729705691">
        <ele>427.92000000000002</ele>
        <time>2014-09-02T11:32:10Z</time>
      </trkpt>
      <trkpt lat="39.86623358912766" lon="3.173826495185494">
        <ele>429.85000000000002</ele>
        <time>2014-09-02T11:32:20Z</time>
      </trkpt>
      <trkpt lat="39.866192769259214" lon="3.173818700015545">
        <ele>431.29000000000002</ele>
        <time>2014-09-02T11:32:28Z</time>
      </trkpt>
      <trkpt lat="39.866178436204791" lon="3.173843426629901">
        <ele>431.76999999999998</ele>
        <time>2014-09-02T11:32:32Z</time>
      </trkpt>
      <trkpt lat="39.866142142564058" lon="3.173856418579817">
        <ele>432.25</ele>
        <time>2014-09-02T11:32:36Z</time>
      </trkpt>
      <trkpt lat="39.866115236654878" lon="3.173829596489668">
        <ele>433.69</ele>
        <time>2014-09-02T11:32:40Z</time>
      </trkpt>
      <trkpt lat="39.866106184199452" lon="3.173811826854944">
        <ele>434.64999999999998</ele>
        <time>2014-09-02T11:32:42Z</time>
      </trkpt>
      <trkpt lat="39.86610266380012" lon="3.173806630074978">
        <ele>431.76999999999998</ele>
        <time>2014-09-02T11:32:43Z</time>
      </trkpt>
      <trkpt lat="39.866098640486598" lon="3.173792297020555">
        <ele>435.13</ele>
        <time>2014-09-02T11:32:45Z</time>
      </trkpt>
      <trkpt lat="39.866096880286932" lon="3.173787854611874">
        <ele>431.76999999999998</ele>
        <time>2014-09-02T11:32:46Z</time>
      </trkpt>
      <trkpt lat="39.866095455363393" lon="3.173785926774144">
        <ele>436.10000000000002</ele>
        <time>2014-09-02T11:32:47Z</time>
      </trkpt>
      <trkpt lat="39.866094784811139" lon="3.173779891803861">
        <ele>426</ele>
        <time>2014-09-02T11:32:50Z</time>
      </trkpt>
      <trkpt lat="39.866092689335346" lon="3.173770839348435">
        <ele>437.54000000000002</ele>
        <time>2014-09-02T11:32:51Z</time>
      </trkpt>
      <trkpt lat="39.866091767325997" lon="3.173762541264296">
        <ele>437.54000000000002</ele>
        <time>2014-09-02T11:32:52Z</time>
      </trkpt>
      <trkpt lat="39.866089252755046" lon="3.173754494637251">
        <ele>433.20999999999998</ele>
        <time>2014-09-02T11:32:53Z</time>
      </trkpt>
      <trkpt lat="39.866083888337016" lon="3.173746531829238">
        <ele>440.42000000000002</ele>
        <time>2014-09-02T11:32:54Z</time>
      </trkpt>
      <trkpt lat="39.866079362109303" lon="3.173739155754447">
        <ele>432.73000000000002</ele>
        <time>2014-09-02T11:32:55Z</time>
      </trkpt>
      <trkpt lat="39.866069387644529" lon="3.173716273158789">
        <ele>437.54000000000002</ele>
        <time>2014-09-02T11:32:57Z</time>
      </trkpt>
      <trkpt lat="39.866062011569738" lon="3.173696994781494">
        <ele>429.85000000000002</ele>
        <time>2014-09-02T11:32:59Z</time>
      </trkpt>
      <trkpt lat="39.866059329360723" lon="3.173689534887672">
        <ele>441.86000000000001</ele>
        <time>2014-09-02T11:33:00Z</time>
      </trkpt>
      <trkpt lat="39.866057820618153" lon="3.173680147156119">
        <ele>433.69</ele>
        <time>2014-09-02T11:33:01Z</time>
      </trkpt>
      <trkpt lat="39.866055808961391" lon="3.173673609271646">
        <ele>438.01999999999998</ele>
        <time>2014-09-02T11:33:03Z</time>
      </trkpt>
      <trkpt lat="39.866055808961391" lon="3.173673609271646">
        <ele>434.64999999999998</ele>
        <time>2014-09-02T11:33:04Z</time>
      </trkpt>
      <trkpt lat="39.866055808961391" lon="3.173673609271646">
        <ele>441.86000000000001</ele>
        <time>2014-09-02T11:33:05Z</time>
      </trkpt>
      <trkpt lat="39.866055808961391" lon="3.173673609271646">
        <ele>433.69</ele>
        <time>2014-09-02T11:33:06Z</time>
      </trkpt>
      <trkpt lat="39.866048013791442" lon="3.173657516017556">
        <ele>434.17000000000002</ele>
        <time>2014-09-02T11:33:08Z</time>
      </trkpt>
      <trkpt lat="39.866042146459222" lon="3.17364695481956">
        <ele>435.61000000000001</ele>
        <time>2014-09-02T11:33:09Z</time>
      </trkpt>
      <trkpt lat="39.866024628281593" lon="3.173640416935086">
        <ele>433.69</ele>
        <time>2014-09-02T11:33:11Z</time>
      </trkpt>
      <trkpt lat="39.866020521149039" lon="3.173640416935086">
        <ele>437.54000000000002</ele>
        <time>2014-09-02T11:33:12Z</time>
      </trkpt>
      <trkpt lat="39.866015240550041" lon="3.173637231811881">
        <ele>433.20999999999998</ele>
        <time>2014-09-02T11:33:13Z</time>
      </trkpt>
      <trkpt lat="39.86601029522717" lon="3.173632537946105">
        <ele>436.57999999999998</ele>
        <time>2014-09-02T11:33:14Z</time>
      </trkpt>
      <trkpt lat="39.86599956639111" lon="3.173617953434587">
        <ele>430.81</ele>
        <time>2014-09-02T11:33:16Z</time>
      </trkpt>
      <trkpt lat="39.865997135639191" lon="3.173609739169478">
        <ele>438.98000000000002</ele>
        <time>2014-09-02T11:33:17Z</time>
      </trkpt>
      <trkpt lat="39.865997135639191" lon="3.173609739169478">
        <ele>426.95999999999998</ele>
        <time>2014-09-02T11:33:19Z</time>
      </trkpt>
      <trkpt lat="39.865997135639191" lon="3.173609739169478">
        <ele>442.81999999999999</ele>
        <time>2014-09-02T11:33:20Z</time>
      </trkpt>
      <trkpt lat="39.865997135639191" lon="3.173609739169478">
        <ele>437.06</ele>
        <time>2014-09-02T11:33:21Z</time>
      </trkpt>
      <trkpt lat="39.866000320762396" lon="3.173596579581499">
        <ele>433.20999999999998</ele>
        <time>2014-09-02T11:33:32Z</time>
      </trkpt>
      <trkpt lat="39.866000320762396" lon="3.173596579581499">
        <ele>436.57999999999998</ele>
        <time>2014-09-02T11:33:33Z</time>
      </trkpt>
      <trkpt lat="39.866010043770075" lon="3.173589371144772">
        <ele>432.25</ele>
        <time>2014-09-02T11:33:43Z</time>
      </trkpt>
      <trkpt lat="39.866014234721661" lon="3.17358685657382">
        <ele>451</ele>
        <time>2014-09-02T11:33:45Z</time>
      </trkpt>
      <trkpt lat="39.866020940244198" lon="3.173591550439596">
        <ele>432.73000000000002</ele>
        <time>2014-09-02T11:33:46Z</time>
      </trkpt>
      <trkpt lat="39.866020940244198" lon="3.173591550439596">
        <ele>445.70999999999998</ele>
        <time>2014-09-02T11:33:47Z</time>
      </trkpt>
      <trkpt lat="39.866020940244198" lon="3.173591550439596">
        <ele>433.20999999999998</ele>
        <time>2014-09-02T11:33:48Z</time>
      </trkpt>
      <trkpt lat="39.866020940244198" lon="3.173591550439596">
        <ele>439.45999999999998</ele>
        <time>2014-09-02T11:33:49Z</time>
      </trkpt>
      <trkpt lat="39.866020940244198" lon="3.173591550439596">
        <ele>435.61000000000001</ele>
        <time>2014-09-02T11:33:51Z</time>
      </trkpt>
      <trkpt lat="39.866020940244198" lon="3.173591550439596">
        <ele>437.06</ele>
        <time>2014-09-02T11:33:54Z</time>
      </trkpt>
      <trkpt lat="39.866020940244198" lon="3.173591550439596">
        <ele>440.42000000000002</ele>
        <time>2014-09-02T11:34:17Z</time>
      </trkpt>
      <trkpt lat="39.86601959913969" lon="3.173599261790514">
        <ele>437.54000000000002</ele>
        <time>2014-09-02T11:34:42Z</time>
      </trkpt>
      <trkpt lat="39.86601959913969" lon="3.173603788018227">
        <ele>438.01999999999998</ele>
        <time>2014-09-02T11:35:15Z</time>
      </trkpt>
      <trkpt lat="39.86601272597909" lon="3.173619965091348">
        <ele>438.5</ele>
        <time>2014-09-02T11:35:32Z</time>
      </trkpt>
      <trkpt lat="39.86601272597909" lon="3.173619965091348">
        <ele>439.45999999999998</ele>
        <time>2014-09-02T11:35:37Z</time>
      </trkpt>
      <trkpt lat="39.86601272597909" lon="3.173619965091348">
        <ele>433.69</ele>
        <time>2014-09-02T11:35:42Z</time>
      </trkpt>
      <trkpt lat="39.86601272597909" lon="3.173619965091348">
        <ele>434.17000000000002</ele>
        <time>2014-09-02T11:35:43Z</time>
      </trkpt>
      <trkpt lat="39.86601272597909" lon="3.173619965091348">
        <ele>445.70999999999998</ele>
        <time>2014-09-02T11:35:44Z</time>
      </trkpt>
      <trkpt lat="39.86601272597909" lon="3.173619965091348">
        <ele>437.54000000000002</ele>
        <time>2014-09-02T11:35:45Z</time>
      </trkpt>
      <trkpt lat="39.86601272597909" lon="3.173619965091348">
        <ele>439.45999999999998</ele>
        <time>2014-09-02T11:36:04Z</time>
      </trkpt>
      <trkpt lat="39.866010546684265" lon="3.173621641471982">
        <ele>438.5</ele>
        <time>2014-09-02T11:36:17Z</time>
      </trkpt>
      <trkpt lat="39.866010546684265" lon="3.173621641471982">
        <ele>435.61000000000001</ele>
        <time>2014-09-02T11:36:19Z</time>
      </trkpt>
      <trkpt lat="39.866002416238189" lon="3.173668412491679">
        <ele>437.06</ele>
        <time>2014-09-02T11:36:29Z</time>
      </trkpt>
      <trkpt lat="39.865999482572079" lon="3.173700347542763">
        <ele>435.61000000000001</ele>
        <time>2014-09-02T11:36:32Z</time>
      </trkpt>
      <trkpt lat="39.865988753736019" lon="3.173708980903029">
        <ele>434.17000000000002</ele>
        <time>2014-09-02T11:36:37Z</time>
      </trkpt>
      <trkpt lat="39.86595313064754" lon="3.173697581514716">
        <ele>432.73000000000002</ele>
        <time>2014-09-02T11:36:42Z</time>
      </trkpt>
      <trkpt lat="39.86595313064754" lon="3.173697581514716">
        <ele>432.25</ele>
        <time>2014-09-02T11:36:47Z</time>
      </trkpt>
      <trkpt lat="39.86595313064754" lon="3.173697581514716">
        <ele>434.17000000000002</ele>
        <time>2014-09-02T11:36:48Z</time>
      </trkpt>
      <trkpt lat="39.865932259708643" lon="3.173646032810211">
        <ele>430.32999999999998</ele>
        <time>2014-09-02T11:36:51Z</time>
      </trkpt>
      <trkpt lat="39.865897223353386" lon="3.173626502975822">
        <ele>434.64999999999998</ele>
        <time>2014-09-02T11:36:54Z</time>
      </trkpt>
      <trkpt lat="39.865888254716992" lon="3.173630023375154">
        <ele>432.73000000000002</ele>
        <time>2014-09-02T11:36:55Z</time>
      </trkpt>
      <trkpt lat="39.865884482860565" lon="3.173635387793183">
        <ele>430.81</ele>
        <time>2014-09-02T11:36:56Z</time>
      </trkpt>
      <trkpt lat="39.865889009088278" lon="3.173704287037253">
        <ele>430.32999999999998</ele>
        <time>2014-09-02T11:37:06Z</time>
      </trkpt>
      <trkpt lat="39.865850955247879" lon="3.173695988953114">
        <ele>428.39999999999998</ele>
        <time>2014-09-02T11:37:10Z</time>
      </trkpt>
      <trkpt lat="39.865845171734691" lon="3.173696743324399">
        <ele>429.37</ele>
        <time>2014-09-02T11:37:12Z</time>
      </trkpt>
      <trkpt lat="39.8658446688205" lon="3.173687858507037">
        <ele>430.32999999999998</ele>
        <time>2014-09-02T11:37:20Z</time>
      </trkpt>
      <trkpt lat="39.865841316059232" lon="3.173682745546103">
        <ele>426</ele>
        <time>2014-09-02T11:37:21Z</time>
      </trkpt>
      <trkpt lat="39.865830335766077" lon="3.173668663948774">
        <ele>429.37</ele>
        <time>2014-09-02T11:37:22Z</time>
      </trkpt>
      <trkpt lat="39.865830335766077" lon="3.173668663948774">
        <ele>433.20999999999998</ele>
        <time>2014-09-02T11:37:23Z</time>
      </trkpt>
      <trkpt lat="39.865820780396461" lon="3.173657516017556">
        <ele>429.37</ele>
        <time>2014-09-02T11:37:25Z</time>
      </trkpt>
      <trkpt lat="39.865802004933357" lon="3.173625161871314">
        <ele>423.12</ele>
        <time>2014-09-02T11:37:30Z</time>
      </trkpt>
      <trkpt lat="39.865803848952055" lon="3.173626502975822">
        <ele>430.81</ele>
        <time>2014-09-02T11:37:31Z</time>
      </trkpt>
      <trkpt lat="39.865806698799133" lon="3.173642177134752">
        <ele>426</ele>
        <time>2014-09-02T11:37:33Z</time>
      </trkpt>
      <trkpt lat="39.865806363523006" lon="3.173653576523066">
        <ele>431.76999999999998</ele>
        <time>2014-09-02T11:37:34Z</time>
      </trkpt>
      <trkpt lat="39.865806279703975" lon="3.173706131055951">
        <ele>428.88999999999999</ele>
        <time>2014-09-02T11:37:40Z</time>
      </trkpt>
      <trkpt lat="39.86582312732935" lon="3.173766816034913">
        <ele>430.81</ele>
        <time>2014-09-02T11:37:45Z</time>
      </trkpt>
      <trkpt lat="39.865851374343038" lon="3.173770839348435">
        <ele>429.37</ele>
        <time>2014-09-02T11:37:49Z</time>
      </trkpt>
      <trkpt lat="39.865852799266577" lon="3.173768660053611">
        <ele>428.39999999999998</ele>
        <time>2014-09-02T11:37:50Z</time>
      </trkpt>
      <trkpt lat="39.865840142592788" lon="3.173828758299351">
        <ele>428.88999999999999</ele>
        <time>2014-09-02T11:38:05Z</time>
      </trkpt>
      <trkpt lat="39.865840142592788" lon="3.173828758299351">
        <ele>430.32999999999998</ele>
        <time>2014-09-02T11:38:06Z</time>
      </trkpt>
      <trkpt lat="39.865843411535025" lon="3.173835799098015">
        <ele>427.44</ele>
        <time>2014-09-02T11:38:08Z</time>
      </trkpt>
      <trkpt lat="39.865848356857896" lon="3.173819370567799">
        <ele>426</ele>
        <time>2014-09-02T11:38:16Z</time>
      </trkpt>
      <trkpt lat="39.865838466212153" lon="3.173810904845595">
        <ele>426</ele>
        <time>2014-09-02T11:38:18Z</time>
      </trkpt>
      <trkpt lat="39.865835113450885" lon="3.173807552084327">
        <ele>429.85000000000002</ele>
        <time>2014-09-02T11:38:19Z</time>
      </trkpt>
      <trkpt lat="39.865826312452555" lon="3.173793805763125">
        <ele>425.04000000000002</ele>
        <time>2014-09-02T11:38:21Z</time>
      </trkpt>
      <trkpt lat="39.86582413315773" lon="3.173786178231239">
        <ele>426.48000000000002</ele>
        <time>2014-09-02T11:38:22Z</time>
      </trkpt>
      <trkpt lat="39.865816254168749" lon="3.173778466880322">
        <ele>430.32999999999998</ele>
        <time>2014-09-02T11:38:23Z</time>
      </trkpt>
      <trkpt lat="39.865811644122005" lon="3.173765391111374">
        <ele>428.88999999999999</ele>
        <time>2014-09-02T11:38:24Z</time>
      </trkpt>
      <trkpt lat="39.86580653116107" lon="3.173742843791843">
        <ele>427.44</ele>
        <time>2014-09-02T11:38:35Z</time>
      </trkpt>
      <trkpt lat="39.86580653116107" lon="3.173742843791843">
        <ele>426.95999999999998</ele>
        <time>2014-09-02T11:38:51Z</time>
      </trkpt>
      <trkpt lat="39.865806614980102" lon="3.173742592334747">
        <ele>426.95999999999998</ele>
        <time>2014-09-02T11:39:21Z</time>
      </trkpt>
      <trkpt lat="39.865806363523006" lon="3.173741418868303">
        <ele>426.95999999999998</ele>
        <time>2014-09-02T11:39:51Z</time>
      </trkpt>
      <trkpt lat="39.865806363523006" lon="3.173741418868303">
        <ele>426.95999999999998</ele>
        <time>2014-09-02T11:39:55Z</time>
      </trkpt>
      <trkpt lat="39.865797897800803" lon="3.173733372241259">
        <ele>427.44</ele>
        <time>2014-09-02T11:40:08Z</time>
      </trkpt>
      <trkpt lat="39.865797897800803" lon="3.173733372241259">
        <ele>427.44</ele>
        <time>2014-09-02T11:40:21Z</time>
      </trkpt>
      <trkpt lat="39.865795550867915" lon="3.17373194731772">
        <ele>425.51999999999998</ele>
        <time>2014-09-02T11:40:44Z</time>
      </trkpt>
      <trkpt lat="39.865795550867915" lon="3.17373194731772">
        <ele>426.48000000000002</ele>
        <time>2014-09-02T11:40:46Z</time>
      </trkpt>
      <trkpt lat="39.865795550867915" lon="3.17373194731772">
        <ele>429.85000000000002</ele>
        <time>2014-09-02T11:41:14Z</time>
      </trkpt>
      <trkpt lat="39.8657928686589" lon="3.17373052239418">
        <ele>426.95999999999998</ele>
        <time>2014-09-02T11:41:36Z</time>
      </trkpt>
      <trkpt lat="39.865792701020837" lon="3.173729600384831">
        <ele>427.44</ele>
        <time>2014-09-02T11:42:01Z</time>
      </trkpt>
      <trkpt lat="39.865792701020837" lon="3.173729600384831">
        <ele>421.68000000000001</ele>
        <time>2014-09-02T11:42:28Z</time>
      </trkpt>
      <trkpt lat="39.865792701020837" lon="3.173729600384831">
        <ele>427.44</ele>
        <time>2014-09-02T11:42:29Z</time>
      </trkpt>
      <trkpt lat="39.865797394886613" lon="3.173729768022895">
        <ele>426.48000000000002</ele>
        <time>2014-09-02T11:42:43Z</time>
      </trkpt>
      <trkpt lat="39.865797394886613" lon="3.173729768022895">
        <ele>426.95999999999998</ele>
        <time>2014-09-02T11:43:15Z</time>
      </trkpt>
      <trkpt lat="39.86579873599112" lon="3.173726918175817">
        <ele>426.95999999999998</ele>
        <time>2014-09-02T11:43:51Z</time>
      </trkpt>
      <trkpt lat="39.865799490362406" lon="3.173724571242929">
        <ele>427.44</ele>
        <time>2014-09-02T11:44:25Z</time>
      </trkpt>
      <trkpt lat="39.865799406543374" lon="3.173723565414548">
        <ele>427.44</ele>
        <time>2014-09-02T11:44:58Z</time>
      </trkpt>
      <trkpt lat="39.865796724334359" lon="3.173720631748438">
        <ele>426.95999999999998</ele>
        <time>2014-09-02T11:45:28Z</time>
      </trkpt>
      <trkpt lat="39.865796724334359" lon="3.173720631748438">
        <ele>426</ele>
        <time>2014-09-02T11:45:50Z</time>
      </trkpt>
      <trkpt lat="39.8657928686589" lon="3.173714093863964">
        <ele>428.39999999999998</ele>
        <time>2014-09-02T11:46:17Z</time>
      </trkpt>
      <trkpt lat="39.8657928686589" lon="3.173714093863964">
        <ele>425.04000000000002</ele>
        <time>2014-09-02T11:46:31Z</time>
      </trkpt>
      <trkpt lat="39.865793371573091" lon="3.173706214874983">
        <ele>427.92000000000002</ele>
        <time>2014-09-02T11:46:54Z</time>
      </trkpt>
      <trkpt lat="39.865796221420169" lon="3.173698168247938">
        <ele>427.44</ele>
        <time>2014-09-02T11:47:18Z</time>
      </trkpt>
      <trkpt lat="39.865794461220503" lon="3.173692803829908">
        <ele>427.92000000000002</ele>
        <time>2014-09-02T11:47:36Z</time>
      </trkpt>
      <trkpt lat="39.865794461220503" lon="3.173692803829908">
        <ele>427.44</ele>
        <time>2014-09-02T11:47:57Z</time>
      </trkpt>
      <trkpt lat="39.865794712677598" lon="3.173693725839257">
        <ele>428.39999999999998</ele>
        <time>2014-09-02T11:48:27Z</time>
      </trkpt>
      <trkpt lat="39.865794628858566" lon="3.173699341714382">
        <ele>429.85000000000002</ele>
        <time>2014-09-02T11:48:50Z</time>
      </trkpt>
      <trkpt lat="39.865798903629184" lon="3.173702107742429">
        <ele>426.95999999999998</ele>
        <time>2014-09-02T11:49:10Z</time>
      </trkpt>
      <trkpt lat="39.865791192278266" lon="3.173702107742429">
        <ele>427.92000000000002</ele>
        <time>2014-09-02T11:49:41Z</time>
      </trkpt>
      <trkpt lat="39.865789599716663" lon="3.173701437190175">
        <ele>428.39999999999998</ele>
        <time>2014-09-02T11:50:17Z</time>
      </trkpt>
      <trkpt lat="39.865789012983441" lon="3.173699928447604">
        <ele>427.92000000000002</ele>
        <time>2014-09-02T11:50:54Z</time>
      </trkpt>
      <trkpt lat="39.865789012983441" lon="3.173699928447604">
        <ele>428.39999999999998</ele>
        <time>2014-09-02T11:51:29Z</time>
      </trkpt>
      <trkpt lat="39.865786917507648" lon="3.173704454675317">
        <ele>428.88999999999999</ele>
        <time>2014-09-02T11:52:02Z</time>
      </trkpt>
      <trkpt lat="39.865784989669919" lon="3.173705041408539">
        <ele>428.39999999999998</ele>
        <time>2014-09-02T11:52:36Z</time>
      </trkpt>
      <trkpt lat="39.865782978013158" lon="3.173705376684666">
        <ele>428.39999999999998</ele>
        <time>2014-09-02T11:53:12Z</time>
      </trkpt>
      <trkpt lat="39.865784822031856" lon="3.173706131055951">
        <ele>429.37</ele>
        <time>2014-09-02T11:53:48Z</time>
      </trkpt>
      <trkpt lat="39.865787252783775" lon="3.173704370856285">
        <ele>428.88999999999999</ele>
        <time>2014-09-02T11:54:22Z</time>
      </trkpt>
      <trkpt lat="39.865793455392122" lon="3.173708058893681">
        <ele>429.37</ele>
        <time>2014-09-02T11:54:41Z</time>
      </trkpt>
      <trkpt lat="39.865793455392122" lon="3.173708058893681">
        <ele>429.37</ele>
        <time>2014-09-02T11:54:42Z</time>
      </trkpt>
      <trkpt lat="39.865797394886613" lon="3.173708561807871">
        <ele>429.85000000000002</ele>
        <time>2014-09-02T11:54:46Z</time>
      </trkpt>
      <trkpt lat="39.865828072652221" lon="3.173696743324399">
        <ele>430.81</ele>
        <time>2014-09-02T11:54:56Z</time>
      </trkpt>
      <trkpt lat="39.865849362686276" lon="3.173670675605536">
        <ele>432.25</ele>
        <time>2014-09-02T11:55:08Z</time>
      </trkpt>
      <trkpt lat="39.865849362686276" lon="3.173670675605536">
        <ele>432.25</ele>
        <time>2014-09-02T11:55:11Z</time>
      </trkpt>
      <trkpt lat="39.865855984389782" lon="3.173659779131413">
        <ele>432.73000000000002</ele>
        <time>2014-09-02T11:55:13Z</time>
      </trkpt>
      <trkpt lat="39.86590426415205" lon="3.173626251518726">
        <ele>434.17000000000002</ele>
        <time>2014-09-02T11:55:20Z</time>
      </trkpt>
      <trkpt lat="39.865920944139361" lon="3.173657432198525">
        <ele>434.64999999999998</ele>
        <time>2014-09-02T11:55:23Z</time>
      </trkpt>
      <trkpt lat="39.865970900282264" lon="3.173683919012547">
        <ele>437.54000000000002</ele>
        <time>2014-09-02T11:55:35Z</time>
      </trkpt>
      <trkpt lat="39.865970900282264" lon="3.173683919012547">
        <ele>438.01999999999998</ele>
        <time>2014-09-02T11:55:37Z</time>
      </trkpt>
      <trkpt lat="39.866008367389441" lon="3.173694983124733">
        <ele>439.45999999999998</ele>
        <time>2014-09-02T11:55:42Z</time>
      </trkpt>
      <trkpt lat="39.866056982427835" lon="3.173715267330408">
        <ele>438.5</ele>
        <time>2014-09-02T11:55:47Z</time>
      </trkpt>
      <trkpt lat="39.866082295775414" lon="3.173733875155449">
        <ele>438.98000000000002</ele>
        <time>2014-09-02T11:55:50Z</time>
      </trkpt>
      <trkpt lat="39.866115739569068" lon="3.173761367797852">
        <ele>438.98000000000002</ele>
        <time>2014-09-02T11:56:01Z</time>
      </trkpt>
      <trkpt lat="39.866146333515644" lon="3.173794476315379">
        <ele>437.06</ele>
        <time>2014-09-02T11:56:07Z</time>
      </trkpt>
      <trkpt lat="39.866179525852203" lon="3.173821717500687">
        <ele>438.5</ele>
        <time>2014-09-02T11:56:16Z</time>
      </trkpt>
      <trkpt lat="39.866186734288931" lon="3.173823561519384">
        <ele>437.06</ele>
        <time>2014-09-02T11:56:18Z</time>
      </trkpt>
      <trkpt lat="39.866205509752035" lon="3.17381258122623">
        <ele>436.10000000000002</ele>
        <time>2014-09-02T11:56:20Z</time>
      </trkpt>
      <trkpt lat="39.866210371255875" lon="3.173805121332407">
        <ele>436.10000000000002</ele>
        <time>2014-09-02T11:56:21Z</time>
      </trkpt>
      <trkpt lat="39.866227386519313" lon="3.173785088583827">
        <ele>435.13</ele>
        <time>2014-09-02T11:56:33Z</time>
      </trkpt>
      <trkpt lat="39.866228979080915" lon="3.173834457993507">
        <ele>433.20999999999998</ele>
        <time>2014-09-02T11:56:44Z</time>
      </trkpt>
      <trkpt lat="39.866230152547359" lon="3.173876199871302">
        <ele>432.25</ele>
        <time>2014-09-02T11:56:50Z</time>
      </trkpt>
      <trkpt lat="39.866268122568727" lon="3.173873433843255">
        <ele>430.81</ele>
        <time>2014-09-02T11:57:02Z</time>
      </trkpt>
      <trkpt lat="39.866266613826156" lon="3.173900423571467">
        <ele>431.76999999999998</ele>
        <time>2014-09-02T11:57:09Z</time>
      </trkpt>
      <trkpt lat="39.866264350712299" lon="3.173938225954771">
        <ele>430.32999999999998</ele>
        <time>2014-09-02T11:57:13Z</time>
      </trkpt>
      <trkpt lat="39.866277175024152" lon="3.173972340300679">
        <ele>428.88999999999999</ele>
        <time>2014-09-02T11:57:20Z</time>
      </trkpt>
      <trkpt lat="39.866339452564716" lon="3.173973513767123">
        <ele>427.44</ele>
        <time>2014-09-02T11:57:26Z</time>
      </trkpt>
      <trkpt lat="39.866392677649856" lon="3.173927078023553">
        <ele>426.48000000000002</ele>
        <time>2014-09-02T11:57:33Z</time>
      </trkpt>
      <trkpt lat="39.866397036239505" lon="3.173900172114372">
        <ele>426.48000000000002</ele>
        <time>2014-09-02T11:57:47Z</time>
      </trkpt>
      <trkpt lat="39.866382284089923" lon="3.17390687763691">
        <ele>426.48000000000002</ele>
        <time>2014-09-02T11:57:52Z</time>
      </trkpt>
      <trkpt lat="39.866396030411124" lon="3.173949206247926">
        <ele>425.51999999999998</ele>
        <time>2014-09-02T11:57:57Z</time>
      </trkpt>
      <trkpt lat="39.866355964913964" lon="3.174023721367121">
        <ele>424.56</ele>
        <time>2014-09-02T11:58:07Z</time>
      </trkpt>
      <trkpt lat="39.866347750648856" lon="3.174035036936402">
        <ele>424.56</ele>
        <time>2014-09-02T11:58:11Z</time>
      </trkpt>
      <trkpt lat="39.866359150037169" lon="3.174043837934732">
        <ele>424.07999999999998</ele>
        <time>2014-09-02T11:58:15Z</time>
      </trkpt>
      <trkpt lat="39.866424696519971" lon="3.174044508486986">
        <ele>421.19</ele>
        <time>2014-09-02T11:58:26Z</time>
      </trkpt>
      <trkpt lat="39.866472305729985" lon="3.174085328355432">
        <ele>419.26999999999998</ele>
        <time>2014-09-02T11:58:36Z</time>
      </trkpt>
      <trkpt lat="39.866486554965377" lon="3.174090022221208">
        <ele>418.79000000000002</ele>
        <time>2014-09-02T11:58:40Z</time>
      </trkpt>
      <trkpt lat="39.866527793928981" lon="3.174076778814197">
        <ele>417.82999999999998</ele>
        <time>2014-09-02T11:58:47Z</time>
      </trkpt>
      <trkpt lat="39.866547072306275" lon="3.174076192080975">
        <ele>416.87</ele>
        <time>2014-09-02T11:58:51Z</time>
      </trkpt>
      <trkpt lat="39.866605577990413" lon="3.174072420224547">
        <ele>415.91000000000003</ele>
        <time>2014-09-02T11:58:56Z</time>
      </trkpt>
      <trkpt lat="39.866693839430809" lon="3.174050040543079">
        <ele>413.5</ele>
        <time>2014-09-02T11:59:08Z</time>
      </trkpt>
      <trkpt lat="39.866707501932979" lon="3.174051465466619">
        <ele>413.5</ele>
        <time>2014-09-02T11:59:19Z</time>
      </trkpt>
      <trkpt lat="39.866707501932979" lon="3.174051465466619">
        <ele>413.01999999999998</ele>
        <time>2014-09-02T11:59:20Z</time>
      </trkpt>
      <trkpt lat="39.866701550781727" lon="3.174049202352762">
        <ele>413.5</ele>
        <time>2014-09-02T11:59:29Z</time>
      </trkpt>
      <trkpt lat="39.866693923249841" lon="3.174060434103012">
        <ele>413.01999999999998</ele>
        <time>2014-09-02T11:59:32Z</time>
      </trkpt>
      <trkpt lat="39.866729797795415" lon="3.17403587512672">
        <ele>412.54000000000002</ele>
        <time>2014-09-02T11:59:35Z</time>
      </trkpt>
      <trkpt lat="39.8666753154248" lon="3.173966556787491">
        <ele>412.06</ele>
        <time>2014-09-02T11:59:43Z</time>
      </trkpt>
      <trkpt lat="39.866643296554685" lon="3.1739142537117">
        <ele>411.10000000000002</ele>
        <time>2014-09-02T11:59:48Z</time>
      </trkpt>
      <trkpt lat="39.86659862101078" lon="3.173893801867962">
        <ele>410.62</ele>
        <time>2014-09-02T11:59:56Z</time>
      </trkpt>
      <trkpt lat="39.866562662646174" lon="3.173836972564459">
        <ele>410.13999999999999</ele>
        <time>2014-09-02T12:00:03Z</time>
      </trkpt>
      <trkpt lat="39.866521591320634" lon="3.173816353082657">
        <ele>406.76999999999998</ele>
        <time>2014-09-02T12:00:13Z</time>
      </trkpt>
      <trkpt lat="39.866521256044507" lon="3.17381258122623">
        <ele>409.66000000000003</ele>
        <time>2014-09-02T12:00:14Z</time>
      </trkpt>
      <trkpt lat="39.866503402590752" lon="3.173781400546432">
        <ele>409.66000000000003</ele>
        <time>2014-09-02T12:00:27Z</time>
      </trkpt>
      <trkpt lat="39.866482950747013" lon="3.173744101077318">
        <ele>409.66000000000003</ele>
        <time>2014-09-02T12:00:32Z</time>
      </trkpt>
      <trkpt lat="39.866476496681571" lon="3.173716105520725">
        <ele>409.66000000000003</ele>
        <time>2014-09-02T12:00:35Z</time>
      </trkpt>
      <trkpt lat="39.866449339315295" lon="3.173676626756787">
        <ele>410.62</ele>
        <time>2014-09-02T12:00:46Z</time>
      </trkpt>
      <trkpt lat="39.866439448669553" lon="3.173665730282664">
        <ele>411.57999999999998</ele>
        <time>2014-09-02T12:00:59Z</time>
      </trkpt>
      <trkpt lat="39.866425953805447" lon="3.173644104972482">
        <ele>411.10000000000002</ele>
        <time>2014-09-02T12:01:09Z</time>
      </trkpt>
      <trkpt lat="39.866393683478236" lon="3.173584677278996">
        <ele>412.54000000000002</ele>
        <time>2014-09-02T12:01:18Z</time>
      </trkpt>
      <trkpt lat="39.866381278261542" lon="3.173564728349447">
        <ele>413.01999999999998</ele>
        <time>2014-09-02T12:01:20Z</time>
      </trkpt>
      <trkpt lat="39.866331070661545" lon="3.173513095825911">
        <ele>413.5</ele>
        <time>2014-09-02T12:01:28Z</time>
      </trkpt>
      <trkpt lat="39.866317324340343" lon="3.173504462465644">
        <ele>413.5</ele>
        <time>2014-09-02T12:01:43Z</time>
      </trkpt>
      <trkpt lat="39.866314055398107" lon="3.173499014228582">
        <ele>413.5</ele>
        <time>2014-09-02T12:01:44Z</time>
      </trkpt>
      <trkpt lat="39.866297291591763" lon="3.173475125804544">
        <ele>413.98000000000002</ele>
        <time>2014-09-02T12:01:53Z</time>
      </trkpt>
      <trkpt lat="39.866295363754034" lon="3.173479735851288">
        <ele>414.47000000000003</ele>
        <time>2014-09-02T12:01:54Z</time>
      </trkpt>
      <trkpt lat="39.866293268278241" lon="3.173499433323741">
        <ele>415.91000000000003</ele>
        <time>2014-09-02T12:02:00Z</time>
      </trkpt>
      <trkpt lat="39.866282707080245" lon="3.173488201573491">
        <ele>416.38999999999999</ele>
        <time>2014-09-02T12:02:05Z</time>
      </trkpt>
      <trkpt lat="39.866261836141348" lon="3.173491302877665">
        <ele>416.87</ele>
        <time>2014-09-02T12:02:08Z</time>
      </trkpt>
      <trkpt lat="39.866241468116641" lon="3.173505803570151">
        <ele>418.79000000000002</ele>
        <time>2014-09-02T12:02:19Z</time>
      </trkpt>
      <trkpt lat="39.86621992662549" lon="3.1735032889992">
        <ele>419.75</ele>
        <time>2014-09-02T12:02:29Z</time>
      </trkpt>
      <trkpt lat="39.866208527237177" lon="3.173523070290685">
        <ele>421.19</ele>
        <time>2014-09-02T12:02:35Z</time>
      </trkpt>
      <trkpt lat="39.866194864735007" lon="3.173524746671319">
        <ele>422.16000000000003</ele>
        <time>2014-09-02T12:02:45Z</time>
      </trkpt>
      <trkpt lat="39.866165444254875" lon="3.173521645367146">
        <ele>424.07999999999998</ele>
        <time>2014-09-02T12:02:52Z</time>
      </trkpt>
      <trkpt lat="39.866135353222489" lon="3.173511084169149">
        <ele>425.51999999999998</ele>
        <time>2014-09-02T12:02:58Z</time>
      </trkpt>
      <trkpt lat="39.866083217784762" lon="3.173519046977162">
        <ele>426.95999999999998</ele>
        <time>2014-09-02T12:03:03Z</time>
      </trkpt>
      <trkpt lat="39.86604985781014" lon="3.173517789691687">
        <ele>422.63999999999999</ele>
        <time>2014-09-02T12:03:10Z</time>
      </trkpt>
      <trkpt lat="39.86604549922049" lon="3.173508318141103">
        <ele>436.10000000000002</ele>
        <time>2014-09-02T12:03:11Z</time>
      </trkpt>
      <trkpt lat="39.866047846153378" lon="3.173499014228582">
        <ele>424.07999999999998</ele>
        <time>2014-09-02T12:03:12Z</time>
      </trkpt>
      <trkpt lat="39.866049690172076" lon="3.173481160774827">
        <ele>428.88999999999999</ele>
        <time>2014-09-02T12:03:14Z</time>
      </trkpt>
      <trkpt lat="39.866055389866233" lon="3.173480574041605">
        <ele>427.44</ele>
        <time>2014-09-02T12:03:15Z</time>
      </trkpt>
      <trkpt lat="39.86605329439044" lon="3.173480657860637">
        <ele>422.16000000000003</ele>
        <time>2014-09-02T12:03:27Z</time>
      </trkpt>
      <trkpt lat="39.866051534190774" lon="3.173476383090019">
        <ele>431.29000000000002</ele>
        <time>2014-09-02T12:03:28Z</time>
      </trkpt>
      <trkpt lat="39.866050612181425" lon="3.173473030328751">
        <ele>424.07999999999998</ele>
        <time>2014-09-02T12:03:29Z</time>
      </trkpt>
      <trkpt lat="39.866047091782093" lon="3.173472611233592">
        <ele>427.92000000000002</ele>
        <time>2014-09-02T12:03:30Z</time>
      </trkpt>
      <trkpt lat="39.866058239713311" lon="3.173472192138434">
        <ele>426.95999999999998</ele>
        <time>2014-09-02T12:03:40Z</time>
      </trkpt>
      <trkpt lat="39.86606695689261" lon="3.173467749729753">
        <ele>426.48000000000002</ele>
        <time>2014-09-02T12:03:45Z</time>
      </trkpt>
      <trkpt lat="39.866047594696283" lon="3.173441514372826">
        <ele>426.48000000000002</ele>
        <time>2014-09-02T12:03:56Z</time>
      </trkpt>
      <trkpt lat="39.866030244156718" lon="3.173408657312393">
        <ele>426.95999999999998</ele>
        <time>2014-09-02T12:04:04Z</time>
      </trkpt>
      <trkpt lat="39.866004176437855" lon="3.173376638442278">
        <ele>426</ele>
        <time>2014-09-02T12:04:09Z</time>
      </trkpt>
      <trkpt lat="39.865987161174417" lon="3.173362137749791">
        <ele>426.95999999999998</ele>
        <time>2014-09-02T12:04:22Z</time>
      </trkpt>
      <trkpt lat="39.865985820069909" lon="3.173365406692028">
        <ele>428.39999999999998</ele>
        <time>2014-09-02T12:04:27Z</time>
      </trkpt>
      <trkpt lat="39.865984311327338" lon="3.173370016738772">
        <ele>426.48000000000002</ele>
        <time>2014-09-02T12:04:28Z</time>
      </trkpt>
      <trkpt lat="39.865982886403799" lon="3.173372196033597">
        <ele>428.39999999999998</ele>
        <time>2014-09-02T12:04:29Z</time>
      </trkpt>
      <trkpt lat="39.865984311327338" lon="3.173370016738772">
        <ele>426.95999999999998</ele>
        <time>2014-09-02T12:04:30Z</time>
      </trkpt>
      <trkpt lat="39.86598682589829" lon="3.173380829393864">
        <ele>429.85000000000002</ele>
        <time>2014-09-02T12:04:33Z</time>
      </trkpt>
      <trkpt lat="39.865988167002797" lon="3.173384349793196">
        <ele>426.48000000000002</ele>
        <time>2014-09-02T12:04:34Z</time>
      </trkpt>
      <trkpt lat="39.86598682589829" lon="3.173389211297035">
        <ele>425.04000000000002</ele>
        <time>2014-09-02T12:04:35Z</time>
      </trkpt>
      <trkpt lat="39.865986742079258" lon="3.173385439440608">
        <ele>429.37</ele>
        <time>2014-09-02T12:04:36Z</time>
      </trkpt>
      <trkpt lat="39.865987915545702" lon="3.173388373106718">
        <ele>427.44</ele>
        <time>2014-09-02T12:04:37Z</time>
      </trkpt>
      <trkpt lat="39.865986742079258" lon="3.173385439440608">
        <ele>427.44</ele>
        <time>2014-09-02T12:04:41Z</time>
      </trkpt>
      <trkpt lat="39.865988669916987" lon="3.173386193811894">
        <ele>426.48000000000002</ele>
        <time>2014-09-02T12:04:55Z</time>
      </trkpt>
      <trkpt lat="39.865988586097956" lon="3.173381667584181">
        <ele>428.39999999999998</ele>
        <time>2014-09-02T12:04:56Z</time>
      </trkpt>
      <trkpt lat="39.865988083183765" lon="3.173376554623246">
        <ele>414.47000000000003</ele>
        <time>2014-09-02T12:04:57Z</time>
      </trkpt>
      <trkpt lat="39.865990933030844" lon="3.173374962061644">
        <ele>434.64999999999998</ele>
        <time>2014-09-02T12:04:58Z</time>
      </trkpt>
      <trkpt lat="39.865990597754717" lon="3.173373704776168">
        <ele>426.48000000000002</ele>
        <time>2014-09-02T12:05:00Z</time>
      </trkpt>
      <trkpt lat="39.865990597754717" lon="3.173373704776168">
        <ele>428.88999999999999</ele>
        <time>2014-09-02T12:05:01Z</time>
      </trkpt>
      <trkpt lat="39.865987747907639" lon="3.173377476632595">
        <ele>427.44</ele>
        <time>2014-09-02T12:05:26Z</time>
      </trkpt>
      <trkpt lat="39.865961009636521" lon="3.17340555600822">
        <ele>426.95999999999998</ele>
        <time>2014-09-02T12:05:52Z</time>
      </trkpt>
      <trkpt lat="39.865961009636521" lon="3.17340555600822">
        <ele>430.81</ele>
        <time>2014-09-02T12:05:55Z</time>
      </trkpt>
      <trkpt lat="39.865965200588107" lon="3.173412261530757">
        <ele>427.44</ele>
        <time>2014-09-02T12:05:56Z</time>
      </trkpt>
      <trkpt lat="39.865908706560731" lon="3.173510832712054">
        <ele>426.48000000000002</ele>
        <time>2014-09-02T12:06:14Z</time>
      </trkpt>
      <trkpt lat="39.865904347971082" lon="3.173520807176828">
        <ele>426.48000000000002</ele>
        <time>2014-09-02T12:06:15Z</time>
      </trkpt>
      <trkpt lat="39.865932343527675" lon="3.173482250422239">
        <ele>426.48000000000002</ele>
        <time>2014-09-02T12:06:30Z</time>
      </trkpt>
      <trkpt lat="39.865932343527675" lon="3.173482250422239">
        <ele>426</ele>
        <time>2014-09-02T12:06:48Z</time>
      </trkpt>
      <trkpt lat="39.865996548905969" lon="3.173390552401543">
        <ele>421.68000000000001</ele>
        <time>2014-09-02T12:07:01Z</time>
      </trkpt>
      <trkpt lat="39.865979366004467" lon="3.173360209912062">
        <ele>425.51999999999998</ele>
        <time>2014-09-02T12:07:05Z</time>
      </trkpt>
      <trkpt lat="39.86597802489996" lon="3.173339171335101">
        <ele>424.07999999999998</ele>
        <time>2014-09-02T12:07:14Z</time>
      </trkpt>
      <trkpt lat="39.86597802489996" lon="3.173339171335101">
        <ele>423.60000000000002</ele>
        <time>2014-09-02T12:07:29Z</time>
      </trkpt>
      <trkpt lat="39.865966541692615" lon="3.173224171623588">
        <ele>422.63999999999999</ele>
        <time>2014-09-02T12:07:39Z</time>
      </trkpt>
      <trkpt lat="39.865966541692615" lon="3.173224171623588">
        <ele>422.16000000000003</ele>
        <time>2014-09-02T12:07:40Z</time>
      </trkpt>
      <trkpt lat="39.865974001586437" lon="3.173137251287699">
        <ele>420.23000000000002</ele>
        <time>2014-09-02T12:07:49Z</time>
      </trkpt>
      <trkpt lat="39.865978946909308" lon="3.173097018152475">
        <ele>419.26999999999998</ele>
        <time>2014-09-02T12:07:57Z</time>
      </trkpt>
      <trkpt lat="39.865978946909308" lon="3.173097018152475">
        <ele>418.31</ele>
        <time>2014-09-02T12:08:00Z</time>
      </trkpt>
      <trkpt lat="39.865970313549042" lon="3.173070447519422">
        <ele>417.82999999999998</ele>
        <time>2014-09-02T12:08:02Z</time>
      </trkpt>
      <trkpt lat="39.865937205031514" lon="3.172989143058658">
        <ele>414.47000000000003</ele>
        <time>2014-09-02T12:08:14Z</time>
      </trkpt>
      <trkpt lat="39.865923961624503" lon="3.172965254634619">
        <ele>413.01999999999998</ele>
        <time>2014-09-02T12:08:17Z</time>
      </trkpt>
      <trkpt lat="39.865918345749378" lon="3.172874143347144">
        <ele>412.54000000000002</ele>
        <time>2014-09-02T12:08:25Z</time>
      </trkpt>
      <trkpt lat="39.865902420133352" lon="3.172833491116762">
        <ele>411.57999999999998</ele>
        <time>2014-09-02T12:08:30Z</time>
      </trkpt>
      <trkpt lat="39.865882219746709" lon="3.172776577994227">
        <ele>407.25999999999999</ele>
        <time>2014-09-02T12:08:37Z</time>
      </trkpt>
      <trkpt lat="39.865882219746709" lon="3.172776577994227">
        <ele>408.22000000000003</ele>
        <time>2014-09-02T12:08:38Z</time>
      </trkpt>
      <trkpt lat="39.865882219746709" lon="3.172776577994227">
        <ele>412.06</ele>
        <time>2014-09-02T12:08:40Z</time>
      </trkpt>
      <trkpt lat="39.86587886698544" lon="3.172770040109754">
        <ele>408.22000000000003</ele>
        <time>2014-09-02T12:08:42Z</time>
      </trkpt>
      <trkpt lat="39.865878531709313" lon="3.172762664034963">
        <ele>407.25999999999999</ele>
        <time>2014-09-02T12:08:43Z</time>
      </trkpt>
      <trkpt lat="39.865887500345707" lon="3.172742882743478">
        <ele>409.66000000000003</ele>
        <time>2014-09-02T12:08:45Z</time>
      </trkpt>
      <trkpt lat="39.865887835621834" lon="3.172730561345816">
        <ele>406.29000000000002</ele>
        <time>2014-09-02T12:08:46Z</time>
      </trkpt>
      <trkpt lat="39.865873167291284" lon="3.172696530818939">
        <ele>408.69999999999999</ele>
        <time>2014-09-02T12:08:49Z</time>
      </trkpt>
      <trkpt lat="39.865861600264907" lon="3.172681024298072">
        <ele>408.22000000000003</ele>
        <time>2014-09-02T12:09:03Z</time>
      </trkpt>
      <trkpt lat="39.865854810923338" lon="3.172670966014266">
        <ele>407.25999999999999</ele>
        <time>2014-09-02T12:09:06Z</time>
      </trkpt>
      <trkpt lat="39.865845171734691" lon="3.172639617696405">
        <ele>404.85000000000002</ele>
        <time>2014-09-02T12:09:08Z</time>
      </trkpt>
      <trkpt lat="39.865834610536695" lon="3.172630649060011">
        <ele>408.22000000000003</ele>
        <time>2014-09-02T12:09:09Z</time>
      </trkpt>
      <trkpt lat="39.865824216976762" lon="3.172625619918108">
        <ele>407.25999999999999</ele>
        <time>2014-09-02T12:09:10Z</time>
      </trkpt>
      <trkpt lat="39.865810554474592" lon="3.172603575512767">
        <ele>405.81</ele>
        <time>2014-09-02T12:09:12Z</time>
      </trkpt>
      <trkpt lat="39.865786833688617" lon="3.172582285478711">
        <ele>404.37</ele>
        <time>2014-09-02T12:09:15Z</time>
      </trkpt>
      <trkpt lat="39.865783480927348" lon="3.172558229416609">
        <ele>404.37</ele>
        <time>2014-09-02T12:09:19Z</time>
      </trkpt>
      <trkpt lat="39.865731345489621" lon="3.172539789229631">
        <ele>401.97000000000003</ele>
        <time>2014-09-02T12:09:29Z</time>
      </trkpt>
      <trkpt lat="39.865743750706315" lon="3.172439709305763">
        <ele>400.52999999999997</ele>
        <time>2014-09-02T12:09:35Z</time>
      </trkpt>
      <trkpt lat="39.865754060447216" lon="3.17234524525702">
        <ele>400.52999999999997</ele>
        <time>2014-09-02T12:09:45Z</time>
      </trkpt>
      <trkpt lat="39.865737715736032" lon="3.172312220558524">
        <ele>399.56999999999999</ele>
        <time>2014-09-02T12:09:49Z</time>
      </trkpt>
      <trkpt lat="39.86573570407927" lon="3.172299563884735">
        <ele>399.56999999999999</ele>
        <time>2014-09-02T12:09:51Z</time>
      </trkpt>
      <trkpt lat="39.865723801776767" lon="3.172241477295756">
        <ele>399.07999999999998</ele>
        <time>2014-09-02T12:09:56Z</time>
      </trkpt>
      <trkpt lat="39.865664876997471" lon="3.172167465090752">
        <ele>398.12</ele>
        <time>2014-09-02T12:10:03Z</time>
      </trkpt>
      <trkpt lat="39.865601258352399" lon="3.172078533098102">
        <ele>396.68000000000001</ele>
        <time>2014-09-02T12:10:13Z</time>
      </trkpt>
      <trkpt lat="39.865564797073603" lon="3.172020949423313">
        <ele>392.83999999999997</ele>
        <time>2014-09-02T12:10:30Z</time>
      </trkpt>
      <trkpt lat="39.86555197276175" lon="3.172009885311127">
        <ele>396.68000000000001</ele>
        <time>2014-09-02T12:10:32Z</time>
      </trkpt>
      <trkpt lat="39.865546021610498" lon="3.172005526721478">
        <ele>396.19999999999999</ele>
        <time>2014-09-02T12:10:33Z</time>
      </trkpt>
      <trkpt lat="39.865525905042887" lon="3.171992283314467">
        <ele>395.24000000000001</ele>
        <time>2014-09-02T12:10:35Z</time>
      </trkpt>
      <trkpt lat="39.865493299439549" lon="3.17194014787674">
        <ele>396.68000000000001</ele>
        <time>2014-09-02T12:10:40Z</time>
      </trkpt>
      <trkpt lat="39.865473015233874" lon="3.171910559758544">
        <ele>393.31999999999999</ele>
        <time>2014-09-02T12:10:42Z</time>
      </trkpt>
      <trkpt lat="39.865466896444559" lon="3.17189815454185">
        <ele>394.27999999999997</ele>
        <time>2014-09-02T12:10:43Z</time>
      </trkpt>
      <trkpt lat="39.865445857867599" lon="3.171879211440682">
        <ele>393.80000000000001</ele>
        <time>2014-09-02T12:10:46Z</time>
      </trkpt>
      <trkpt lat="39.86539464443922" lon="3.171853814274073">
        <ele>392.36000000000001</ele>
        <time>2014-09-02T12:10:52Z</time>
      </trkpt>
      <trkpt lat="39.865381317213178" lon="3.171838391572237">
        <ele>392.36000000000001</ele>
        <time>2014-09-02T12:10:54Z</time>
      </trkpt>
      <trkpt lat="39.865356758236885" lon="3.171822298318148">
        <ele>391.38999999999999</ele>
        <time>2014-09-02T12:10:59Z</time>
      </trkpt>
      <trkpt lat="39.865320967510343" lon="3.171824645251036">
        <ele>388.50999999999999</ele>
        <time>2014-09-02T12:11:09Z</time>
      </trkpt>
      <trkpt lat="39.865303449332714" lon="3.171812491491437">
        <ele>386.11000000000001</ele>
        <time>2014-09-02T12:11:14Z</time>
      </trkpt>
      <trkpt lat="39.865209823474288" lon="3.171775778755546">
        <ele>384.66000000000003</ele>
        <time>2014-09-02T12:11:25Z</time>
      </trkpt>
      <trkpt lat="39.865153999999166" lon="3.171704951673746">
        <ele>382.74000000000001</ele>
        <time>2014-09-02T12:11:34Z</time>
      </trkpt>
      <trkpt lat="39.86514444462955" lon="3.171668741852045">
        <ele>381.77999999999997</ele>
        <time>2014-09-02T12:11:38Z</time>
      </trkpt>
      <trkpt lat="39.865074288100004" lon="3.171618953347206">
        <ele>379.38</ele>
        <time>2014-09-02T12:11:49Z</time>
      </trkpt>
      <trkpt lat="39.865008238703012" lon="3.171554245054722">
        <ele>376.97000000000003</ele>
        <time>2014-09-02T12:11:59Z</time>
      </trkpt>
      <trkpt lat="39.864965826272964" lon="3.171555083245039">
        <ele>376.00999999999999</ele>
        <time>2014-09-02T12:12:10Z</time>
      </trkpt>
      <trkpt lat="39.864954259246588" lon="3.171544438228011">
        <ele>376.00999999999999</ele>
        <time>2014-09-02T12:12:12Z</time>
      </trkpt>
      <trkpt lat="39.86492064781487" lon="3.171531949192286">
        <ele>375.05000000000001</ele>
        <time>2014-09-02T12:12:21Z</time>
      </trkpt>
      <trkpt lat="39.864917378872633" lon="3.17153362557292">
        <ele>374.08999999999997</ele>
        <time>2014-09-02T12:12:26Z</time>
      </trkpt>
      <trkpt lat="39.864901034161448" lon="3.171507474035025">
        <ele>372.17000000000002</ele>
        <time>2014-09-02T12:12:31Z</time>
      </trkpt>
      <trkpt lat="39.86486004665494" lon="3.171458607539535">
        <ele>370.24000000000001</ele>
        <time>2014-09-02T12:12:41Z</time>
      </trkpt>
      <trkpt lat="39.864853592589498" lon="3.171455170959234">
        <ele>369.27999999999997</ele>
        <time>2014-09-02T12:12:45Z</time>
      </trkpt>
      <trkpt lat="39.864839510992169" lon="3.171389708295465">
        <ele>367.83999999999997</ele>
        <time>2014-09-02T12:12:52Z</time>
      </trkpt>
      <trkpt lat="39.864821322262287" lon="3.171351654455066">
        <ele>365.44</ele>
        <time>2014-09-02T12:12:58Z</time>
      </trkpt>
      <trkpt lat="39.86474328674376" lon="3.171322485432029">
        <ele>364</ele>
        <time>2014-09-02T12:13:08Z</time>
      </trkpt>
      <trkpt lat="39.864729037508368" lon="3.171277390792966">
        <ele>362.55000000000001</ele>
        <time>2014-09-02T12:13:16Z</time>
      </trkpt>
      <trkpt lat="39.864688720554113" lon="3.171260040253401">
        <ele>360.14999999999998</ele>
        <time>2014-09-02T12:13:21Z</time>
      </trkpt>
      <trkpt lat="39.864660557359457" lon="3.171247970312834">
        <ele>359.19</ele>
        <time>2014-09-02T12:13:27Z</time>
      </trkpt>
      <trkpt lat="39.864610182121396" lon="3.171181753277779">
        <ele>357.26999999999998</ele>
        <time>2014-09-02T12:13:38Z</time>
      </trkpt>
      <trkpt lat="39.86455318517983" lon="3.171117380261421">
        <ele>355.82999999999998</ele>
        <time>2014-09-02T12:13:47Z</time>
      </trkpt>
      <trkpt lat="39.86454488709569" lon="3.171077566221356">
        <ele>354.86000000000001</ele>
        <time>2014-09-02T12:13:51Z</time>
      </trkpt>
      <trkpt lat="39.864530637860298" lon="3.171033561229706">
        <ele>353.42000000000002</ele>
        <time>2014-09-02T12:13:56Z</time>
      </trkpt>
      <trkpt lat="39.864484202116728" lon="3.170942785218358">
        <ele>351.5</ele>
        <time>2014-09-02T12:14:06Z</time>
      </trkpt>
      <trkpt lat="39.864481519907713" lon="3.170940186828375">
        <ele>350.54000000000002</ele>
        <time>2014-09-02T12:14:08Z</time>
      </trkpt>
      <trkpt lat="39.864448327571154" lon="3.170909676700831">
        <ele>350.06</ele>
        <time>2014-09-02T12:14:11Z</time>
      </trkpt>
      <trkpt lat="39.86444279551506" lon="3.170850081369281">
        <ele>348.62</ele>
        <time>2014-09-02T12:14:17Z</time>
      </trkpt>
      <trkpt lat="39.864424271509051" lon="3.170815380290151">
        <ele>347.64999999999998</ele>
        <time>2014-09-02T12:14:20Z</time>
      </trkpt>
      <trkpt lat="39.864414967596531" lon="3.170760478824377">
        <ele>347.17000000000002</ele>
        <time>2014-09-02T12:14:25Z</time>
      </trkpt>
      <trkpt lat="39.864368196576834" lon="3.170703817158938">
        <ele>344.29000000000002</ele>
        <time>2014-09-02T12:14:32Z</time>
      </trkpt>
      <trkpt lat="39.864318743348122" lon="3.170630307868123">
        <ele>342.37</ele>
        <time>2014-09-02T12:14:41Z</time>
      </trkpt>
      <trkpt lat="39.86427029594779" lon="3.170545063912869">
        <ele>340.44</ele>
        <time>2014-09-02T12:14:50Z</time>
      </trkpt>
      <trkpt lat="39.864242970943451" lon="3.170526875182986">
        <ele>339.95999999999998</ele>
        <time>2014-09-02T12:14:53Z</time>
      </trkpt>
      <trkpt lat="39.864207012578845" lon="3.170421849936247">
        <ele>338.04000000000002</ele>
        <time>2014-09-02T12:15:02Z</time>
      </trkpt>
      <trkpt lat="39.86418379470706" lon="3.170391591265798">
        <ele>337.56</ele>
        <time>2014-09-02T12:15:06Z</time>
      </trkpt>
      <trkpt lat="39.864138783887029" lon="3.17033895291388">
        <ele>335.63999999999999</ele>
        <time>2014-09-02T12:15:14Z</time>
      </trkpt>
      <trkpt lat="39.864138783887029" lon="3.17033895291388">
        <ele>335.16000000000003</ele>
        <time>2014-09-02T12:15:15Z</time>
      </trkpt>
      <trkpt lat="39.864135263487697" lon="3.170314142480493">
        <ele>335.16000000000003</ele>
        <time>2014-09-02T12:15:17Z</time>
      </trkpt>
      <trkpt lat="39.864080026745796" lon="3.170224791392684">
        <ele>332.75</ele>
        <time>2014-09-02T12:15:27Z</time>
      </trkpt>
      <trkpt lat="39.864060916006565" lon="3.170212302356958">
        <ele>332.26999999999998</ele>
        <time>2014-09-02T12:15:29Z</time>
      </trkpt>
      <trkpt lat="39.864012720063329" lon="3.170206267386675">
        <ele>330.82999999999998</ele>
        <time>2014-09-02T12:15:34Z</time>
      </trkpt>
      <trkpt lat="39.864013139158487" lon="3.170175338163972">
        <ele>329.87</ele>
        <time>2014-09-02T12:15:40Z</time>
      </trkpt>
      <trkpt lat="39.863981371745467" lon="3.170224456116557">
        <ele>327.94999999999999</ele>
        <time>2014-09-02T12:15:49Z</time>
      </trkpt>
      <trkpt lat="39.863968463614583" lon="3.170225964859128">
        <ele>327.94999999999999</ele>
        <time>2014-09-02T12:15:50Z</time>
      </trkpt>
      <trkpt lat="39.863895373418927" lon="3.170202160254121">
        <ele>326.01999999999998</ele>
        <time>2014-09-02T12:16:01Z</time>
      </trkpt>
      <trkpt lat="39.863865533843637" lon="3.170202663168311">
        <ele>323.62</ele>
        <time>2014-09-02T12:16:06Z</time>
      </trkpt>
      <trkpt lat="39.863868718966842" lon="3.170204255729914">
        <ele>323.62</ele>
        <time>2014-09-02T12:16:07Z</time>
      </trkpt>
      <trkpt lat="39.863823708146811" lon="3.170216158032417">
        <ele>323.13999999999999</ele>
        <time>2014-09-02T12:16:12Z</time>
      </trkpt>
      <trkpt lat="39.863811889663339" lon="3.170223366469145">
        <ele>322.66000000000003</ele>
        <time>2014-09-02T12:16:15Z</time>
      </trkpt>
      <trkpt lat="39.8637914378196" lon="3.170236274600029">
        <ele>321.69999999999999</ele>
        <time>2014-09-02T12:16:17Z</time>
      </trkpt>
      <trkpt lat="39.863777942955494" lon="3.170248093083501">
        <ele>320.74000000000001</ele>
        <time>2014-09-02T12:16:21Z</time>
      </trkpt>
      <trkpt lat="39.863727064803243" lon="3.170248931273818">
        <ele>318.32999999999998</ele>
        <time>2014-09-02T12:16:29Z</time>
      </trkpt>
      <trkpt lat="39.863718431442976" lon="3.170218002051115">
        <ele>317.37</ele>
        <time>2014-09-02T12:16:34Z</time>
      </trkpt>
      <trkpt lat="39.863691693171859" lon="3.170143822208047">
        <ele>318.81</ele>
        <time>2014-09-02T12:16:42Z</time>
      </trkpt>
      <trkpt lat="39.863671660423279" lon="3.170137954875827">
        <ele>312.56999999999999</ele>
        <time>2014-09-02T12:16:44Z</time>
      </trkpt>
      <trkpt lat="39.86367710866034" lon="3.170136865228415">
        <ele>315.44999999999999</ele>
        <time>2014-09-02T12:16:45Z</time>
      </trkpt>
      <trkpt lat="39.863643078133464" lon="3.170111803337932">
        <ele>312.56999999999999</ele>
        <time>2014-09-02T12:16:50Z</time>
      </trkpt>
      <trkpt lat="39.863611059263349" lon="3.170110881328583">
        <ele>314.49000000000001</ele>
        <time>2014-09-02T12:16:55Z</time>
      </trkpt>
      <trkpt lat="39.863601084798574" lon="3.170114569365978">
        <ele>311.12</ele>
        <time>2014-09-02T12:16:57Z</time>
      </trkpt>
      <trkpt lat="39.86359354108572" lon="3.170113647356629">
        <ele>311.60000000000002</ele>
        <time>2014-09-02T12:16:58Z</time>
      </trkpt>
      <trkpt lat="39.8635617736727" lon="3.170094285160303">
        <ele>309.19999999999999</ele>
        <time>2014-09-02T12:17:05Z</time>
      </trkpt>
      <trkpt lat="39.863520953804255" lon="3.17009705118835">
        <ele>309.19999999999999</ele>
        <time>2014-09-02T12:17:18Z</time>
      </trkpt>
      <trkpt lat="39.863491784781218" lon="3.170119011774659">
        <ele>307.27999999999997</ele>
        <time>2014-09-02T12:17:27Z</time>
      </trkpt>
      <trkpt lat="39.863502765074372" lon="3.170154802501202">
        <ele>305.83999999999997</ele>
        <time>2014-09-02T12:17:45Z</time>
      </trkpt>
      <trkpt lat="39.863466387614608" lon="3.170134937390685">
        <ele>305.83999999999997</ele>
        <time>2014-09-02T12:17:54Z</time>
      </trkpt>
      <trkpt lat="39.863466387614608" lon="3.170134937390685">
        <ele>306.31999999999999</ele>
        <time>2014-09-02T12:18:17Z</time>
      </trkpt>
      <trkpt lat="39.863431099802256" lon="3.170108618214726">
        <ele>304.88</ele>
        <time>2014-09-02T12:18:24Z</time>
      </trkpt>
      <trkpt lat="39.863419951871037" lon="3.170089088380337">
        <ele>303.91000000000003</ele>
        <time>2014-09-02T12:18:29Z</time>
      </trkpt>
      <trkpt lat="39.863377036526799" lon="3.17002085968852">
        <ele>301.02999999999997</ele>
        <time>2014-09-02T12:18:39Z</time>
      </trkpt>
      <trkpt lat="39.863324733451009" lon="3.169983392581344">
        <ele>298.63</ele>
        <time>2014-09-02T12:18:51Z</time>
      </trkpt>
      <trkpt lat="39.863315261900425" lon="3.169979536905885">
        <ele>297.67000000000002</ele>
        <time>2014-09-02T12:18:55Z</time>
      </trkpt>
      <trkpt lat="39.863305706530809" lon="3.169965706765652">
        <ele>297.67000000000002</ele>
        <time>2014-09-02T12:18:58Z</time>
      </trkpt>
      <trkpt lat="39.863291708752513" lon="3.169933184981346">
        <ele>294.30000000000001</ele>
        <time>2014-09-02T12:19:01Z</time>
      </trkpt>
      <trkpt lat="39.863261030986905" lon="3.169894041493535">
        <ele>294.77999999999997</ele>
        <time>2014-09-02T12:19:09Z</time>
      </trkpt>
      <trkpt lat="39.863239740952849" lon="3.169874344021082">
        <ele>294.77999999999997</ele>
        <time>2014-09-02T12:19:11Z</time>
      </trkpt>
      <trkpt lat="39.863231526687741" lon="3.169815083965659">
        <ele>292.86000000000001</ele>
        <time>2014-09-02T12:19:22Z</time>
      </trkpt>
      <trkpt lat="39.863219456747174" lon="3.169834697619081">
        <ele>292.86000000000001</ele>
        <time>2014-09-02T12:19:35Z</time>
      </trkpt>
      <trkpt lat="39.863222222775221" lon="3.169848024845123">
        <ele>292.86000000000001</ele>
        <time>2014-09-02T12:19:38Z</time>
      </trkpt>
      <trkpt lat="39.863203447312117" lon="3.169871913269162">
        <ele>289.00999999999999</ele>
        <time>2014-09-02T12:19:47Z</time>
      </trkpt>
      <trkpt lat="39.863196406513453" lon="3.16986009478569">
        <ele>296.22000000000003</ele>
        <time>2014-09-02T12:19:49Z</time>
      </trkpt>
      <trkpt lat="39.86319431103766" lon="3.169853892177343">
        <ele>291.42000000000002</ele>
        <time>2014-09-02T12:19:50Z</time>
      </trkpt>
      <trkpt lat="39.86318894661963" lon="3.169829668477178">
        <ele>289.49000000000001</ele>
        <time>2014-09-02T12:19:59Z</time>
      </trkpt>
      <trkpt lat="39.863183330744505" lon="3.169791363179684">
        <ele>298.14999999999998</ele>
        <time>2014-09-02T12:20:01Z</time>
      </trkpt>
      <trkpt lat="39.863166566938162" lon="3.16975062713027">
        <ele>288.52999999999997</ele>
        <time>2014-09-02T12:20:05Z</time>
      </trkpt>
      <trkpt lat="39.863168494775891" lon="3.169755740091205">
        <ele>283.73000000000002</ele>
        <time>2014-09-02T12:20:10Z</time>
      </trkpt>
      <trkpt lat="39.863164722919464" lon="3.169756410643458">
        <ele>298.63</ele>
        <time>2014-09-02T12:20:11Z</time>
      </trkpt>
      <trkpt lat="39.863166231662035" lon="3.169756913557649">
        <ele>293.81999999999999</ele>
        <time>2014-09-02T12:20:12Z</time>
      </trkpt>
      <trkpt lat="39.863154413178563" lon="3.169749621301889">
        <ele>288.05000000000001</ele>
        <time>2014-09-02T12:20:14Z</time>
      </trkpt>
      <trkpt lat="39.863150389865041" lon="3.169748866930604">
        <ele>288.05000000000001</ele>
        <time>2014-09-02T12:20:15Z</time>
      </trkpt>
      <trkpt lat="39.863144522532821" lon="3.169739814475179">
        <ele>286.13</ele>
        <time>2014-09-02T12:20:19Z</time>
      </trkpt>
      <trkpt lat="39.863124154508114" lon="3.169735874980688">
        <ele>283.25</ele>
        <time>2014-09-02T12:20:26Z</time>
      </trkpt>
      <trkpt lat="39.863111497834325" lon="3.169727828353643">
        <ele>286.13</ele>
        <time>2014-09-02T12:20:28Z</time>
      </trkpt>
      <trkpt lat="39.863106468692422" lon="3.169727828353643">
        <ele>285.64999999999998</ele>
        <time>2014-09-02T12:20:29Z</time>
      </trkpt>
      <trkpt lat="39.86307805404067" lon="3.169738808646798">
        <ele>283.73000000000002</ele>
        <time>2014-09-02T12:20:38Z</time>
      </trkpt>
      <trkpt lat="39.863033713772893" lon="3.169749286025763">
        <ele>280.83999999999997</ele>
        <time>2014-09-02T12:20:49Z</time>
      </trkpt>
      <trkpt lat="39.862993899732828" lon="3.169740233570337">
        <ele>280.36000000000001</ele>
        <time>2014-09-02T12:20:56Z</time>
      </trkpt>
      <trkpt lat="39.862990044057369" lon="3.169718272984028">
        <ele>277.48000000000002</ele>
        <time>2014-09-02T12:21:00Z</time>
      </trkpt>
      <trkpt lat="39.862966407090425" lon="3.16969932988286">
        <ele>276.51999999999998</ele>
        <time>2014-09-02T12:21:03Z</time>
      </trkpt>
      <trkpt lat="39.862939585000277" lon="3.169696060940623">
        <ele>275.56</ele>
        <time>2014-09-02T12:21:13Z</time>
      </trkpt>
      <trkpt lat="39.862932460382581" lon="3.169711316004396">
        <ele>274.58999999999997</ele>
        <time>2014-09-02T12:21:18Z</time>
      </trkpt>
      <trkpt lat="39.862903291359544" lon="3.169692289084196">
        <ele>272.67000000000002</ele>
        <time>2014-09-02T12:21:26Z</time>
      </trkpt>
      <trkpt lat="39.862871021032333" lon="3.169633783400059">
        <ele>269.79000000000002</ele>
        <time>2014-09-02T12:21:35Z</time>
      </trkpt>
      <trkpt lat="39.862847048789263" lon="3.169592460617423">
        <ele>271.23000000000002</ele>
        <time>2014-09-02T12:21:40Z</time>
      </trkpt>
      <trkpt lat="39.862837241962552" lon="3.169563878327608">
        <ele>269.79000000000002</ele>
        <time>2014-09-02T12:21:42Z</time>
      </trkpt>
      <trkpt lat="39.862799439579248" lon="3.169493889436126">
        <ele>272.67000000000002</ele>
        <time>2014-09-02T12:21:47Z</time>
      </trkpt>
      <trkpt lat="39.862798936665058" lon="3.169488860294223">
        <ele>268.35000000000002</ele>
        <time>2014-09-02T12:21:50Z</time>
      </trkpt>
      <trkpt lat="39.862770270556211" lon="3.169444100931287">
        <ele>269.31</ele>
        <time>2014-09-02T12:21:55Z</time>
      </trkpt>
      <trkpt lat="39.862761301919818" lon="3.169441167265177">
        <ele>268.82999999999998</ele>
        <time>2014-09-02T12:21:57Z</time>
      </trkpt>
      <trkpt lat="39.862733474001288" lon="3.169419877231121">
        <ele>268.35000000000002</ele>
        <time>2014-09-02T12:22:01Z</time>
      </trkpt>
      <trkpt lat="39.862734647467732" lon="3.169385259971023">
        <ele>267.38</ele>
        <time>2014-09-02T12:22:12Z</time>
      </trkpt>
      <trkpt lat="39.862722745165229" lon="3.169367825612426">
        <ele>264.01999999999998</ele>
        <time>2014-09-02T12:22:16Z</time>
      </trkpt>
      <trkpt lat="39.862715201452374" lon="3.169331531971693">
        <ele>266.42000000000002</ele>
        <time>2014-09-02T12:22:22Z</time>
      </trkpt>
      <trkpt lat="39.862715201452374" lon="3.169331531971693">
        <ele>265.94</ele>
        <time>2014-09-02T12:22:50Z</time>
      </trkpt>
      <trkpt lat="39.86271545290947" lon="3.169315187260509">
        <ele>262.10000000000002</ele>
        <time>2014-09-02T12:22:51Z</time>
      </trkpt>
      <trkpt lat="39.862712770700455" lon="3.1693000998348">
        <ele>268.35000000000002</ele>
        <time>2014-09-02T12:22:52Z</time>
      </trkpt>
      <trkpt lat="39.862703802064061" lon="3.169238828122616">
        <ele>262.57999999999998</ele>
        <time>2014-09-02T12:22:55Z</time>
      </trkpt>
      <trkpt lat="39.862698186188936" lon="3.169221142306924">
        <ele>266.42000000000002</ele>
        <time>2014-09-02T12:22:56Z</time>
      </trkpt>
      <trkpt lat="39.862684356048703" lon="3.169167917221785">
        <ele>265.94</ele>
        <time>2014-09-02T12:22:59Z</time>
      </trkpt>
      <trkpt lat="39.862669268622994" lon="3.16909147426486">
        <ele>264.01999999999998</ele>
        <time>2014-09-02T12:23:03Z</time>
      </trkpt>
      <trkpt lat="39.862660719081759" lon="3.169058617204428">
        <ele>264.5</ele>
        <time>2014-09-02T12:23:07Z</time>
      </trkpt>
      <trkpt lat="39.862636663019657" lon="3.168917382135987">
        <ele>263.06</ele>
        <time>2014-09-02T12:23:16Z</time>
      </trkpt>
      <trkpt lat="39.862638339400291" lon="3.168899863958359">
        <ele>262.10000000000002</ele>
        <time>2014-09-02T12:23:17Z</time>
      </trkpt>
      <trkpt lat="39.862603722140193" lon="3.168767597526312">
        <ele>260.64999999999998</ele>
        <time>2014-09-02T12:23:26Z</time>
      </trkpt>
      <trkpt lat="39.862585617229342" lon="3.168709427118301">
        <ele>259.20999999999998</ele>
        <time>2014-09-02T12:23:29Z</time>
      </trkpt>
      <trkpt lat="39.862522585317492" lon="3.168714623898268">
        <ele>258.73000000000002</ele>
        <time>2014-09-02T12:23:33Z</time>
      </trkpt>
      <trkpt lat="39.86248922534287" lon="3.168721245601773">
        <ele>257.76999999999998</ele>
        <time>2014-09-02T12:23:40Z</time>
      </trkpt>
      <trkpt lat="39.862495427951217" lon="3.168641701340675">
        <ele>255.84999999999999</ele>
        <time>2014-09-02T12:23:48Z</time>
      </trkpt>
      <trkpt lat="39.862416805699468" lon="3.168620998039842">
        <ele>253.93000000000001</ele>
        <time>2014-09-02T12:23:57Z</time>
      </trkpt>
      <trkpt lat="39.862404735758901" lon="3.168618986383081">
        <ele>252.96000000000001</ele>
        <time>2014-09-02T12:23:59Z</time>
      </trkpt>
      <trkpt lat="39.862370956689119" lon="3.16852955147624">
        <ele>250.56</ele>
        <time>2014-09-02T12:24:07Z</time>
      </trkpt>
      <trkpt lat="39.862328041344881" lon="3.168506752699614">
        <ele>250.56</ele>
        <time>2014-09-02T12:24:11Z</time>
      </trkpt>
      <trkpt lat="39.862245144322515" lon="3.168447660282254">
        <ele>248.63999999999999</ele>
        <time>2014-09-02T12:24:21Z</time>
      </trkpt>
      <trkpt lat="39.862220417708158" lon="3.168358644470573">
        <ele>247.19999999999999</ele>
        <time>2014-09-02T12:24:29Z</time>
      </trkpt>
      <trkpt lat="39.862191751599312" lon="3.168346574530006">
        <ele>246.72</ele>
        <time>2014-09-02T12:24:33Z</time>
      </trkpt>
      <trkpt lat="39.862127713859081" lon="3.168358393013477">
        <ele>245.27000000000001</ele>
        <time>2014-09-02T12:24:41Z</time>
      </trkpt>
      <trkpt lat="39.862060574814677" lon="3.168289912864566">
        <ele>243.34999999999999</ele>
        <time>2014-09-02T12:24:49Z</time>
      </trkpt>
      <trkpt lat="39.862060574814677" lon="3.168289912864566">
        <ele>242.87</ele>
        <time>2014-09-02T12:24:50Z</time>
      </trkpt>
      <trkpt lat="39.862044397741556" lon="3.168188408017159">
        <ele>241.91</ele>
        <time>2014-09-02T12:24:57Z</time>
      </trkpt>
      <trkpt lat="39.861988574266434" lon="3.168124202638865">
        <ele>241.43000000000001</ele>
        <time>2014-09-02T12:25:04Z</time>
      </trkpt>
      <trkpt lat="39.861906096339226" lon="3.168069217354059">
        <ele>240.94999999999999</ele>
        <time>2014-09-02T12:25:11Z</time>
      </trkpt>
      <trkpt lat="39.861892266198993" lon="3.168039713054895">
        <ele>239.50999999999999</ele>
        <time>2014-09-02T12:25:16Z</time>
      </trkpt>
      <trkpt lat="39.861841220408678" lon="3.167990427464247">
        <ele>239.99000000000001</ele>
        <time>2014-09-02T12:25:20Z</time>
      </trkpt>
      <trkpt lat="39.861790342256427" lon="3.167951367795467">
        <ele>239.99000000000001</ele>
        <time>2014-09-02T12:25:26Z</time>
      </trkpt>
      <trkpt lat="39.861746001988649" lon="3.167934520170093">
        <ele>239.99000000000001</ele>
        <time>2014-09-02T12:25:31Z</time>
      </trkpt>
      <trkpt lat="39.861720772460103" lon="3.167913816869259">
        <ele>240.47</ele>
        <time>2014-09-02T12:25:35Z</time>
      </trkpt>
      <trkpt lat="39.861689172685146" lon="3.167904177680612">
        <ele>239.99000000000001</ele>
        <time>2014-09-02T12:25:39Z</time>
      </trkpt>
      <trkpt lat="39.861653465777636" lon="3.167825471609831">
        <ele>240.47</ele>
        <time>2014-09-02T12:25:47Z</time>
      </trkpt>
      <trkpt lat="39.86156327649951" lon="3.167779287323356">
        <ele>242.38999999999999</ele>
        <time>2014-09-02T12:25:57Z</time>
      </trkpt>
      <trkpt lat="39.86144601367414" lon="3.167730923742056">
        <ele>243.34999999999999</ele>
        <time>2014-09-02T12:26:08Z</time>
      </trkpt>
      <trkpt lat="39.861343670636415" lon="3.167677614837885">
        <ele>243.83000000000001</ele>
        <time>2014-09-02T12:26:19Z</time>
      </trkpt>
      <trkpt lat="39.861288098618388" lon="3.167662862688303">
        <ele>244.31</ele>
        <time>2014-09-02T12:26:32Z</time>
      </trkpt>
      <trkpt lat="39.861274100840092" lon="3.167665125802159">
        <ele>243.83000000000001</ele>
        <time>2014-09-02T12:26:51Z</time>
      </trkpt>
      <trkpt lat="39.861255660653114" lon="3.167658420279622">
        <ele>243.34999999999999</ele>
        <time>2014-09-02T12:26:53Z</time>
      </trkpt>
      <trkpt lat="39.861233783885837" lon="3.167661856859922">
        <ele>243.83000000000001</ele>
        <time>2014-09-02T12:26:55Z</time>
      </trkpt>
      <trkpt lat="39.861224982887506" lon="3.167661689221859">
        <ele>249.12</ele>
        <time>2014-09-02T12:26:56Z</time>
      </trkpt>
      <trkpt lat="39.861216181889176" lon="3.167663030326366">
        <ele>244.78999999999999</ele>
        <time>2014-09-02T12:26:57Z</time>
      </trkpt>
      <trkpt lat="39.861207799986005" lon="3.16766562871635">
        <ele>239.99000000000001</ele>
        <time>2014-09-02T12:26:58Z</time>
      </trkpt>
      <trkpt lat="39.861198244616389" lon="3.167669484391809">
        <ele>244.78999999999999</ele>
        <time>2014-09-02T12:26:59Z</time>
      </trkpt>
      <trkpt lat="39.861190114170313" lon="3.167668478563428">
        <ele>247.68000000000001</ele>
        <time>2014-09-02T12:27:00Z</time>
      </trkpt>
      <trkpt lat="39.86118164844811" lon="3.16766663454473">
        <ele>245.27000000000001</ele>
        <time>2014-09-02T12:27:01Z</time>
      </trkpt>
      <trkpt lat="39.861175278201699" lon="3.167662024497986">
        <ele>240.47</ele>
        <time>2014-09-02T12:27:02Z</time>
      </trkpt>
      <trkpt lat="39.861167566850781" lon="3.167666802182794">
        <ele>245.75</ele>
        <time>2014-09-02T12:27:03Z</time>
      </trkpt>
      <trkpt lat="39.861159436404705" lon="3.167666718363762">
        <ele>244.31</ele>
        <time>2014-09-02T12:27:04Z</time>
      </trkpt>
      <trkpt lat="39.861097494140267" lon="3.167649451643229">
        <ele>244.31</ele>
        <time>2014-09-02T12:27:11Z</time>
      </trkpt>
      <trkpt lat="39.860994732007384" lon="3.167631011456251">
        <ele>243.83000000000001</ele>
        <time>2014-09-02T12:27:19Z</time>
      </trkpt>
      <trkpt lat="39.860971765592694" lon="3.167623383924365">
        <ele>243.34999999999999</ele>
        <time>2014-09-02T12:27:22Z</time>
      </trkpt>
      <trkpt lat="39.860941674560308" lon="3.16762363538146">
        <ele>242.87</ele>
        <time>2014-09-02T12:27:25Z</time>
      </trkpt>
      <trkpt lat="39.860905213281512" lon="3.167597316205502">
        <ele>241.91</ele>
        <time>2014-09-02T12:27:30Z</time>
      </trkpt>
      <trkpt lat="39.860872272402048" lon="3.167562363669276">
        <ele>240.94999999999999</ele>
        <time>2014-09-02T12:27:36Z</time>
      </trkpt>
      <trkpt lat="39.86087042838335" lon="3.16755523905158">
        <ele>240.94999999999999</ele>
        <time>2014-09-02T12:27:38Z</time>
      </trkpt>
      <trkpt lat="39.860814604908228" lon="3.167544174939394">
        <ele>239.99000000000001</ele>
        <time>2014-09-02T12:27:42Z</time>
      </trkpt>
      <trkpt lat="39.860700527206063" lon="3.167611649259925">
        <ele>238.53999999999999</ele>
        <time>2014-09-02T12:27:51Z</time>
      </trkpt>
      <trkpt lat="39.860699521377683" lon="3.16760360263288">
        <ele>238.06</ele>
        <time>2014-09-02T12:27:55Z</time>
      </trkpt>
      <trkpt lat="39.860645122826099" lon="3.167640566825867">
        <ele>237.09999999999999</ele>
        <time>2014-09-02T12:28:01Z</time>
      </trkpt>
      <trkpt lat="39.860599944368005" lon="3.167599327862263">
        <ele>236.62</ele>
        <time>2014-09-02T12:28:06Z</time>
      </trkpt>
      <trkpt lat="39.860529201105237" lon="3.167572170495987">
        <ele>235.66</ele>
        <time>2014-09-02T12:28:12Z</time>
      </trkpt>
      <trkpt lat="39.860526183620095" lon="3.167567057535052">
        <ele>235.18000000000001</ele>
        <time>2014-09-02T12:28:13Z</time>
      </trkpt>
      <trkpt lat="39.860469941049814" lon="3.167539061978459">
        <ele>234.22</ele>
        <time>2014-09-02T12:28:18Z</time>
      </trkpt>
      <trkpt lat="39.86044873483479" lon="3.167495476081967">
        <ele>232.78</ele>
        <time>2014-09-02T12:28:24Z</time>
      </trkpt>
      <trkpt lat="39.860396096482873" lon="3.167415428906679">
        <ele>231.81</ele>
        <time>2014-09-02T12:28:32Z</time>
      </trkpt>
      <trkpt lat="39.860320826992393" lon="3.16744040697813">
        <ele>230.37</ele>
        <time>2014-09-02T12:28:38Z</time>
      </trkpt>
      <trkpt lat="39.860237762331963" lon="3.167399251833558">
        <ele>229.88999999999999</ele>
        <time>2014-09-02T12:28:45Z</time>
      </trkpt>
      <trkpt lat="39.860169366002083" lon="3.167373100295663">
        <ele>229.88999999999999</ele>
        <time>2014-09-02T12:28:53Z</time>
      </trkpt>
      <trkpt lat="39.860120918601751" lon="3.167369915172458">
        <ele>228.93000000000001</ele>
        <time>2014-09-02T12:28:58Z</time>
      </trkpt>
      <trkpt lat="39.860051348805428" lon="3.167367819696665">
        <ele>228.93000000000001</ele>
        <time>2014-09-02T12:29:02Z</time>
      </trkpt>
      <trkpt lat="39.8599957767874" lon="3.167293472215533">
        <ele>227.97</ele>
        <time>2014-09-02T12:29:09Z</time>
      </trkpt>
      <trkpt lat="39.859906928613782" lon="3.167260950431228">
        <ele>227.00999999999999</ele>
        <time>2014-09-02T12:29:17Z</time>
      </trkpt>
      <trkpt lat="39.85986334271729" lon="3.167268158867955">
        <ele>226.53</ele>
        <time>2014-09-02T12:29:21Z</time>
      </trkpt>
      <trkpt lat="39.859763095155358" lon="3.167249970138073">
        <ele>225.09</ele>
        <time>2014-09-02T12:29:31Z</time>
      </trkpt>
      <trkpt lat="39.859763095155358" lon="3.167249970138073">
        <ele>225.09</ele>
        <time>2014-09-02T12:29:32Z</time>
      </trkpt>
      <trkpt lat="39.859720095992088" lon="3.167318282648921">
        <ele>224.61000000000001</ele>
        <time>2014-09-02T12:29:37Z</time>
      </trkpt>
      <trkpt lat="39.859659494832158" lon="3.167399000376463">
        <ele>225.56999999999999</ele>
        <time>2014-09-02T12:29:44Z</time>
      </trkpt>
      <trkpt lat="39.859642311930656" lon="3.167386008426547">
        <ele>225.09</ele>
        <time>2014-09-02T12:29:49Z</time>
      </trkpt>
      <trkpt lat="39.859606605023146" lon="3.167391372844577">
        <ele>224.12</ele>
        <time>2014-09-02T12:29:57Z</time>
      </trkpt>
      <trkpt lat="39.859530916437507" lon="3.167397994548082">
        <ele>223.63999999999999</ele>
        <time>2014-09-02T12:30:03Z</time>
      </trkpt>
      <trkpt lat="39.859489928930998" lon="3.16739640198648">
        <ele>224.12</ele>
        <time>2014-09-02T12:30:07Z</time>
      </trkpt>
      <trkpt lat="39.85941331833601" lon="3.167430013418198">
        <ele>225.09</ele>
        <time>2014-09-02T12:30:15Z</time>
      </trkpt>
      <trkpt lat="39.859409462660551" lon="3.167447112500668">
        <ele>226.05000000000001</ele>
        <time>2014-09-02T12:30:28Z</time>
      </trkpt>
      <trkpt lat="39.859410300850868" lon="3.167452644556761">
        <ele>225.09</ele>
        <time>2014-09-02T12:30:35Z</time>
      </trkpt>
      <trkpt lat="39.859409211203456" lon="3.167461361736059">
        <ele>224.61000000000001</ele>
        <time>2014-09-02T12:30:46Z</time>
      </trkpt>
      <trkpt lat="39.859414994716644" lon="3.167461529374123">
        <ele>225.09</ele>
        <time>2014-09-02T12:31:00Z</time>
      </trkpt>
      <trkpt lat="39.859414994716644" lon="3.167461529374123">
        <ele>225.09</ele>
        <time>2014-09-02T12:31:26Z</time>
      </trkpt>
      <trkpt lat="39.859414407983422" lon="3.16746580414474">
        <ele>225.09</ele>
        <time>2014-09-02T12:31:47Z</time>
      </trkpt>
      <trkpt lat="39.859411725774407" lon="3.167465971782804">
        <ele>224.12</ele>
        <time>2014-09-02T12:31:55Z</time>
      </trkpt>
      <trkpt lat="39.859383897855878" lon="3.167499164119363">
        <ele>222.68000000000001</ele>
        <time>2014-09-02T12:32:04Z</time>
      </trkpt>
      <trkpt lat="39.859354561194777" lon="3.167535709217191">
        <ele>222.68000000000001</ele>
        <time>2014-09-02T12:32:13Z</time>
      </trkpt>
      <trkpt lat="39.859337881207466" lon="3.16756546497345">
        <ele>220.75999999999999</ele>
        <time>2014-09-02T12:32:16Z</time>
      </trkpt>
      <trkpt lat="39.859331762418151" lon="3.167579295113683">
        <ele>220.75999999999999</ele>
        <time>2014-09-02T12:32:18Z</time>
      </trkpt>
      <trkpt lat="39.859253726899624" lon="3.167688846588135">
        <ele>219.80000000000001</ele>
        <time>2014-09-02T12:32:27Z</time>
      </trkpt>
      <trkpt lat="39.859245344996452" lon="3.167718099430203">
        <ele>220.28</ele>
        <time>2014-09-02T12:32:31Z</time>
      </trkpt>
      <trkpt lat="39.85920762643218" lon="3.167805606499314">
        <ele>219.80000000000001</ele>
        <time>2014-09-02T12:32:37Z</time>
      </trkpt>
      <trkpt lat="39.8591875936836" lon="3.167842905968428">
        <ele>219.80000000000001</ele>
        <time>2014-09-02T12:32:45Z</time>
      </trkpt>
      <trkpt lat="39.859178457409143" lon="3.167854975908995">
        <ele>219.80000000000001</ele>
        <time>2014-09-02T12:32:48Z</time>
      </trkpt>
      <trkpt lat="39.859147612005472" lon="3.167877355590463">
        <ele>219.80000000000001</ele>
        <time>2014-09-02T12:32:56Z</time>
      </trkpt>
      <trkpt lat="39.859124310314655" lon="3.167899316176772">
        <ele>219.31999999999999</ele>
        <time>2014-09-02T12:32:58Z</time>
      </trkpt>
      <trkpt lat="39.859103942289948" lon="3.167905015870929">
        <ele>218.84</ele>
        <time>2014-09-02T12:33:02Z</time>
      </trkpt>
      <trkpt lat="39.859076030552387" lon="3.167876601219177">
        <ele>217.88</ele>
        <time>2014-09-02T12:33:06Z</time>
      </trkpt>
      <trkpt lat="39.859033701941371" lon="3.167952289804816">
        <ele>216.91</ele>
        <time>2014-09-02T12:33:13Z</time>
      </trkpt>
      <trkpt lat="39.859032444655895" lon="3.167948098853231">
        <ele>216.43000000000001</ele>
        <time>2014-09-02T12:33:14Z</time>
      </trkpt>
      <trkpt lat="39.858983997255564" lon="3.168063433840871">
        <ele>216.43000000000001</ele>
        <time>2014-09-02T12:33:22Z</time>
      </trkpt>
      <trkpt lat="39.858908979222178" lon="3.16821095533669">
        <ele>214.99000000000001</ele>
        <time>2014-09-02T12:33:33Z</time>
      </trkpt>
      <trkpt lat="39.858904955908656" lon="3.168239705264568">
        <ele>214.50999999999999</ele>
        <time>2014-09-02T12:33:36Z</time>
      </trkpt>
      <trkpt lat="39.85885382629931" lon="3.168355459347367">
        <ele>213.55000000000001</ele>
        <time>2014-09-02T12:33:43Z</time>
      </trkpt>
      <trkpt lat="39.858753578737378" lon="3.168355794623494">
        <ele>212.59</ele>
        <time>2014-09-02T12:33:51Z</time>
      </trkpt>
      <trkpt lat="39.858745113015175" lon="3.168425196781755">
        <ele>213.06999999999999</ele>
        <time>2014-09-02T12:33:56Z</time>
      </trkpt>
      <trkpt lat="39.858709909021854" lon="3.168487641960383">
        <ele>212.59</ele>
        <time>2014-09-02T12:34:02Z</time>
      </trkpt>
      <trkpt lat="39.858666490763426" lon="3.168527958914638">
        <ele>212.59</ele>
        <time>2014-09-02T12:34:07Z</time>
      </trkpt>
      <trkpt lat="39.858627850189805" lon="3.168610855937004">
        <ele>211.63</ele>
        <time>2014-09-02T12:34:13Z</time>
      </trkpt>
      <trkpt lat="39.858570517972112" lon="3.168689729645848">
        <ele>210.19</ele>
        <time>2014-09-02T12:34:21Z</time>
      </trkpt>
      <trkpt lat="39.858549563214183" lon="3.168702637776732">
        <ele>210.19</ele>
        <time>2014-09-02T12:34:24Z</time>
      </trkpt>
      <trkpt lat="39.858510084450245" lon="3.168717976659536">
        <ele>209.22</ele>
        <time>2014-09-02T12:34:30Z</time>
      </trkpt>
      <trkpt lat="39.858428779989481" lon="3.168773213401437">
        <ele>207.78</ele>
        <time>2014-09-02T12:34:38Z</time>
      </trkpt>
      <trkpt lat="39.858372202143073" lon="3.168764915317297">
        <ele>206.34</ele>
        <time>2014-09-02T12:34:44Z</time>
      </trkpt>
      <trkpt lat="39.858343619853258" lon="3.168747816234827">
        <ele>205.38</ele>
        <time>2014-09-02T12:34:48Z</time>
      </trkpt>
      <trkpt lat="39.858261058107018" lon="3.168759299442172">
        <ele>204.41999999999999</ele>
        <time>2014-09-02T12:34:56Z</time>
      </trkpt>
      <trkpt lat="39.85817807726562" lon="3.168876729905605">
        <ele>202.00999999999999</ele>
        <time>2014-09-02T12:35:05Z</time>
      </trkpt>
      <trkpt lat="39.858145220205188" lon="3.168887626379728">
        <ele>200.56999999999999</ele>
        <time>2014-09-02T12:35:09Z</time>
      </trkpt>
      <trkpt lat="39.8580720461905" lon="3.168920483440161">
        <ele>200.09</ele>
        <time>2014-09-02T12:35:14Z</time>
      </trkpt>
      <trkpt lat="39.858031729236245" lon="3.168916627764702">
        <ele>198.16999999999999</ele>
        <time>2014-09-02T12:35:23Z</time>
      </trkpt>
      <trkpt lat="39.858010020107031" lon="3.168929619714618">
        <ele>197.69</ele>
        <time>2014-09-02T12:35:26Z</time>
      </trkpt>
      <trkpt lat="39.857931397855282" lon="3.168883854523301">
        <ele>196.25</ele>
        <time>2014-09-02T12:35:34Z</time>
      </trkpt>
      <trkpt lat="39.857889153063297" lon="3.1688442081213">
        <ele>194.80000000000001</ele>
        <time>2014-09-02T12:35:38Z</time>
      </trkpt>
      <trkpt lat="39.857870461419225" lon="3.168793078511953">
        <ele>194.31999999999999</ele>
        <time>2014-09-02T12:35:42Z</time>
      </trkpt>
      <trkpt lat="39.857821008190513" lon="3.168871700763702">
        <ele>192.88</ele>
        <time>2014-09-02T12:35:50Z</time>
      </trkpt>
      <trkpt lat="39.85777834430337" lon="3.168898187577725">
        <ele>191.44</ele>
        <time>2014-09-02T12:35:55Z</time>
      </trkpt>
      <trkpt lat="39.857723945751786" lon="3.168957363814116">
        <ele>190.96000000000001</ele>
        <time>2014-09-02T12:36:01Z</time>
      </trkpt>
      <trkpt lat="39.857699889689684" lon="3.169014779850841">
        <ele>189.52000000000001</ele>
        <time>2014-09-02T12:36:07Z</time>
      </trkpt>
      <trkpt lat="39.857646999880672" lon="3.169026263058186">
        <ele>188.08000000000001</ele>
        <time>2014-09-02T12:36:13Z</time>
      </trkpt>
      <trkpt lat="39.85763618722558" lon="3.169031208381057">
        <ele>187.59</ele>
        <time>2014-09-02T12:36:15Z</time>
      </trkpt>
      <trkpt lat="39.857564689591527" lon="3.169026765972376">
        <ele>185.19</ele>
        <time>2014-09-02T12:36:23Z</time>
      </trkpt>
      <trkpt lat="39.857556140050292" lon="3.169032046571374">
        <ele>184.71000000000001</ele>
        <time>2014-09-02T12:36:24Z</time>
      </trkpt>
      <trkpt lat="39.857517667114735" lon="3.16905040293932">
        <ele>184.22999999999999</ele>
        <time>2014-09-02T12:36:28Z</time>
      </trkpt>
      <trkpt lat="39.857504926621914" lon="3.169064652174711">
        <ele>183.75</ele>
        <time>2014-09-02T12:36:31Z</time>
      </trkpt>
      <trkpt lat="39.857479194179177" lon="3.169098598882556">
        <ele>182.78999999999999</ele>
        <time>2014-09-02T12:36:35Z</time>
      </trkpt>
      <trkpt lat="39.857389256358147" lon="3.169159283861518">
        <ele>180.38</ele>
        <time>2014-09-02T12:36:44Z</time>
      </trkpt>
      <trkpt lat="39.857288086786866" lon="3.169221812859178">
        <ele>178.46000000000001</ele>
        <time>2014-09-02T12:36:55Z</time>
      </trkpt>
      <trkpt lat="39.857257409021258" lon="3.169215945526958">
        <ele>177.5</ele>
        <time>2014-09-02T12:36:59Z</time>
      </trkpt>
      <trkpt lat="39.857239052653313" lon="3.169214352965355">
        <ele>176.53999999999999</ele>
        <time>2014-09-02T12:37:02Z</time>
      </trkpt>
      <trkpt lat="39.857183312997222" lon="3.169255005195737">
        <ele>176.06</ele>
        <time>2014-09-02T12:37:07Z</time>
      </trkpt>
      <trkpt lat="39.857146264985204" lon="3.169307475909591">
        <ele>176.06</ele>
        <time>2014-09-02T12:37:12Z</time>
      </trkpt>
      <trkpt lat="39.857122292742133" lon="3.169376626610756">
        <ele>174.62</ele>
        <time>2014-09-02T12:37:26Z</time>
      </trkpt>
      <trkpt lat="39.857079964131117" lon="3.169360617175698">
        <ele>175.58000000000001</ele>
        <time>2014-09-02T12:37:35Z</time>
      </trkpt>
      <trkpt lat="39.857068313285708" lon="3.169342093169689">
        <ele>173.66</ele>
        <time>2014-09-02T12:37:37Z</time>
      </trkpt>
      <trkpt lat="39.857027493417263" lon="3.169351145625114">
        <ele>171.72999999999999</ele>
        <time>2014-09-02T12:37:40Z</time>
      </trkpt>
      <trkpt lat="39.856998156756163" lon="3.169367657974362">
        <ele>175.58000000000001</ele>
        <time>2014-09-02T12:37:43Z</time>
      </trkpt>
      <trkpt lat="39.856994636356831" lon="3.169367909431458">
        <ele>172.69</ele>
        <time>2014-09-02T12:37:46Z</time>
      </trkpt>
      <trkpt lat="39.856973011046648" lon="3.169395234435797">
        <ele>172.69</ele>
        <time>2014-09-02T12:38:02Z</time>
      </trkpt>
      <trkpt lat="39.856972843408585" lon="3.169394228607416">
        <ele>174.13999999999999</ele>
        <time>2014-09-02T12:38:08Z</time>
      </trkpt>
      <trkpt lat="39.8569564986974" lon="3.169451393187046">
        <ele>171.72999999999999</ele>
        <time>2014-09-02T12:38:22Z</time>
      </trkpt>
      <trkpt lat="39.85695549286902" lon="3.169444855302572">
        <ele>173.16999999999999</ele>
        <time>2014-09-02T12:38:24Z</time>
      </trkpt>
      <trkpt lat="39.856918780133128" lon="3.169426415115595">
        <ele>169.33000000000001</ele>
        <time>2014-09-02T12:38:31Z</time>
      </trkpt>
      <trkpt lat="39.856886258348823" lon="3.169397246092558">
        <ele>169.81</ele>
        <time>2014-09-02T12:38:37Z</time>
      </trkpt>
      <trkpt lat="39.856867901980877" lon="3.169406717643142">
        <ele>167.41</ele>
        <time>2014-09-02T12:38:40Z</time>
      </trkpt>
      <trkpt lat="39.856862621381879" lon="3.169407639652491">
        <ele>167.41</ele>
        <time>2014-09-02T12:38:41Z</time>
      </trkpt>
      <trkpt lat="39.856823226436973" lon="3.169407052919269">
        <ele>164.03999999999999</ele>
        <time>2014-09-02T12:38:44Z</time>
      </trkpt>
      <trkpt lat="39.856819789856672" lon="3.169408226385713">
        <ele>164.52000000000001</ele>
        <time>2014-09-02T12:38:45Z</time>
      </trkpt>
      <trkpt lat="39.856820041313767" lon="3.169412333518267">
        <ele>167.41</ele>
        <time>2014-09-02T12:38:46Z</time>
      </trkpt>
      <trkpt lat="39.856803948059678" lon="3.169413674622774">
        <ele>162.12</ele>
        <time>2014-09-02T12:38:48Z</time>
      </trkpt>
      <trkpt lat="39.856794308871031" lon="3.169411243870854">
        <ele>165.47999999999999</ele>
        <time>2014-09-02T12:38:49Z</time>
      </trkpt>
      <trkpt lat="39.856734294444323" lon="3.169413926079869">
        <ele>161.63999999999999</ele>
        <time>2014-09-02T12:38:54Z</time>
      </trkpt>
      <trkpt lat="39.856732282787561" lon="3.169421637430787">
        <ele>163.56</ele>
        <time>2014-09-02T12:38:55Z</time>
      </trkpt>
      <trkpt lat="39.856723314151168" lon="3.169431695714593">
        <ele>163.56</ele>
        <time>2014-09-02T12:38:59Z</time>
      </trkpt>
      <trkpt lat="39.856719290837646" lon="3.169430941343308">
        <ele>166.44999999999999</ele>
        <time>2014-09-02T12:39:00Z</time>
      </trkpt>
      <trkpt lat="39.856719290837646" lon="3.169430941343308">
        <ele>164.52000000000001</ele>
        <time>2014-09-02T12:39:01Z</time>
      </trkpt>
      <trkpt lat="39.856715938076377" lon="3.169432617723942">
        <ele>164.52000000000001</ele>
        <time>2014-09-02T12:39:14Z</time>
      </trkpt>
      <trkpt lat="39.856717027723789" lon="3.1694296002388">
        <ele>164.03999999999999</ele>
        <time>2014-09-02T12:39:34Z</time>
      </trkpt>
      <trkpt lat="39.856690457090735" lon="3.169418200850487">
        <ele>164.52000000000001</ele>
        <time>2014-09-02T12:39:39Z</time>
      </trkpt>
      <trkpt lat="39.856669586151838" lon="3.169483747333288">
        <ele>164.03999999999999</ele>
        <time>2014-09-02T12:39:47Z</time>
      </trkpt>
      <trkpt lat="39.856645781546831" lon="3.16954979673028">
        <ele>163.56</ele>
        <time>2014-09-02T12:39:53Z</time>
      </trkpt>
      <trkpt lat="39.856606386601925" lon="3.169604782015085">
        <ele>162.59999999999999</ele>
        <time>2014-09-02T12:40:00Z</time>
      </trkpt>
      <trkpt lat="39.856578139588237" lon="3.169745681807399">
        <ele>159.72</ele>
        <time>2014-09-02T12:40:09Z</time>
      </trkpt>
      <trkpt lat="39.856574451550841" lon="3.169764708727598">
        <ele>159.24000000000001</ele>
        <time>2014-09-02T12:40:12Z</time>
      </trkpt>
      <trkpt lat="39.856557855382562" lon="3.169787339866161">
        <ele>159.24000000000001</ele>
        <time>2014-09-02T12:40:14Z</time>
      </trkpt>
      <trkpt lat="39.856555759906769" lon="3.169852467253804">
        <ele>156.83000000000001</ele>
        <time>2014-09-02T12:40:20Z</time>
      </trkpt>
      <trkpt lat="39.856566740199924" lon="3.169894963502884">
        <ele>156.83000000000001</ele>
        <time>2014-09-02T12:40:22Z</time>
      </trkpt>
      <trkpt lat="39.856493566185236" lon="3.169919354841113">
        <ele>155.38999999999999</ele>
        <time>2014-09-02T12:40:25Z</time>
      </trkpt>
      <trkpt lat="39.8564781434834" lon="3.169920863583684">
        <ele>155.38999999999999</ele>
        <time>2014-09-02T12:40:26Z</time>
      </trkpt>
      <trkpt lat="39.856442688032985" lon="3.169980123639107">
        <ele>154.91</ele>
        <time>2014-09-02T12:40:38Z</time>
      </trkpt>
      <trkpt lat="39.856434222310781" lon="3.169987499713898">
        <ele>154.91</ele>
        <time>2014-09-02T12:40:46Z</time>
      </trkpt>
      <trkpt lat="39.856403293088078" lon="3.169993786141276">
        <ele>154.43000000000001</ele>
        <time>2014-09-02T12:40:49Z</time>
      </trkpt>
      <trkpt lat="39.856373202055693" lon="3.170021781697869">
        <ele>153.94999999999999</ele>
        <time>2014-09-02T12:40:51Z</time>
      </trkpt>
      <trkpt lat="39.856348810717463" lon="3.170067043974996">
        <ele>152.99000000000001</ele>
        <time>2014-09-02T12:40:57Z</time>
      </trkpt>
      <trkpt lat="39.856312097981572" lon="3.170141726732254">
        <ele>151.06</ele>
        <time>2014-09-02T12:41:04Z</time>
      </trkpt>
      <trkpt lat="39.856319390237331" lon="3.170225881040096">
        <ele>150.09999999999999</ele>
        <time>2014-09-02T12:41:11Z</time>
      </trkpt>
      <trkpt lat="39.856400778517127" lon="3.170254044234753">
        <ele>148.18000000000001</ele>
        <time>2014-09-02T12:41:16Z</time>
      </trkpt>
      <trkpt lat="39.856435395777225" lon="3.170267622917891">
        <ele>147.22</ele>
        <time>2014-09-02T12:41:21Z</time>
      </trkpt>
      <trkpt lat="39.856501696631312" lon="3.170268125832081">
        <ele>143.84999999999999</ele>
        <time>2014-09-02T12:41:29Z</time>
      </trkpt>
      <trkpt lat="39.856527093797922" lon="3.170272149145603">
        <ele>147.69999999999999</ele>
        <time>2014-09-02T12:41:32Z</time>
      </trkpt>
      <trkpt lat="39.856549389660358" lon="3.170276423916221">
        <ele>140.97</ele>
        <time>2014-09-02T12:41:34Z</time>
      </trkpt>
      <trkpt lat="39.856557939201593" lon="3.170275837182999">
        <ele>146.25999999999999</ele>
        <time>2014-09-02T12:41:35Z</time>
      </trkpt>
      <trkpt lat="39.85658023506403" lon="3.170282207429409">
        <ele>144.81999999999999</ele>
        <time>2014-09-02T12:41:47Z</time>
      </trkpt>
      <trkpt lat="39.85658023506403" lon="3.170282207429409">
        <ele>142.88999999999999</ele>
        <time>2014-09-02T12:41:54Z</time>
      </trkpt>
      <trkpt lat="39.85661250539124" lon="3.170277932658792">
        <ele>142.41</ele>
        <time>2014-09-02T12:41:58Z</time>
      </trkpt>
      <trkpt lat="39.856639327481389" lon="3.170308778062463">
        <ele>143.37</ele>
        <time>2014-09-02T12:42:03Z</time>
      </trkpt>
      <trkpt lat="39.856675118207932" lon="3.170334426686168">
        <ele>141.93000000000001</ele>
        <time>2014-09-02T12:42:09Z</time>
      </trkpt>
      <trkpt lat="39.856686936691403" lon="3.170365858823061">
        <ele>140.00999999999999</ele>
        <time>2014-09-02T12:42:12Z</time>
      </trkpt>
      <trkpt lat="39.856700683012605" lon="3.170378096401691">
        <ele>140.97</ele>
        <time>2014-09-02T12:42:14Z</time>
      </trkpt>
      <trkpt lat="39.856716943904757" lon="3.170398212969303">
        <ele>138.09</ele>
        <time>2014-09-02T12:42:17Z</time>
      </trkpt>
      <trkpt lat="39.856724152341485" lon="3.170403158292174">
        <ele>140.49000000000001</ele>
        <time>2014-09-02T12:42:18Z</time>
      </trkpt>
      <trkpt lat="39.856742173433304" lon="3.170427046716213">
        <ele>140.00999999999999</ele>
        <time>2014-09-02T12:42:20Z</time>
      </trkpt>
      <trkpt lat="39.856770252808928" lon="3.170455042272806">
        <ele>137.13</ele>
        <time>2014-09-02T12:42:24Z</time>
      </trkpt>
      <trkpt lat="39.85679229721427" lon="3.170485720038414">
        <ele>139.53</ele>
        <time>2014-09-02T12:42:27Z</time>
      </trkpt>
      <trkpt lat="39.856839068233967" lon="3.170579932630062">
        <ele>133.28</ele>
        <time>2014-09-02T12:42:36Z</time>
      </trkpt>
      <trkpt lat="39.85684510320425" lon="3.17058278247714">
        <ele>135.19999999999999</ele>
        <time>2014-09-02T12:42:37Z</time>
      </trkpt>
      <trkpt lat="39.85684166662395" lon="3.170589152723551">
        <ele>136.16</ele>
        <time>2014-09-02T12:42:39Z</time>
      </trkpt>
      <trkpt lat="39.856867985799909" lon="3.170620752498508">
        <ele>134.24000000000001</ele>
        <time>2014-09-02T12:42:45Z</time>
      </trkpt>
      <trkpt lat="39.856921713799238" lon="3.170651849359274">
        <ele>133.28</ele>
        <time>2014-09-02T12:42:51Z</time>
      </trkpt>
      <trkpt lat="39.856927497312427" lon="3.17065704613924">
        <ele>133.75999999999999</ele>
        <time>2014-09-02T12:42:52Z</time>
      </trkpt>
      <trkpt lat="39.856959600001574" lon="3.170690489932895">
        <ele>131.36000000000001</ele>
        <time>2014-09-02T12:42:56Z</time>
      </trkpt>
      <trkpt lat="39.856972256675363" lon="3.170735500752926">
        <ele>133.28</ele>
        <time>2014-09-02T12:43:01Z</time>
      </trkpt>
      <trkpt lat="39.856986170634627" lon="3.170757461339235">
        <ele>129.91999999999999</ele>
        <time>2014-09-02T12:43:03Z</time>
      </trkpt>
      <trkpt lat="39.856991535052657" lon="3.170767100527883">
        <ele>131.36000000000001</ele>
        <time>2014-09-02T12:43:04Z</time>
      </trkpt>
      <trkpt lat="39.857015088200569" lon="3.170819403603673">
        <ele>130.40000000000001</ele>
        <time>2014-09-02T12:43:16Z</time>
      </trkpt>
      <trkpt lat="39.857015088200569" lon="3.170819403603673">
        <ele>129.43000000000001</ele>
        <time>2014-09-02T12:43:33Z</time>
      </trkpt>
      <trkpt lat="39.857017435133457" lon="3.170823426917195">
        <ele>131.84</ele>
        <time>2014-09-02T12:43:42Z</time>
      </trkpt>
      <trkpt lat="39.857033360749483" lon="3.170848991721869">
        <ele>127.03</ele>
        <time>2014-09-02T12:43:44Z</time>
      </trkpt>
      <trkpt lat="39.857038892805576" lon="3.170853350311518">
        <ele>129.43000000000001</ele>
        <time>2014-09-02T12:43:45Z</time>
      </trkpt>
      <trkpt lat="39.857052555307746" lon="3.170872293412685">
        <ele>131.36000000000001</ele>
        <time>2014-09-02T12:43:47Z</time>
      </trkpt>
      <trkpt lat="39.85706789419055" lon="3.170870281755924">
        <ele>128.47</ele>
        <time>2014-09-02T12:43:51Z</time>
      </trkpt>
      <trkpt lat="39.857076946645975" lon="3.170883608981967">
        <ele>131.84</ele>
        <time>2014-09-02T12:43:54Z</time>
      </trkpt>
      <trkpt lat="39.857118017971516" lon="3.170964326709509">
        <ele>126.06999999999999</ele>
        <time>2014-09-02T12:44:02Z</time>
      </trkpt>
      <trkpt lat="39.857178283855319" lon="3.171043368056417">
        <ele>128.47</ele>
        <time>2014-09-02T12:44:08Z</time>
      </trkpt>
      <trkpt lat="39.857189599424601" lon="3.171060550957918">
        <ele>125.11</ele>
        <time>2014-09-02T12:44:10Z</time>
      </trkpt>
      <trkpt lat="39.857200914993882" lon="3.171090641990304">
        <ele>127.98999999999999</ele>
        <time>2014-09-02T12:44:12Z</time>
      </trkpt>
      <trkpt lat="39.857207033783197" lon="3.171102795749903">
        <ele>124.63</ele>
        <time>2014-09-02T12:44:13Z</time>
      </trkpt>
      <trkpt lat="39.857212398201227" lon="3.171119559556246">
        <ele>121.73999999999999</ele>
        <time>2014-09-02T12:44:14Z</time>
      </trkpt>
      <trkpt lat="39.857216672971845" lon="3.17112609744072">
        <ele>125.11</ele>
        <time>2014-09-02T12:44:15Z</time>
      </trkpt>
      <trkpt lat="39.857228323817253" lon="3.171135233715177">
        <ele>126.06999999999999</ele>
        <time>2014-09-02T12:44:17Z</time>
      </trkpt>
      <trkpt lat="39.857244165614247" lon="3.17116029560566">
        <ele>122.22</ele>
        <time>2014-09-02T12:44:19Z</time>
      </trkpt>
      <trkpt lat="39.857246009632945" lon="3.171173119917512">
        <ele>124.15000000000001</ele>
        <time>2014-09-02T12:44:20Z</time>
      </trkpt>
      <trkpt lat="39.857252547517419" lon="3.171196673065424">
        <ele>125.59</ele>
        <time>2014-09-02T12:44:22Z</time>
      </trkpt>
      <trkpt lat="39.857278531417251" lon="3.171221734955907">
        <ele>122.70999999999999</ele>
        <time>2014-09-02T12:44:26Z</time>
      </trkpt>
      <trkpt lat="39.857300743460655" lon="3.171250401064754">
        <ele>122.70999999999999</ele>
        <time>2014-09-02T12:44:34Z</time>
      </trkpt>
      <trkpt lat="39.857334606349468" lon="3.171300441026688">
        <ele>124.63</ele>
        <time>2014-09-02T12:44:40Z</time>
      </trkpt>
      <trkpt lat="39.857347682118416" lon="3.171301111578941">
        <ele>122.70999999999999</ele>
        <time>2014-09-02T12:44:42Z</time>
      </trkpt>
      <trkpt lat="39.857349107041955" lon="3.171298680827022">
        <ele>121.73999999999999</ele>
        <time>2014-09-02T12:44:45Z</time>
      </trkpt>
      <trkpt lat="39.857364697381854" lon="3.171332459896803">
        <ele>122.70999999999999</ele>
        <time>2014-09-02T12:44:47Z</time>
      </trkpt>
      <trkpt lat="39.857376767322421" lon="3.171374537050724">
        <ele>119.34</ele>
        <time>2014-09-02T12:44:49Z</time>
      </trkpt>
      <trkpt lat="39.857386741787195" lon="3.171385936439037">
        <ele>123.19</ele>
        <time>2014-09-02T12:44:51Z</time>
      </trkpt>
      <trkpt lat="39.8573899269104" lon="3.171384343877435">
        <ele>121.73999999999999</ele>
        <time>2014-09-02T12:44:52Z</time>
      </trkpt>
      <trkpt lat="39.857414737343788" lon="3.171423235908151">
        <ele>121.73999999999999</ele>
        <time>2014-09-02T12:45:01Z</time>
      </trkpt>
      <trkpt lat="39.857453210279346" lon="3.171533877030015">
        <ele>119.81999999999999</ele>
        <time>2014-09-02T12:45:20Z</time>
      </trkpt>
      <trkpt lat="39.857474667951465" lon="3.17156832665205">
        <ele>120.78</ele>
        <time>2014-09-02T12:45:24Z</time>
      </trkpt>
      <trkpt lat="39.857492269948125" lon="3.171576373279095">
        <ele>117.90000000000001</ele>
        <time>2014-09-02T12:45:26Z</time>
      </trkpt>
      <trkpt lat="39.857507273554802" lon="3.171588443219662">
        <ele>121.26000000000001</ele>
        <time>2014-09-02T12:45:28Z</time>
      </trkpt>
      <trkpt lat="39.857560079544783" lon="3.171685840934515">
        <ele>118.38</ele>
        <time>2014-09-02T12:45:38Z</time>
      </trkpt>
      <trkpt lat="39.857565779238939" lon="3.171701179817319">
        <ele>118.38</ele>
        <time>2014-09-02T12:45:40Z</time>
      </trkpt>
      <trkpt lat="39.857605760917068" lon="3.171749962493777">
        <ele>117.42</ele>
        <time>2014-09-02T12:45:44Z</time>
      </trkpt>
      <trkpt lat="39.857625458389521" lon="3.171771420165896">
        <ele>115.98</ele>
        <time>2014-09-02T12:45:49Z</time>
      </trkpt>
      <trkpt lat="39.857658315449953" lon="3.171908631920815">
        <ele>115.98</ele>
        <time>2014-09-02T12:45:54Z</time>
      </trkpt>
      <trkpt lat="39.857655130326748" lon="3.17192455753684">
        <ele>115.01000000000001</ele>
        <time>2014-09-02T12:45:56Z</time>
      </trkpt>
      <trkpt lat="39.857706846669316" lon="3.17203352227807">
        <ele>114.05</ele>
        <time>2014-09-02T12:46:05Z</time>
      </trkpt>
      <trkpt lat="39.857710786163807" lon="3.172045759856701">
        <ele>114.53</ele>
        <time>2014-09-02T12:46:06Z</time>
      </trkpt>
      <trkpt lat="39.857702236622572" lon="3.172108791768551">
        <ele>113.56999999999999</ele>
        <time>2014-09-02T12:46:11Z</time>
      </trkpt>
      <trkpt lat="39.857645155861974" lon="3.172180708497763">
        <ele>111.17</ele>
        <time>2014-09-02T12:46:19Z</time>
      </trkpt>
      <trkpt lat="39.857596624642611" lon="3.172204680740833">
        <ele>110.20999999999999</ele>
        <time>2014-09-02T12:46:23Z</time>
      </trkpt>
      <trkpt lat="39.857584135606885" lon="3.17220501601696">
        <ele>109.73</ele>
        <time>2014-09-02T12:46:28Z</time>
      </trkpt>
      <trkpt lat="39.857566617429256" lon="3.17226218059659">
        <ele>109.25</ele>
        <time>2014-09-02T12:46:38Z</time>
      </trkpt>
      <trkpt lat="39.857563264667988" lon="3.172267377376556">
        <ele>108.77</ele>
        <time>2014-09-02T12:46:54Z</time>
      </trkpt>
      <trkpt lat="39.857570389285684" lon="3.172300234436989">
        <ele>107.31999999999999</ele>
        <time>2014-09-02T12:46:56Z</time>
      </trkpt>
      <trkpt lat="39.857578938826919" lon="3.172309873625636">
        <ele>108.29000000000001</ele>
        <time>2014-09-02T12:47:11Z</time>
      </trkpt>
      <trkpt lat="39.857589080929756" lon="3.172388831153512">
        <ele>103.48</ele>
        <time>2014-09-02T12:47:21Z</time>
      </trkpt>
      <trkpt lat="39.857584303244948" lon="3.17239754833281">
        <ele>104.44</ele>
        <time>2014-09-02T12:47:22Z</time>
      </trkpt>
      <trkpt lat="39.857578184455633" lon="3.172402493655682">
        <ele>108.29000000000001</ele>
        <time>2014-09-02T12:47:23Z</time>
      </trkpt>
      <trkpt lat="39.857572568580508" lon="3.172408360987902">
        <ele>108.29000000000001</ele>
        <time>2014-09-02T12:47:24Z</time>
      </trkpt>
      <trkpt lat="39.857573239132762" lon="3.172409366816282">
        <ele>101.56</ele>
        <time>2014-09-02T12:47:25Z</time>
      </trkpt>
      <trkpt lat="39.857571478933096" lon="3.172411043196917">
        <ele>107.81</ele>
        <time>2014-09-02T12:47:26Z</time>
      </trkpt>
      <trkpt lat="39.857568712905049" lon="3.17241171374917">
        <ele>104.44</ele>
        <time>2014-09-02T12:47:30Z</time>
      </trkpt>
      <trkpt lat="39.857558570802212" lon="3.172433087602258">
        <ele>106.84</ele>
        <time>2014-09-02T12:47:32Z</time>
      </trkpt>
      <trkpt lat="39.857552284374833" lon="3.172443900257349">
        <ele>100.11</ele>
        <time>2014-09-02T12:47:33Z</time>
      </trkpt>
      <trkpt lat="39.857548596337438" lon="3.172452449798584">
        <ele>106.36</ele>
        <time>2014-09-02T12:47:34Z</time>
      </trkpt>
      <trkpt lat="39.857545411214232" lon="3.172460915520787">
        <ele>114.05</ele>
        <time>2014-09-02T12:47:35Z</time>
      </trkpt>
      <trkpt lat="39.857537364587188" lon="3.172486983239651">
        <ele>103</ele>
        <time>2014-09-02T12:47:37Z</time>
      </trkpt>
      <trkpt lat="39.857537280768156" lon="3.172498969361186">
        <ele>105.88</ele>
        <time>2014-09-02T12:47:38Z</time>
      </trkpt>
      <trkpt lat="39.857534347102046" lon="3.172509111464024">
        <ele>110.20999999999999</ele>
        <time>2014-09-02T12:47:39Z</time>
      </trkpt>
      <trkpt lat="39.857528060674667" lon="3.172524031251669">
        <ele>108.29000000000001</ele>
        <time>2014-09-02T12:47:40Z</time>
      </trkpt>
      <trkpt lat="39.857520433142781" lon="3.17253484390676">
        <ele>103.95999999999999</ele>
        <time>2014-09-02T12:47:41Z</time>
      </trkpt>
      <trkpt lat="39.857518672943115" lon="3.172542471438646">
        <ele>104.92</ele>
        <time>2014-09-02T12:47:42Z</time>
      </trkpt>
      <trkpt lat="39.857514901086688" lon="3.172549344599247">
        <ele>109.25</ele>
        <time>2014-09-02T12:47:43Z</time>
      </trkpt>
      <trkpt lat="39.857501238584518" lon="3.172605922445655">
        <ele>107.81</ele>
        <time>2014-09-02T12:47:48Z</time>
      </trkpt>
      <trkpt lat="39.857483133673668" lon="3.172643221914768">
        <ele>106.84</ele>
        <time>2014-09-02T12:47:51Z</time>
      </trkpt>
      <trkpt lat="39.857485564425588" lon="3.172733411192894">
        <ele>107.31999999999999</ele>
        <time>2014-09-02T12:47:58Z</time>
      </trkpt>
      <trkpt lat="39.857514398172498" lon="3.172893757000566">
        <ele>109.25</ele>
        <time>2014-09-02T12:48:09Z</time>
      </trkpt>
      <trkpt lat="39.857518337666988" lon="3.172900965437293">
        <ele>109.25</ele>
        <time>2014-09-02T12:48:11Z</time>
      </trkpt>
      <trkpt lat="39.857531329616904" lon="3.172966679558158">
        <ele>108.77</ele>
        <time>2014-09-02T12:48:16Z</time>
      </trkpt>
      <trkpt lat="39.857526049017906" lon="3.172997105866671">
        <ele>108.77</ele>
        <time>2014-09-02T12:48:30Z</time>
      </trkpt>
      <trkpt lat="39.857526971027255" lon="3.173018144443631">
        <ele>108.29000000000001</ele>
        <time>2014-09-02T12:48:32Z</time>
      </trkpt>
      <trkpt lat="39.857517583295703" lon="3.173048570752144">
        <ele>107.81</ele>
        <time>2014-09-02T12:48:35Z</time>
      </trkpt>
      <trkpt lat="39.857533341273665" lon="3.173087378963828">
        <ele>106.84</ele>
        <time>2014-09-02T12:48:39Z</time>
      </trkpt>
      <trkpt lat="39.857558570802212" lon="3.173177065327764">
        <ele>105.40000000000001</ele>
        <time>2014-09-02T12:48:47Z</time>
      </trkpt>
      <trkpt lat="39.857561839744449" lon="3.173186788335443">
        <ele>104.92</ele>
        <time>2014-09-02T12:48:48Z</time>
      </trkpt>
      <trkpt lat="39.857600228860974" lon="3.1732736248523">
        <ele>104.92</ele>
        <time>2014-09-02T12:48:57Z</time>
      </trkpt>
      <trkpt lat="39.857636941596866" lon="3.173397425562143">
        <ele>102.04000000000001</ele>
        <time>2014-09-02T12:49:07Z</time>
      </trkpt>
      <trkpt lat="39.857640713453293" lon="3.173412093892694">
        <ele>101.56</ele>
        <time>2014-09-02T12:49:13Z</time>
      </trkpt>
      <trkpt lat="39.857643563300371" lon="3.173447549343109">
        <ele>100.59999999999999</ele>
        <time>2014-09-02T12:49:15Z</time>
      </trkpt>
      <trkpt lat="39.857661165297031" lon="3.173553580418229">
        <ele>99.629999999999995</ele>
        <time>2014-09-02T12:49:23Z</time>
      </trkpt>
      <trkpt lat="39.85767088830471" lon="3.173623317852616">
        <ele>99.150000000000006</ele>
        <time>2014-09-02T12:49:26Z</time>
      </trkpt>
      <trkpt lat="39.857660243287683" lon="3.173610493540764">
        <ele>98.189999999999998</ele>
        <time>2014-09-02T12:49:29Z</time>
      </trkpt>
      <trkpt lat="39.857654878869653" lon="3.173710322007537">
        <ele>97.230000000000004</ele>
        <time>2014-09-02T12:49:35Z</time>
      </trkpt>
      <trkpt lat="39.857659824192524" lon="3.173768240958452">
        <ele>98.189999999999998</ele>
        <time>2014-09-02T12:49:40Z</time>
      </trkpt>
      <trkpt lat="39.857638031244278" lon="3.173856921494007">
        <ele>99.629999999999995</ele>
        <time>2014-09-02T12:49:50Z</time>
      </trkpt>
      <trkpt lat="39.857582626864314" lon="3.173943003639579">
        <ele>96.269999999999996</ele>
        <time>2014-09-02T12:50:02Z</time>
      </trkpt>
      <trkpt lat="39.857573742046952" lon="3.174023972824216">
        <ele>97.230000000000004</ele>
        <time>2014-09-02T12:50:07Z</time>
      </trkpt>
      <trkpt lat="39.857557397335768" lon="3.174100834876299">
        <ele>97.709999999999994</ele>
        <time>2014-09-02T12:50:12Z</time>
      </trkpt>
      <trkpt lat="39.857547087594867" lon="3.17412824369967">
        <ele>96.75</ele>
        <time>2014-09-02T12:50:14Z</time>
      </trkpt>
      <trkpt lat="39.857544237747788" lon="3.174167219549418">
        <ele>95.790000000000006</ele>
        <time>2014-09-02T12:50:21Z</time>
      </trkpt>
      <trkpt lat="39.857527473941445" lon="3.174248691648245">
        <ele>93.870000000000005</ele>
        <time>2014-09-02T12:50:30Z</time>
      </trkpt>
      <trkpt lat="39.857522780075669" lon="3.174353968352079">
        <ele>91.459999999999994</ele>
        <time>2014-09-02T12:50:39Z</time>
      </trkpt>
      <trkpt lat="39.857566701248288" lon="3.174484139308333">
        <ele>91.459999999999994</ele>
        <time>2014-09-02T12:50:49Z</time>
      </trkpt>
      <trkpt lat="39.857561588287354" lon="3.17454356700182">
        <ele>91.459999999999994</ele>
        <time>2014-09-02T12:50:54Z</time>
      </trkpt>
      <trkpt lat="39.857549099251628" lon="3.174614310264587">
        <ele>90.980000000000004</ele>
        <time>2014-09-02T12:50:59Z</time>
      </trkpt>
      <trkpt lat="39.857529066503048" lon="3.174711121246219">
        <ele>90.5</ele>
        <time>2014-09-02T12:51:07Z</time>
      </trkpt>
      <trkpt lat="39.857507525011897" lon="3.174741715192795">
        <ele>90.5</ele>
        <time>2014-09-02T12:51:11Z</time>
      </trkpt>
      <trkpt lat="39.857458239421248" lon="3.174799885600805">
        <ele>90.5</ele>
        <time>2014-09-02T12:51:16Z</time>
      </trkpt>
      <trkpt lat="39.857387496158481" lon="3.174862330779433">
        <ele>90.019999999999996</ele>
        <time>2014-09-02T12:51:27Z</time>
      </trkpt>
      <trkpt lat="39.85734986141324" lon="3.17489736713469">
        <ele>88.099999999999994</ele>
        <time>2014-09-02T12:51:39Z</time>
      </trkpt>
      <trkpt lat="39.857283812016249" lon="3.174930056557059">
        <ele>88.099999999999994</ele>
        <time>2014-09-02T12:51:49Z</time>
      </trkpt>
      <trkpt lat="39.857285991311073" lon="3.174942042678595">
        <ele>87.620000000000005</ele>
        <time>2014-09-02T12:52:04Z</time>
      </trkpt>
      <trkpt lat="39.857249697670341" lon="3.174968278035522">
        <ele>86.180000000000007</ele>
        <time>2014-09-02T12:52:13Z</time>
      </trkpt>
      <trkpt lat="39.857220025733113" lon="3.175005912780762">
        <ele>86.180000000000007</ele>
        <time>2014-09-02T12:52:18Z</time>
      </trkpt>
      <trkpt lat="39.857194880023599" lon="3.175025107339025">
        <ele>85.689999999999998</ele>
        <time>2014-09-02T12:52:22Z</time>
      </trkpt>
      <trkpt lat="39.857149533927441" lon="3.175112530589104">
        <ele>86.180000000000007</ele>
        <time>2014-09-02T12:52:28Z</time>
      </trkpt>
      <trkpt lat="39.857124052941799" lon="3.175152847543359">
        <ele>85.689999999999998</ele>
        <time>2014-09-02T12:52:41Z</time>
      </trkpt>
      <trkpt lat="39.857118269428611" lon="3.175144800916314">
        <ele>86.180000000000007</ele>
        <time>2014-09-02T12:52:57Z</time>
      </trkpt>
      <trkpt lat="39.857117515057325" lon="3.175147818401456">
        <ele>85.689999999999998</ele>
        <time>2014-09-02T12:53:06Z</time>
      </trkpt>
      <trkpt lat="39.857097733765841" lon="3.175176903605461">
        <ele>85.689999999999998</ele>
        <time>2014-09-02T12:53:10Z</time>
      </trkpt>
      <trkpt lat="39.857097817584872" lon="3.175215041264892">
        <ele>85.689999999999998</ele>
        <time>2014-09-02T12:53:15Z</time>
      </trkpt>
      <trkpt lat="39.857040150091052" lon="3.175218058750033">
        <ele>87.140000000000001</ele>
        <time>2014-09-02T12:53:21Z</time>
      </trkpt>
      <trkpt lat="39.856964545324445" lon="3.175377566367388">
        <ele>87.620000000000005</ele>
        <time>2014-09-02T12:53:31Z</time>
      </trkpt>
      <trkpt lat="39.856910482048988" lon="3.175485525280237">
        <ele>84.730000000000004</ele>
        <time>2014-09-02T12:53:43Z</time>
      </trkpt>
      <trkpt lat="39.856887431815267" lon="3.175582755357027">
        <ele>87.140000000000001</ele>
        <time>2014-09-02T12:53:53Z</time>
      </trkpt>
      <trkpt lat="39.856808306649327" lon="3.175744106993079">
        <ele>86.659999999999997</ele>
        <time>2014-09-02T12:54:03Z</time>
      </trkpt>
      <trkpt lat="39.856799002736807" lon="3.175783082842827">
        <ele>86.180000000000007</ele>
        <time>2014-09-02T12:54:05Z</time>
      </trkpt>
      <trkpt lat="39.856770168989897" lon="3.175953906029463">
        <ele>85.689999999999998</ele>
        <time>2014-09-02T12:54:14Z</time>
      </trkpt>
      <trkpt lat="39.856770923361182" lon="3.175961785018444">
        <ele>85.689999999999998</ele>
        <time>2014-09-02T12:54:16Z</time>
      </trkpt>
      <trkpt lat="39.856793889775872" lon="3.176040994003415">
        <ele>85.689999999999998</ele>
        <time>2014-09-02T12:54:20Z</time>
      </trkpt>
      <trkpt lat="39.856825573369861" lon="3.176081562414765">
        <ele>86.180000000000007</ele>
        <time>2014-09-02T12:54:24Z</time>
      </trkpt>
      <trkpt lat="39.856900088489056" lon="3.176220115274191">
        <ele>85.689999999999998</ele>
        <time>2014-09-02T12:54:33Z</time>
      </trkpt>
      <trkpt lat="39.856932107359171" lon="3.176301922649145">
        <ele>83.769999999999996</ele>
        <time>2014-09-02T12:54:40Z</time>
      </trkpt>
      <trkpt lat="39.856946608051658" lon="3.176401583477855">
        <ele>84.25</ele>
        <time>2014-09-02T12:54:47Z</time>
      </trkpt>
      <trkpt lat="39.856931772083044" lon="3.176479367539287">
        <ele>83.769999999999996</ele>
        <time>2014-09-02T12:54:54Z</time>
      </trkpt>
      <trkpt lat="39.856929844245315" lon="3.17652203142643">
        <ele>83.769999999999996</ele>
        <time>2014-09-02T12:54:59Z</time>
      </trkpt>
      <trkpt lat="39.856919283047318" lon="3.17662806250155">
        <ele>81.849999999999994</ele>
        <time>2014-09-02T12:55:07Z</time>
      </trkpt>
      <trkpt lat="39.856912158429623" lon="3.176742056384683">
        <ele>79.450000000000003</ele>
        <time>2014-09-02T12:55:14Z</time>
      </trkpt>
      <trkpt lat="39.856880893930793" lon="3.176826378330588">
        <ele>78</ele>
        <time>2014-09-02T12:55:22Z</time>
      </trkpt>
      <trkpt lat="39.856850048527122" lon="3.176944311708212">
        <ele>78.480000000000004</ele>
        <time>2014-09-02T12:55:32Z</time>
      </trkpt>
      <trkpt lat="39.856766061857343" lon="3.176951101049781">
        <ele>78.480000000000004</ele>
        <time>2014-09-02T12:55:38Z</time>
      </trkpt>
      <trkpt lat="39.8566560074687" lon="3.17695202305913">
        <ele>77.519999999999996</ele>
        <time>2014-09-02T12:55:46Z</time>
      </trkpt>
      <trkpt lat="39.856597501784563" lon="3.176995189860463">
        <ele>75.599999999999994</ele>
        <time>2014-09-02T12:55:54Z</time>
      </trkpt>
      <trkpt lat="39.856576044112444" lon="3.177032740786672">
        <ele>77.040000000000006</ele>
        <time>2014-09-02T12:55:58Z</time>
      </trkpt>
      <trkpt lat="39.856549724936485" lon="3.177077751606703">
        <ele>76.560000000000002</ele>
        <time>2014-09-02T12:56:02Z</time>
      </trkpt>
      <trkpt lat="39.856536230072379" lon="3.177166180685163">
        <ele>76.560000000000002</ele>
        <time>2014-09-02T12:56:06Z</time>
      </trkpt>
      <trkpt lat="39.856520807370543" lon="3.177193254232407">
        <ele>77.519999999999996</ele>
        <time>2014-09-02T12:56:09Z</time>
      </trkpt>
      <trkpt lat="39.85649423673749" lon="3.177336165681481">
        <ele>78</ele>
        <time>2014-09-02T12:56:18Z</time>
      </trkpt>
      <trkpt lat="39.856453500688076" lon="3.177466168999672">
        <ele>78.480000000000004</ele>
        <time>2014-09-02T12:56:27Z</time>
      </trkpt>
      <trkpt lat="39.85642391256988" lon="3.177506653591991">
        <ele>78</ele>
        <time>2014-09-02T12:56:29Z</time>
      </trkpt>
      <trkpt lat="39.856385691091418" lon="3.177530039101839">
        <ele>78.480000000000004</ele>
        <time>2014-09-02T12:56:31Z</time>
      </trkpt>
      <trkpt lat="39.85635107383132" lon="3.177531799301505">
        <ele>77.519999999999996</ele>
        <time>2014-09-02T12:56:35Z</time>
      </trkpt>
      <trkpt lat="39.856229703873396" lon="3.177601452916861">
        <ele>77.040000000000006</ele>
        <time>2014-09-02T12:56:44Z</time>
      </trkpt>
      <trkpt lat="39.856225261464715" lon="3.17761461250484">
        <ele>76.079999999999998</ele>
        <time>2014-09-02T12:56:47Z</time>
      </trkpt>
      <trkpt lat="39.856160217896104" lon="3.177685439586639">
        <ele>76.560000000000002</ele>
        <time>2014-09-02T12:56:51Z</time>
      </trkpt>
      <trkpt lat="39.856152003630996" lon="3.177758362144232">
        <ele>75.120000000000005</ele>
        <time>2014-09-02T12:56:57Z</time>
      </trkpt>
      <trkpt lat="39.856071202084422" lon="3.177856262773275">
        <ele>74.159999999999997</ele>
        <time>2014-09-02T12:57:02Z</time>
      </trkpt>
      <trkpt lat="39.855936169624329" lon="3.177936309948564">
        <ele>73.680000000000007</ele>
        <time>2014-09-02T12:57:14Z</time>
      </trkpt>
      <trkpt lat="39.855915885418653" lon="3.177977213636041">
        <ele>74.159999999999997</ele>
        <time>2014-09-02T12:57:19Z</time>
      </trkpt>
      <trkpt lat="39.855921501293778" lon="3.178091207519174">
        <ele>72.719999999999999</ele>
        <time>2014-09-02T12:57:27Z</time>
      </trkpt>
      <trkpt lat="39.855926278978586" lon="3.178107300773263">
        <ele>72.239999999999995</ele>
        <time>2014-09-02T12:57:29Z</time>
      </trkpt>
      <trkpt lat="39.855972463265061" lon="3.178317015990615">
        <ele>70.790000000000006</ele>
        <time>2014-09-02T12:57:39Z</time>
      </trkpt>
      <trkpt lat="39.855931811034679" lon="3.178419275209308">
        <ele>69.349999999999994</ele>
        <time>2014-09-02T12:57:47Z</time>
      </trkpt>
      <trkpt lat="39.855919824913144" lon="3.17837099544704">
        <ele>67.909999999999997</ele>
        <time>2014-09-02T12:57:52Z</time>
      </trkpt>
      <trkpt lat="39.855908593162894" lon="3.17834660410881">
        <ele>67.909999999999997</ele>
        <time>2014-09-02T12:57:54Z</time>
      </trkpt>
      <trkpt lat="39.85583215020597" lon="3.178304610773921">
        <ele>65.510000000000005</ele>
        <time>2014-09-02T12:58:06Z</time>
      </trkpt>
      <trkpt lat="39.855815386399627" lon="3.178306370973587">
        <ele>65.510000000000005</ele>
        <time>2014-09-02T12:58:07Z</time>
      </trkpt>
      <trkpt lat="39.855762748047709" lon="3.178319782018662">
        <ele>65.989999999999995</ele>
        <time>2014-09-02T12:58:13Z</time>
      </trkpt>
      <trkpt lat="39.855730896815658" lon="3.178428411483765">
        <ele>65.510000000000005</ele>
        <time>2014-09-02T12:58:21Z</time>
      </trkpt>
      <trkpt lat="39.855712288990617" lon="3.178531676530838">
        <ele>65.989999999999995</ele>
        <time>2014-09-02T12:58:30Z</time>
      </trkpt>
      <trkpt lat="39.855713127180934" lon="3.178697554394603">
        <ele>65.030000000000001</ele>
        <time>2014-09-02T12:58:38Z</time>
      </trkpt>
      <trkpt lat="39.855721592903137" lon="3.178857648745179">
        <ele>64.549999999999997</ele>
        <time>2014-09-02T12:58:47Z</time>
      </trkpt>
      <trkpt lat="39.855721592903137" lon="3.178857648745179">
        <ele>65.030000000000001</ele>
        <time>2014-09-02T12:58:48Z</time>
      </trkpt>
      <trkpt lat="39.855691585689783" lon="3.178948927670717">
        <ele>64.069999999999993</ele>
        <time>2014-09-02T12:58:52Z</time>
      </trkpt>
      <trkpt lat="39.855698794126511" lon="3.178994106128812">
        <ele>62.619999999999997</ele>
        <time>2014-09-02T12:58:58Z</time>
      </trkpt>
      <trkpt lat="39.855683539062738" lon="3.179137771949172">
        <ele>61.18</ele>
        <time>2014-09-02T12:59:05Z</time>
      </trkpt>
      <trkpt lat="39.855684712529182" lon="3.179153027012944">
        <ele>61.18</ele>
        <time>2014-09-02T12:59:20Z</time>
      </trkpt>
      <trkpt lat="39.855685131624341" lon="3.179155541583896">
        <ele>56.369999999999997</ele>
        <time>2014-09-02T12:59:21Z</time>
      </trkpt>
      <trkpt lat="39.855684712529182" lon="3.179153027012944">
        <ele>59.740000000000002</ele>
        <time>2014-09-02T12:59:22Z</time>
      </trkpt>
      <trkpt lat="39.855684712529182" lon="3.179153027012944">
        <ele>63.100000000000001</ele>
        <time>2014-09-02T12:59:23Z</time>
      </trkpt>
      <trkpt lat="39.855684712529182" lon="3.179153027012944">
        <ele>62.140000000000001</ele>
        <time>2014-09-02T12:59:24Z</time>
      </trkpt>
      <trkpt lat="39.855684712529182" lon="3.179153027012944">
        <ele>62.140000000000001</ele>
        <time>2014-09-02T12:59:27Z</time>
      </trkpt>
      <trkpt lat="39.855672558769584" lon="3.17915671505034">
        <ele>63.100000000000001</ele>
        <time>2014-09-02T12:59:29Z</time>
      </trkpt>
      <trkpt lat="39.855649005621672" lon="3.179201390594244">
        <ele>61.18</ele>
        <time>2014-09-02T12:59:33Z</time>
      </trkpt>
      <trkpt lat="39.855643222108483" lon="3.179229972884059">
        <ele>59.740000000000002</ele>
        <time>2014-09-02T12:59:35Z</time>
      </trkpt>
      <trkpt lat="39.855635929852724" lon="3.179241623729467">
        <ele>61.659999999999997</ele>
        <time>2014-09-02T12:59:36Z</time>
      </trkpt>
      <trkpt lat="39.855632996186614" lon="3.179333070293069">
        <ele>61.18</ele>
        <time>2014-09-02T12:59:43Z</time>
      </trkpt>
      <trkpt lat="39.855627631768584" lon="3.179355701431632">
        <ele>56.859999999999999</ele>
        <time>2014-09-02T12:59:49Z</time>
      </trkpt>
      <trkpt lat="39.855627464130521" lon="3.179367100819945">
        <ele>59.259999999999998</ele>
        <time>2014-09-02T12:59:50Z</time>
      </trkpt>
      <trkpt lat="39.855592092499137" lon="3.179394509643316">
        <ele>65.030000000000001</ele>
        <time>2014-09-02T12:59:53Z</time>
      </trkpt>
      <trkpt lat="39.855573065578938" lon="3.179418398067355">
        <ele>62.140000000000001</ele>
        <time>2014-09-02T12:59:55Z</time>
      </trkpt>
      <trkpt lat="39.855571137741208" lon="3.179452763870359">
        <ele>61.18</ele>
        <time>2014-09-02T12:59:57Z</time>
      </trkpt>
      <trkpt lat="39.855568455532193" lon="3.179457541555166">
        <ele>59.740000000000002</ele>
        <time>2014-09-02T12:59:58Z</time>
      </trkpt>
      <trkpt lat="39.85555219464004" lon="3.179490230977535">
        <ele>57.82</ele>
        <time>2014-09-02T13:00:01Z</time>
      </trkpt>
      <trkpt lat="39.855534425005317" lon="3.179531050845981">
        <ele>62.140000000000001</ele>
        <time>2014-09-02T13:00:03Z</time>
      </trkpt>
      <trkpt lat="39.855509949848056" lon="3.17956717684865">
        <ele>61.18</ele>
        <time>2014-09-02T13:00:05Z</time>
      </trkpt>
      <trkpt lat="39.855506764724851" lon="3.1795818451792">
        <ele>61.18</ele>
        <time>2014-09-02T13:00:06Z</time>
      </trkpt>
      <trkpt lat="39.855461167171597" lon="3.179679745808244">
        <ele>59.740000000000002</ele>
        <time>2014-09-02T13:00:15Z</time>
      </trkpt>
      <trkpt lat="39.855387154966593" lon="3.179793069139123">
        <ele>59.259999999999998</ele>
        <time>2014-09-02T13:00:23Z</time>
      </trkpt>
      <trkpt lat="39.855353962630033" lon="3.179898262023926">
        <ele>58.780000000000001</ele>
        <time>2014-09-02T13:00:28Z</time>
      </trkpt>
      <trkpt lat="39.855349771678448" lon="3.179935980588198">
        <ele>58.780000000000001</ele>
        <time>2014-09-02T13:00:31Z</time>
      </trkpt>
      <trkpt lat="39.855319345369935" lon="3.180030193179846">
        <ele>58.780000000000001</ele>
        <time>2014-09-02T13:00:37Z</time>
      </trkpt>
      <trkpt lat="39.85526779666543" lon="3.180098421871662">
        <ele>58.780000000000001</ele>
        <time>2014-09-02T13:00:44Z</time>
      </trkpt>
      <trkpt lat="39.855192108079791" lon="3.180158352479339">
        <ele>58.780000000000001</ele>
        <time>2014-09-02T13:00:51Z</time>
      </trkpt>
      <trkpt lat="39.855117090046406" lon="3.180197412148118">
        <ele>58.780000000000001</ele>
        <time>2014-09-02T13:00:55Z</time>
      </trkpt>
      <trkpt lat="39.855027738958597" lon="3.180274358019233">
        <ele>58.299999999999997</ele>
        <time>2014-09-02T13:01:07Z</time>
      </trkpt>
      <trkpt lat="39.854914080351591" lon="3.180311489850283">
        <ele>57.82</ele>
        <time>2014-09-02T13:01:17Z</time>
      </trkpt>
      <trkpt lat="39.854869404807687" lon="3.180317860096693">
        <ele>57.82</ele>
        <time>2014-09-02T13:01:20Z</time>
      </trkpt>
      <trkpt lat="39.854762703180313" lon="3.1803416647017">
        <ele>57.340000000000003</ele>
        <time>2014-09-02T13:01:27Z</time>
      </trkpt>
      <trkpt lat="39.854741748422384" lon="3.180368235334754">
        <ele>57.340000000000003</ele>
        <time>2014-09-02T13:01:29Z</time>
      </trkpt>
      <trkpt lat="39.854632783681154" lon="3.180396733805537">
        <ele>57.340000000000003</ele>
        <time>2014-09-02T13:01:37Z</time>
      </trkpt>
      <trkpt lat="39.854609649628401" lon="3.180405367165804">
        <ele>57.340000000000003</ele>
        <time>2014-09-02T13:01:38Z</time>
      </trkpt>
      <trkpt lat="39.854588946327567" lon="3.180415006354451">
        <ele>57.82</ele>
        <time>2014-09-02T13:01:39Z</time>
      </trkpt>
      <trkpt lat="39.854529434815049" lon="3.180420370772481">
        <ele>57.82</ele>
        <time>2014-09-02T13:01:44Z</time>
      </trkpt>
      <trkpt lat="39.854504121467471" lon="3.180439230054617">
        <ele>57.340000000000003</ele>
        <time>2014-09-02T13:01:48Z</time>
      </trkpt>
      <trkpt lat="39.854512922465801" lon="3.180455323308706">
        <ele>57.82</ele>
        <time>2014-09-02T13:01:49Z</time>
      </trkpt>
      <trkpt lat="39.854510324075818" lon="3.180472338572145">
        <ele>57.340000000000003</ele>
        <time>2014-09-02T13:01:50Z</time>
      </trkpt>
      <trkpt lat="39.854500517249107" lon="3.180488012731075">
        <ele>56.859999999999999</ele>
        <time>2014-09-02T13:01:51Z</time>
      </trkpt>
      <trkpt lat="39.854481825605035" lon="3.180511817336083">
        <ele>50.609999999999999</ele>
        <time>2014-09-02T13:01:54Z</time>
      </trkpt>
      <trkpt lat="39.854481322690845" lon="3.180522127076984">
        <ele>55.409999999999997</ele>
        <time>2014-09-02T13:01:55Z</time>
      </trkpt>
      <trkpt lat="39.854481322690845" lon="3.180522127076984">
        <ele>61.18</ele>
        <time>2014-09-02T13:01:56Z</time>
      </trkpt>
      <trkpt lat="39.854490458965302" lon="3.18052388727665">
        <ele>57.82</ele>
        <time>2014-09-02T13:01:57Z</time>
      </trkpt>
      <trkpt lat="39.854480149224401" lon="3.180551715195179">
        <ele>57.340000000000003</ele>
        <time>2014-09-02T13:02:05Z</time>
      </trkpt>
      <trkpt lat="39.854477131739259" lon="3.180564036592841">
        <ele>55.890000000000001</ele>
        <time>2014-09-02T13:02:10Z</time>
      </trkpt>
      <trkpt lat="39.854477131739259" lon="3.180564036592841">
        <ele>56.859999999999999</ele>
        <time>2014-09-02T13:02:12Z</time>
      </trkpt>
      <trkpt lat="39.854467073455453" lon="3.180559007450938">
        <ele>57.82</ele>
        <time>2014-09-02T13:02:17Z</time>
      </trkpt>
      <trkpt lat="39.854468917474151" lon="3.180556492879987">
        <ele>61.18</ele>
        <time>2014-09-02T13:02:22Z</time>
      </trkpt>
      <trkpt lat="39.85446791164577" lon="3.180556995794177">
        <ele>56.859999999999999</ele>
        <time>2014-09-02T13:02:23Z</time>
      </trkpt>
      <trkpt lat="39.854470510035753" lon="3.180543752387166">
        <ele>55.409999999999997</ele>
        <time>2014-09-02T13:02:32Z</time>
      </trkpt>
      <trkpt lat="39.854481155052781" lon="3.18054148927331">
        <ele>60.219999999999999</ele>
        <time>2014-09-02T13:02:33Z</time>
      </trkpt>
      <trkpt lat="39.854488614946604" lon="3.180535454303026">
        <ele>57.340000000000003</ele>
        <time>2014-09-02T13:02:34Z</time>
      </trkpt>
      <trkpt lat="39.854515269398689" lon="3.180531514808536">
        <ele>56.859999999999999</ele>
        <time>2014-09-02T13:02:37Z</time>
      </trkpt>
      <trkpt lat="39.854527004063129" lon="3.180534951388836">
        <ele>53.009999999999998</ele>
        <time>2014-09-02T13:02:38Z</time>
      </trkpt>
      <trkpt lat="39.85453974455595" lon="3.180532604455948">
        <ele>57.82</ele>
        <time>2014-09-02T13:02:39Z</time>
      </trkpt>
      <trkpt lat="39.854548377916217" lon="3.180533610284329">
        <ele>63.579999999999998</ele>
        <time>2014-09-02T13:02:40Z</time>
      </trkpt>
      <trkpt lat="39.854553658515215" lon="3.180538807064295">
        <ele>58.299999999999997</ele>
        <time>2014-09-02T13:02:41Z</time>
      </trkpt>
      <trkpt lat="39.854556927457452" lon="3.180563030764461">
        <ele>53.009999999999998</ele>
        <time>2014-09-02T13:02:43Z</time>
      </trkpt>
      <trkpt lat="39.85455877147615" lon="3.180579375475645">
        <ele>61.18</ele>
        <time>2014-09-02T13:02:44Z</time>
      </trkpt>
      <trkpt lat="39.854567321017385" lon="3.180591948330402">
        <ele>60.700000000000003</ele>
        <time>2014-09-02T13:02:45Z</time>
      </trkpt>
      <trkpt lat="39.854577295482159" lon="3.180610556155443">
        <ele>57.340000000000003</ele>
        <time>2014-09-02T13:02:47Z</time>
      </trkpt>
      <trkpt lat="39.854584336280823" lon="3.180626314133406">
        <ele>57.82</ele>
        <time>2014-09-02T13:02:49Z</time>
      </trkpt>
      <trkpt lat="39.854593724012375" lon="3.180636959150434">
        <ele>61.659999999999997</ele>
        <time>2014-09-02T13:02:50Z</time>
      </trkpt>
      <trkpt lat="39.85459690913558" lon="3.18064852617681">
        <ele>61.659999999999997</ele>
        <time>2014-09-02T13:02:51Z</time>
      </trkpt>
      <trkpt lat="39.854595484212041" lon="3.18065632134676">
        <ele>57.82</ele>
        <time>2014-09-02T13:02:55Z</time>
      </trkpt>
      <trkpt lat="39.854601938277483" lon="3.180661266669631">
        <ele>56.369999999999997</ele>
        <time>2014-09-02T13:02:56Z</time>
      </trkpt>
      <trkpt lat="39.854593640193343" lon="3.180663362145424">
        <ele>59.740000000000002</ele>
        <time>2014-09-02T13:02:57Z</time>
      </trkpt>
      <trkpt lat="39.854583833366632" lon="3.180681383237243">
        <ele>60.219999999999999</ele>
        <time>2014-09-02T13:03:00Z</time>
      </trkpt>
      <trkpt lat="39.854599256068468" lon="3.180708289146423">
        <ele>60.700000000000003</ele>
        <time>2014-09-02T13:03:12Z</time>
      </trkpt>
      <trkpt lat="39.854597579687834" lon="3.180747851729393">
        <ele>58.780000000000001</ele>
        <time>2014-09-02T13:03:19Z</time>
      </trkpt>
      <trkpt lat="39.854592131450772" lon="3.18075061775744">
        <ele>60.700000000000003</ele>
        <time>2014-09-02T13:03:21Z</time>
      </trkpt>
      <trkpt lat="39.854580229148269" lon="3.180769057944417">
        <ele>61.18</ele>
        <time>2014-09-02T13:03:34Z</time>
      </trkpt>
      <trkpt lat="39.854583917185664" lon="3.180775763466954">
        <ele>49.159999999999997</ele>
        <time>2014-09-02T13:03:35Z</time>
      </trkpt>
      <trkpt lat="39.854583917185664" lon="3.180775763466954">
        <ele>57.82</ele>
        <time>2014-09-02T13:03:36Z</time>
      </trkpt>
      <trkpt lat="39.854583917185664" lon="3.180775763466954">
        <ele>65.030000000000001</ele>
        <time>2014-09-02T13:03:38Z</time>
      </trkpt>
      <trkpt lat="39.854583917185664" lon="3.180775763466954">
        <ele>58.299999999999997</ele>
        <time>2014-09-02T13:03:39Z</time>
      </trkpt>
      <trkpt lat="39.854583917185664" lon="3.180775763466954">
        <ele>61.18</ele>
        <time>2014-09-02T13:03:42Z</time>
      </trkpt>
      <trkpt lat="39.854583917185664" lon="3.180775763466954">
        <ele>62.619999999999997</ele>
        <time>2014-09-02T13:03:45Z</time>
      </trkpt>
      <trkpt lat="39.854583917185664" lon="3.180775763466954">
        <ele>46.280000000000001</ele>
        <time>2014-09-02T13:03:47Z</time>
      </trkpt>
      <trkpt lat="39.854583917185664" lon="3.180775763466954">
        <ele>57.340000000000003</ele>
        <time>2014-09-02T13:03:48Z</time>
      </trkpt>
      <trkpt lat="39.854583917185664" lon="3.180775763466954">
        <ele>61.659999999999997</ele>
        <time>2014-09-02T13:03:49Z</time>
      </trkpt>
      <trkpt lat="39.854585509747267" lon="3.180777439847589">
        <ele>71.269999999999996</ele>
        <time>2014-09-02T13:03:51Z</time>
      </trkpt>
      <trkpt lat="39.854583917185664" lon="3.180775763466954">
        <ele>48.68</ele>
        <time>2014-09-02T13:03:52Z</time>
      </trkpt>
      <trkpt lat="39.854583917185664" lon="3.180775763466954">
        <ele>59.259999999999998</ele>
        <time>2014-09-02T13:03:53Z</time>
      </trkpt>
      <trkpt lat="39.854583917185664" lon="3.180775763466954">
        <ele>53.490000000000002</ele>
        <time>2014-09-02T13:03:56Z</time>
      </trkpt>
      <trkpt lat="39.854583917185664" lon="3.180775763466954">
        <ele>59.740000000000002</ele>
        <time>2014-09-02T13:03:57Z</time>
      </trkpt>
      <trkpt lat="39.854583917185664" lon="3.180775763466954">
        <ele>65.989999999999995</ele>
        <time>2014-09-02T13:03:58Z</time>
      </trkpt>
      <trkpt lat="39.854583917185664" lon="3.180775763466954">
        <ele>74.640000000000001</ele>
        <time>2014-09-02T13:03:59Z</time>
      </trkpt>
      <trkpt lat="39.854585509747267" lon="3.180771404877305">
        <ele>60.219999999999999</ele>
        <time>2014-09-02T13:04:00Z</time>
      </trkpt>
      <trkpt lat="39.854585258290172" lon="3.180777858942747">
        <ele>55.409999999999997</ele>
        <time>2014-09-02T13:04:03Z</time>
      </trkpt>
      <trkpt lat="39.854585258290172" lon="3.180777858942747">
        <ele>62.619999999999997</ele>
        <time>2014-09-02T13:04:04Z</time>
      </trkpt>
      <trkpt lat="39.854585258290172" lon="3.180777858942747">
        <ele>59.259999999999998</ele>
        <time>2014-09-02T13:04:05Z</time>
      </trkpt>
      <trkpt lat="39.854585258290172" lon="3.180777858942747">
        <ele>59.740000000000002</ele>
        <time>2014-09-02T13:04:12Z</time>
      </trkpt>
      <trkpt lat="39.854585258290172" lon="3.180777858942747">
        <ele>54.450000000000003</ele>
        <time>2014-09-02T13:04:15Z</time>
      </trkpt>
      <trkpt lat="39.854585258290172" lon="3.180777858942747">
        <ele>66.950000000000003</ele>
        <time>2014-09-02T13:04:16Z</time>
      </trkpt>
      <trkpt lat="39.854583330452442" lon="3.180777607485652">
        <ele>61.659999999999997</ele>
        <time>2014-09-02T13:04:17Z</time>
      </trkpt>
      <trkpt lat="39.854585258290172" lon="3.180777858942747">
        <ele>59.740000000000002</ele>
        <time>2014-09-02T13:04:19Z</time>
      </trkpt>
      <trkpt lat="39.854585258290172" lon="3.180777858942747">
        <ele>51.090000000000003</ele>
        <time>2014-09-02T13:04:20Z</time>
      </trkpt>
      <trkpt lat="39.854585258290172" lon="3.180777858942747">
        <ele>61.18</ele>
        <time>2014-09-02T13:04:21Z</time>
      </trkpt>
      <trkpt lat="39.854585258290172" lon="3.180777858942747">
        <ele>56.369999999999997</ele>
        <time>2014-09-02T13:04:23Z</time>
      </trkpt>
      <trkpt lat="39.854585593566298" lon="3.180775512009859">
        <ele>38.590000000000003</ele>
        <time>2014-09-02T13:04:24Z</time>
      </trkpt>
      <trkpt lat="39.854585258290172" lon="3.180777858942747">
        <ele>83.290000000000006</ele>
        <time>2014-09-02T13:04:25Z</time>
      </trkpt>
      <trkpt lat="39.854585258290172" lon="3.180777858942747">
        <ele>60.700000000000003</ele>
        <time>2014-09-02T13:04:26Z</time>
      </trkpt>
      <trkpt lat="39.854585258290172" lon="3.180777858942747">
        <ele>57.82</ele>
        <time>2014-09-02T13:04:29Z</time>
      </trkpt>
      <trkpt lat="39.854585258290172" lon="3.180777858942747">
        <ele>62.140000000000001</ele>
        <time>2014-09-02T13:04:30Z</time>
      </trkpt>
      <trkpt lat="39.854585258290172" lon="3.180777858942747">
        <ele>48.68</ele>
        <time>2014-09-02T13:04:32Z</time>
      </trkpt>
      <trkpt lat="39.854586012661457" lon="3.180773332715035">
        <ele>59.259999999999998</ele>
        <time>2014-09-02T13:04:33Z</time>
      </trkpt>
      <trkpt lat="39.854592885822058" lon="3.180772410705686">
        <ele>55.409999999999997</ele>
        <time>2014-09-02T13:04:37Z</time>
      </trkpt>
      <trkpt lat="39.854592885822058" lon="3.180772410705686">
        <ele>65.030000000000001</ele>
        <time>2014-09-02T13:04:38Z</time>
      </trkpt>
      <trkpt lat="39.854592885822058" lon="3.180772410705686">
        <ele>59.740000000000002</ele>
        <time>2014-09-02T13:04:39Z</time>
      </trkpt>
      <trkpt lat="39.854596322402358" lon="3.18077065050602">
        <ele>59.740000000000002</ele>
        <time>2014-09-02T13:04:54Z</time>
      </trkpt>
      <trkpt lat="39.854598417878151" lon="3.180772494524717">
        <ele>59.740000000000002</ele>
        <time>2014-09-02T13:05:06Z</time>
      </trkpt>
      <trkpt lat="39.854594310745597" lon="3.180775176733732">
        <ele>60.700000000000003</ele>
        <time>2014-09-02T13:05:15Z</time>
      </trkpt>
      <trkpt lat="39.854577211663127" lon="3.180778194218874">
        <ele>59.740000000000002</ele>
        <time>2014-09-02T13:05:29Z</time>
      </trkpt>
      <trkpt lat="39.854580815881491" lon="3.180780960246921">
        <ele>59.259999999999998</ele>
        <time>2014-09-02T13:05:43Z</time>
      </trkpt>
      <trkpt lat="39.854581318795681" lon="3.180779116228223">
        <ele>60.700000000000003</ele>
        <time>2014-09-02T13:06:10Z</time>
      </trkpt>
      <trkpt lat="39.854570003226399" lon="3.180780541151762">
        <ele>58.299999999999997</ele>
        <time>2014-09-02T13:06:30Z</time>
      </trkpt>
      <trkpt lat="39.854548964649439" lon="3.180760843679309">
        <ele>58.299999999999997</ele>
        <time>2014-09-02T13:06:39Z</time>
      </trkpt>
      <trkpt lat="39.854533122852445" lon="3.180747516453266">
        <ele>58.299999999999997</ele>
        <time>2014-09-02T13:06:40Z</time>
      </trkpt>
      <trkpt lat="39.854510743170977" lon="3.180733099579811">
        <ele>58.780000000000001</ele>
        <time>2014-09-02T13:06:41Z</time>
      </trkpt>
      <trkpt lat="39.854482412338257" lon="3.180718598887324">
        <ele>58.299999999999997</ele>
        <time>2014-09-02T13:06:42Z</time>
      </trkpt>
    </trkseg>
  </trk>

</gpx>
